<?xml version="1.0" encoding="UTF-8" standalone="no" ?>
<gpx xmlns="http://www.topografix.com/GPX/1/1" xmlns:xsi="http://www.w3.org/2001/XMLSchema-instance" xsi:schemaLocation="http://www.topografix.com/GPX/1/1 http://www.topografix.com/GPX/1/1/gpx.xsd" version="1.1" creator="VisuGPX - https://www.visugpx.com">
  <metadata>
    <name>ACLV entrainement #8</name>
    <desc><![CDATA[ACLV entrainement #8]]></desc>
  </metadata>
  <trk>
    <name><![CDATA[Untitled]]></name>
    <trkseg>
      <trkpt lat="45.76645" lon="4.81944">
        <ele>173.60000610352</ele>
        <time>2014-12-06T12:39:20.000Z</time>
      </trkpt>
      <trkpt lat="45.7664" lon="4.81864">
        <ele>174.80000305176</ele>
        <time>2014-12-06T12:39:29.000Z</time>
      </trkpt>
      <trkpt lat="45.76643" lon="4.81783">
        <ele>168.80000305176</ele>
        <time>2014-12-06T12:39:37.000Z</time>
      </trkpt>
      <trkpt lat="45.76658" lon="4.81702">
        <ele>165.39999389648</ele>
        <time>2014-12-06T12:39:45.000Z</time>
      </trkpt>
      <trkpt lat="45.76672" lon="4.81642">
        <ele>163.80000305176</ele>
        <time>2014-12-06T12:39:51.000Z</time>
      </trkpt>
      <trkpt lat="45.7669" lon="4.81564">
        <ele>164</ele>
        <time>2014-12-06T12:39:59.000Z</time>
      </trkpt>
      <trkpt lat="45.76716" lon="4.81489">
        <ele>164.19999694824</ele>
        <time>2014-12-06T12:40:08.000Z</time>
      </trkpt>
      <trkpt lat="45.76741" lon="4.81413">
        <ele>164.19999694824</ele>
        <time>2014-12-06T12:40:17.000Z</time>
      </trkpt>
      <trkpt lat="45.7677" lon="4.81343">
        <ele>164</ele>
        <time>2014-12-06T12:40:25.000Z</time>
      </trkpt>
      <trkpt lat="45.76792" lon="4.81316">
        <ele>163.60000610352</ele>
        <time>2014-12-06T12:40:29.000Z</time>
      </trkpt>
      <trkpt lat="45.76844" lon="4.81285">
        <ele>163.60000610352</ele>
        <time>2014-12-06T12:40:36.000Z</time>
      </trkpt>
      <trkpt lat="45.769" lon="4.81271">
        <ele>163.60000610352</ele>
        <time>2014-12-06T12:40:44.000Z</time>
      </trkpt>
      <trkpt lat="45.76955" lon="4.81261">
        <ele>163.80000305176</ele>
        <time>2014-12-06T12:40:52.000Z</time>
      </trkpt>
      <trkpt lat="45.77012" lon="4.81242">
        <ele>164.80000305176</ele>
        <time>2014-12-06T12:41:01.000Z</time>
      </trkpt>
      <trkpt lat="45.77064" lon="4.81214">
        <ele>165</ele>
        <time>2014-12-06T12:41:10.000Z</time>
      </trkpt>
      <trkpt lat="45.77117" lon="4.81187">
        <ele>164.80000305176</ele>
        <time>2014-12-06T12:41:19.000Z</time>
      </trkpt>
      <trkpt lat="45.7717" lon="4.81165">
        <ele>164.80000305176</ele>
        <time>2014-12-06T12:41:27.000Z</time>
      </trkpt>
      <trkpt lat="45.77201" lon="4.81142">
        <ele>165</ele>
        <time>2014-12-06T12:41:32.000Z</time>
      </trkpt>
      <trkpt lat="45.77247" lon="4.81097">
        <ele>164.60000610352</ele>
        <time>2014-12-06T12:41:40.000Z</time>
      </trkpt>
      <trkpt lat="45.77293" lon="4.81048">
        <ele>164</ele>
        <time>2014-12-06T12:41:49.000Z</time>
      </trkpt>
      <trkpt lat="45.77338" lon="4.80994">
        <ele>164.39999389648</ele>
        <time>2014-12-06T12:41:58.000Z</time>
      </trkpt>
      <trkpt lat="45.77385" lon="4.80948">
        <ele>165</ele>
        <time>2014-12-06T12:42:07.000Z</time>
      </trkpt>
      <trkpt lat="45.77407" lon="4.80931">
        <ele>164.80000305176</ele>
        <time>2014-12-06T12:42:12.000Z</time>
      </trkpt>
      <trkpt lat="45.77456" lon="4.80887">
        <ele>162.80000305176</ele>
        <time>2014-12-06T12:42:22.000Z</time>
      </trkpt>
      <trkpt lat="45.77496" lon="4.80854">
        <ele>161.60000610352</ele>
        <time>2014-12-06T12:42:35.000Z</time>
      </trkpt>
      <trkpt lat="45.77498" lon="4.8078">
        <ele>160.80000305176</ele>
        <time>2014-12-06T12:42:44.000Z</time>
      </trkpt>
      <trkpt lat="45.7751" lon="4.80703">
        <ele>160.39999389648</ele>
        <time>2014-12-06T12:42:52.000Z</time>
      </trkpt>
      <trkpt lat="45.7752" lon="4.80631">
        <ele>160.19999694824</ele>
        <time>2014-12-06T12:43:00.000Z</time>
      </trkpt>
      <trkpt lat="45.77527" lon="4.80589">
        <ele>160.19999694824</ele>
        <time>2014-12-06T12:43:05.000Z</time>
      </trkpt>
      <trkpt lat="45.77536" lon="4.80553">
        <ele>161</ele>
        <time>2014-12-06T12:43:10.000Z</time>
      </trkpt>
      <trkpt lat="45.77538" lon="4.80499">
        <ele>161.80000305176</ele>
        <time>2014-12-06T12:43:17.000Z</time>
      </trkpt>
      <trkpt lat="45.7754" lon="4.80481">
        <ele>162</ele>
        <time>2014-12-06T12:43:19.000Z</time>
      </trkpt>
      <trkpt lat="45.77545" lon="4.80448">
        <ele>162</ele>
        <time>2014-12-06T12:43:23.000Z</time>
      </trkpt>
      <trkpt lat="45.77558" lon="4.80371">
        <ele>162</ele>
        <time>2014-12-06T12:43:32.000Z</time>
      </trkpt>
      <trkpt lat="45.77569" lon="4.80293">
        <ele>159.80000305176</ele>
        <time>2014-12-06T12:43:47.000Z</time>
      </trkpt>
      <trkpt lat="45.77575" lon="4.8024">
        <ele>158.60000610352</ele>
        <time>2014-12-06T12:43:56.000Z</time>
      </trkpt>
      <trkpt lat="45.77582" lon="4.80199">
        <ele>158.39999389648</ele>
        <time>2014-12-06T12:44:02.000Z</time>
      </trkpt>
      <trkpt lat="45.7759" lon="4.80126">
        <ele>162</ele>
        <time>2014-12-06T12:44:37.000Z</time>
      </trkpt>
      <trkpt lat="45.77595" lon="4.80091">
        <ele>162.80000305176</ele>
        <time>2014-12-06T12:44:44.000Z</time>
      </trkpt>
      <trkpt lat="45.77597" lon="4.80068">
        <ele>163.39999389648</ele>
        <time>2014-12-06T12:44:47.000Z</time>
      </trkpt>
      <trkpt lat="45.7761" lon="4.79989">
        <ele>165</ele>
        <time>2014-12-06T12:44:56.000Z</time>
      </trkpt>
      <trkpt lat="45.7762" lon="4.79906">
        <ele>166.60000610352</ele>
        <time>2014-12-06T12:45:05.000Z</time>
      </trkpt>
      <trkpt lat="45.77628" lon="4.79822">
        <ele>169.80000305176</ele>
        <time>2014-12-06T12:45:14.000Z</time>
      </trkpt>
      <trkpt lat="45.77637" lon="4.79745">
        <ele>173.39999389648</ele>
        <time>2014-12-06T12:45:23.000Z</time>
      </trkpt>
      <trkpt lat="45.77641" lon="4.79724">
        <ele>174.60000610352</ele>
        <time>2014-12-06T12:45:29.000Z</time>
      </trkpt>
      <trkpt lat="45.77648" lon="4.79648">
        <ele>173.39999389648</ele>
        <time>2014-12-06T12:45:43.000Z</time>
      </trkpt>
      <trkpt lat="45.77644" lon="4.79615">
        <ele>172.80000305176</ele>
        <time>2014-12-06T12:45:47.000Z</time>
      </trkpt>
      <trkpt lat="45.77639" lon="4.79599">
        <ele>172.39999389648</ele>
        <time>2014-12-06T12:45:49.000Z</time>
      </trkpt>
      <trkpt lat="45.77625" lon="4.79569">
        <ele>171.60000610352</ele>
        <time>2014-12-06T12:45:53.000Z</time>
      </trkpt>
      <trkpt lat="45.77587" lon="4.79514">
        <ele>170.80000305176</ele>
        <time>2014-12-06T12:46:01.000Z</time>
      </trkpt>
      <trkpt lat="45.77567" lon="4.79486">
        <ele>169.80000305176</ele>
        <time>2014-12-06T12:46:53.000Z</time>
      </trkpt>
      <trkpt lat="45.7752" lon="4.79434">
        <ele>171</ele>
        <time>2014-12-06T12:47:08.000Z</time>
      </trkpt>
      <trkpt lat="45.77476" lon="4.79385">
        <ele>172</ele>
        <time>2014-12-06T12:47:18.000Z</time>
      </trkpt>
      <trkpt lat="45.77429" lon="4.79333">
        <ele>174.19999694824</ele>
        <time>2014-12-06T12:47:28.000Z</time>
      </trkpt>
      <trkpt lat="45.77384" lon="4.79279">
        <ele>176</ele>
        <time>2014-12-06T12:47:38.000Z</time>
      </trkpt>
      <trkpt lat="45.77337" lon="4.79225">
        <ele>177.60000610352</ele>
        <time>2014-12-06T12:47:48.000Z</time>
      </trkpt>
      <trkpt lat="45.77329" lon="4.79202">
        <ele>178</ele>
        <time>2014-12-06T12:47:51.000Z</time>
      </trkpt>
      <trkpt lat="45.77304" lon="4.79126">
        <ele>179.80000305176</ele>
        <time>2014-12-06T12:48:02.000Z</time>
      </trkpt>
      <trkpt lat="45.77284" lon="4.79066">
        <ele>182</ele>
        <time>2014-12-06T12:48:11.000Z</time>
      </trkpt>
      <trkpt lat="45.77282" lon="4.79032">
        <ele>183.39999389648</ele>
        <time>2014-12-06T12:48:16.000Z</time>
      </trkpt>
      <trkpt lat="45.77303" lon="4.7896">
        <ele>186.60000610352</ele>
        <time>2014-12-06T12:48:29.000Z</time>
      </trkpt>
      <trkpt lat="45.77324" lon="4.78888">
        <ele>189.60000610352</ele>
        <time>2014-12-06T12:48:42.000Z</time>
      </trkpt>
      <trkpt lat="45.77327" lon="4.78876">
        <ele>190</ele>
        <time>2014-12-06T12:48:44.000Z</time>
      </trkpt>
      <trkpt lat="45.77354" lon="4.78814">
        <ele>191.80000305176</ele>
        <time>2014-12-06T12:48:55.000Z</time>
      </trkpt>
      <trkpt lat="45.77361" lon="4.78805">
        <ele>192.19999694824</ele>
        <time>2014-12-06T12:48:57.000Z</time>
      </trkpt>
      <trkpt lat="45.77374" lon="4.78795">
        <ele>192.60000610352</ele>
        <time>2014-12-06T12:49:00.000Z</time>
      </trkpt>
      <trkpt lat="45.77408" lon="4.78771">
        <ele>193.80000305176</ele>
        <time>2014-12-06T12:49:08.000Z</time>
      </trkpt>
      <trkpt lat="45.77444" lon="4.78732">
        <ele>196.60000610352</ele>
        <time>2014-12-06T12:49:18.000Z</time>
      </trkpt>
      <trkpt lat="45.77471" lon="4.78706">
        <ele>199</ele>
        <time>2014-12-06T12:49:25.000Z</time>
      </trkpt>
      <trkpt lat="45.77487" lon="4.78661">
        <ele>201.39999389648</ele>
        <time>2014-12-06T12:49:32.000Z</time>
      </trkpt>
      <trkpt lat="45.7749" lon="4.78625">
        <ele>203</ele>
        <time>2014-12-06T12:49:37.000Z</time>
      </trkpt>
      <trkpt lat="45.77485" lon="4.78584">
        <ele>205.19999694824</ele>
        <time>2014-12-06T12:49:43.000Z</time>
      </trkpt>
      <trkpt lat="45.77454" lon="4.78517">
        <ele>210.60000610352</ele>
        <time>2014-12-06T12:50:06.000Z</time>
      </trkpt>
      <trkpt lat="45.77438" lon="4.78505">
        <ele>211.19999694824</ele>
        <time>2014-12-06T12:50:10.000Z</time>
      </trkpt>
      <trkpt lat="45.77418" lon="4.78498">
        <ele>211.60000610352</ele>
        <time>2014-12-06T12:50:14.000Z</time>
      </trkpt>
      <trkpt lat="45.7736" lon="4.78503">
        <ele>213.19999694824</ele>
        <time>2014-12-06T12:50:25.000Z</time>
      </trkpt>
      <trkpt lat="45.77336" lon="4.78502">
        <ele>214.39999389648</ele>
        <time>2014-12-06T12:50:30.000Z</time>
      </trkpt>
      <trkpt lat="45.77327" lon="4.78498">
        <ele>215</ele>
        <time>2014-12-06T12:50:32.000Z</time>
      </trkpt>
      <trkpt lat="45.77319" lon="4.78494">
        <ele>215.39999389648</ele>
        <time>2014-12-06T12:50:34.000Z</time>
      </trkpt>
      <trkpt lat="45.77328" lon="4.7844">
        <ele>216.19999694824</ele>
        <time>2014-12-06T12:50:43.000Z</time>
      </trkpt>
      <trkpt lat="45.7734" lon="4.78378">
        <ele>218.60000610352</ele>
        <time>2014-12-06T12:50:53.000Z</time>
      </trkpt>
      <trkpt lat="45.7735" lon="4.78308">
        <ele>224.39999389648</ele>
        <time>2014-12-06T12:51:08.000Z</time>
      </trkpt>
      <trkpt lat="45.77364" lon="4.78253">
        <ele>228.80000305176</ele>
        <time>2014-12-06T12:51:31.000Z</time>
      </trkpt>
      <trkpt lat="45.77382" lon="4.78179">
        <ele>230.80000305176</ele>
        <time>2014-12-06T12:51:43.000Z</time>
      </trkpt>
      <trkpt lat="45.77404" lon="4.78102">
        <ele>233.19999694824</ele>
        <time>2014-12-06T12:51:55.000Z</time>
      </trkpt>
      <trkpt lat="45.77422" lon="4.78032">
        <ele>235.19999694824</ele>
        <time>2014-12-06T12:52:06.000Z</time>
      </trkpt>
      <trkpt lat="45.77441" lon="4.77965">
        <ele>235.80000305176</ele>
        <time>2014-12-06T12:52:18.000Z</time>
      </trkpt>
      <trkpt lat="45.77455" lon="4.7789">
        <ele>237.19999694824</ele>
        <time>2014-12-06T12:52:46.000Z</time>
      </trkpt>
      <trkpt lat="45.77453" lon="4.77887">
        <ele>237.39999389648</ele>
        <time>2014-12-06T12:52:47.000Z</time>
      </trkpt>
      <trkpt lat="45.77442" lon="4.77881">
        <ele>237.80000305176</ele>
        <time>2014-12-06T12:52:51.000Z</time>
      </trkpt>
      <trkpt lat="45.77386" lon="4.77855">
        <ele>237.80000305176</ele>
        <time>2014-12-06T12:53:02.000Z</time>
      </trkpt>
      <trkpt lat="45.77333" lon="4.77827">
        <ele>237.80000305176</ele>
        <time>2014-12-06T12:53:10.000Z</time>
      </trkpt>
      <trkpt lat="45.77279" lon="4.77797">
        <ele>239</ele>
        <time>2014-12-06T12:53:18.000Z</time>
      </trkpt>
      <trkpt lat="45.77227" lon="4.77761">
        <ele>240</ele>
        <time>2014-12-06T12:53:27.000Z</time>
      </trkpt>
      <trkpt lat="45.77188" lon="4.77728">
        <ele>240.80000305176</ele>
        <time>2014-12-06T12:53:34.000Z</time>
      </trkpt>
      <trkpt lat="45.77168" lon="4.77699">
        <ele>241.39999389648</ele>
        <time>2014-12-06T12:53:38.000Z</time>
      </trkpt>
      <trkpt lat="45.77134" lon="4.77638">
        <ele>243.19999694824</ele>
        <time>2014-12-06T12:53:46.000Z</time>
      </trkpt>
      <trkpt lat="45.77097" lon="4.77575">
        <ele>245.39999389648</ele>
        <time>2014-12-06T12:53:54.000Z</time>
      </trkpt>
      <trkpt lat="45.77061" lon="4.77508">
        <ele>246.39999389648</ele>
        <time>2014-12-06T12:54:01.000Z</time>
      </trkpt>
      <trkpt lat="45.77042" lon="4.77472">
        <ele>246.39999389648</ele>
        <time>2014-12-06T12:54:05.000Z</time>
      </trkpt>
      <trkpt lat="45.77043" lon="4.77418">
        <ele>245.80000305176</ele>
        <time>2014-12-06T12:54:10.000Z</time>
      </trkpt>
      <trkpt lat="45.77059" lon="4.77338">
        <ele>244.60000610352</ele>
        <time>2014-12-06T12:54:17.000Z</time>
      </trkpt>
      <trkpt lat="45.77066" lon="4.77288">
        <ele>243.60000610352</ele>
        <time>2014-12-06T12:54:21.000Z</time>
      </trkpt>
      <trkpt lat="45.77049" lon="4.77213">
        <ele>242</ele>
        <time>2014-12-06T12:54:27.000Z</time>
      </trkpt>
      <trkpt lat="45.77044" lon="4.77201">
        <ele>241.80000305176</ele>
        <time>2014-12-06T12:54:28.000Z</time>
      </trkpt>
      <trkpt lat="45.77011" lon="4.7713">
        <ele>239.39999389648</ele>
        <time>2014-12-06T12:54:34.000Z</time>
      </trkpt>
      <trkpt lat="45.76978" lon="4.7706">
        <ele>237</ele>
        <time>2014-12-06T12:54:40.000Z</time>
      </trkpt>
      <trkpt lat="45.76943" lon="4.76997">
        <ele>234.60000610352</ele>
        <time>2014-12-06T12:54:46.000Z</time>
      </trkpt>
      <trkpt lat="45.76916" lon="4.76974">
        <ele>233.39999389648</ele>
        <time>2014-12-06T12:54:49.000Z</time>
      </trkpt>
      <trkpt lat="45.76874" lon="4.76963">
        <ele>231.80000305176</ele>
        <time>2014-12-06T12:54:53.000Z</time>
      </trkpt>
      <trkpt lat="45.76813" lon="4.76952">
        <ele>229</ele>
        <time>2014-12-06T12:54:59.000Z</time>
      </trkpt>
      <trkpt lat="45.76799" lon="4.76948">
        <ele>228</ele>
        <time>2014-12-06T12:55:01.000Z</time>
      </trkpt>
      <trkpt lat="45.76829" lon="4.76914">
        <ele>224</ele>
        <time>2014-12-06T12:55:10.000Z</time>
      </trkpt>
      <trkpt lat="45.76835" lon="4.76913">
        <ele>223.60000610352</ele>
        <time>2014-12-06T12:55:11.000Z</time>
      </trkpt>
      <trkpt lat="45.76846" lon="4.7691">
        <ele>222.60000610352</ele>
        <time>2014-12-06T12:55:14.000Z</time>
      </trkpt>
      <trkpt lat="45.76848" lon="4.76903">
        <ele>220.80000305176</ele>
        <time>2014-12-06T12:55:21.000Z</time>
      </trkpt>
      <trkpt lat="45.76837" lon="4.76898">
        <ele>219.60000610352</ele>
        <time>2014-12-06T12:55:28.000Z</time>
      </trkpt>
      <trkpt lat="45.7682" lon="4.76894">
        <ele>218</ele>
        <time>2014-12-06T12:56:20.000Z</time>
      </trkpt>
      <trkpt lat="45.76819" lon="4.769">
        <ele>219.80000305176</ele>
        <time>2014-12-06T13:01:25.000Z</time>
      </trkpt>
      <trkpt lat="45.76825" lon="4.76897">
        <ele>220.39999389648</ele>
        <time>2014-12-06T13:01:33.000Z</time>
      </trkpt>
      <trkpt lat="45.7682" lon="4.76905">
        <ele>221.39999389648</ele>
        <time>2014-12-06T13:01:41.000Z</time>
      </trkpt>
      <trkpt lat="45.76832" lon="4.76917">
        <ele>222</ele>
        <time>2014-12-06T13:01:49.000Z</time>
      </trkpt>
      <trkpt lat="45.76887" lon="4.76916">
        <ele>221.80000305176</ele>
        <time>2014-12-06T13:01:57.000Z</time>
      </trkpt>
      <trkpt lat="45.76903" lon="4.76916">
        <ele>221.60000610352</ele>
        <time>2014-12-06T13:01:59.000Z</time>
      </trkpt>
      <trkpt lat="45.76956" lon="4.76941">
        <ele>220.80000305176</ele>
        <time>2014-12-06T13:02:06.000Z</time>
      </trkpt>
      <trkpt lat="45.76988" lon="4.7697">
        <ele>220.19999694824</ele>
        <time>2014-12-06T13:02:11.000Z</time>
      </trkpt>
      <trkpt lat="45.77025" lon="4.77031">
        <ele>219.80000305176</ele>
        <time>2014-12-06T13:02:19.000Z</time>
      </trkpt>
      <trkpt lat="45.77069" lon="4.77089">
        <ele>220</ele>
        <time>2014-12-06T13:02:28.000Z</time>
      </trkpt>
      <trkpt lat="45.77092" lon="4.77108">
        <ele>220.60000610352</ele>
        <time>2014-12-06T13:02:33.000Z</time>
      </trkpt>
      <trkpt lat="45.77109" lon="4.77113">
        <ele>220.80000305176</ele>
        <time>2014-12-06T13:02:36.000Z</time>
      </trkpt>
      <trkpt lat="45.77162" lon="4.77134">
        <ele>221.80000305176</ele>
        <time>2014-12-06T13:02:46.000Z</time>
      </trkpt>
      <trkpt lat="45.77218" lon="4.7715">
        <ele>223.19999694824</ele>
        <time>2014-12-06T13:02:57.000Z</time>
      </trkpt>
      <trkpt lat="45.77272" lon="4.77183">
        <ele>225.19999694824</ele>
        <time>2014-12-06T13:03:08.000Z</time>
      </trkpt>
      <trkpt lat="45.77325" lon="4.7722">
        <ele>227.39999389648</ele>
        <time>2014-12-06T13:03:19.000Z</time>
      </trkpt>
      <trkpt lat="45.77365" lon="4.77252">
        <ele>229.60000610352</ele>
        <time>2014-12-06T13:03:28.000Z</time>
      </trkpt>
      <trkpt lat="45.77372" lon="4.77262">
        <ele>230</ele>
        <time>2014-12-06T13:03:30.000Z</time>
      </trkpt>
      <trkpt lat="45.77397" lon="4.7723">
        <ele>230.80000305176</ele>
        <time>2014-12-06T13:03:37.000Z</time>
      </trkpt>
      <trkpt lat="45.77404" lon="4.77202">
        <ele>230.60000610352</ele>
        <time>2014-12-06T13:03:40.000Z</time>
      </trkpt>
      <trkpt lat="45.77438" lon="4.77143">
        <ele>230.60000610352</ele>
        <time>2014-12-06T13:03:48.000Z</time>
      </trkpt>
      <trkpt lat="45.77459" lon="4.77113">
        <ele>231.19999694824</ele>
        <time>2014-12-06T13:03:53.000Z</time>
      </trkpt>
      <trkpt lat="45.77471" lon="4.77091">
        <ele>231.80000305176</ele>
        <time>2014-12-06T13:03:57.000Z</time>
      </trkpt>
      <trkpt lat="45.77494" lon="4.77059">
        <ele>233.19999694824</ele>
        <time>2014-12-06T13:04:04.000Z</time>
      </trkpt>
      <trkpt lat="45.77502" lon="4.77053">
        <ele>233.60000610352</ele>
        <time>2014-12-06T13:04:06.000Z</time>
      </trkpt>
      <trkpt lat="45.77521" lon="4.77044">
        <ele>235</ele>
        <time>2014-12-06T13:04:12.000Z</time>
      </trkpt>
      <trkpt lat="45.77552" lon="4.77031">
        <ele>236.60000610352</ele>
        <time>2014-12-06T13:04:19.000Z</time>
      </trkpt>
      <trkpt lat="45.7757" lon="4.77006">
        <ele>237.60000610352</ele>
        <time>2014-12-06T13:04:24.000Z</time>
      </trkpt>
      <trkpt lat="45.7759" lon="4.76976">
        <ele>239</ele>
        <time>2014-12-06T13:04:30.000Z</time>
      </trkpt>
      <trkpt lat="45.77603" lon="4.76958">
        <ele>239.80000305176</ele>
        <time>2014-12-06T13:04:34.000Z</time>
      </trkpt>
      <trkpt lat="45.77647" lon="4.76907">
        <ele>242.60000610352</ele>
        <time>2014-12-06T13:04:46.000Z</time>
      </trkpt>
      <trkpt lat="45.77658" lon="4.76893">
        <ele>243.39999389648</ele>
        <time>2014-12-06T13:04:49.000Z</time>
      </trkpt>
      <trkpt lat="45.77689" lon="4.76851">
        <ele>245.39999389648</ele>
        <time>2014-12-06T13:04:57.000Z</time>
      </trkpt>
      <trkpt lat="45.77704" lon="4.7683">
        <ele>246.60000610352</ele>
        <time>2014-12-06T13:05:01.000Z</time>
      </trkpt>
      <trkpt lat="45.7773" lon="4.76806">
        <ele>248.19999694824</ele>
        <time>2014-12-06T13:05:07.000Z</time>
      </trkpt>
      <trkpt lat="45.77759" lon="4.76785">
        <ele>249</ele>
        <time>2014-12-06T13:05:13.000Z</time>
      </trkpt>
      <trkpt lat="45.77807" lon="4.76738">
        <ele>251</ele>
        <time>2014-12-06T13:05:24.000Z</time>
      </trkpt>
      <trkpt lat="45.77827" lon="4.76715">
        <ele>251.60000610352</ele>
        <time>2014-12-06T13:05:29.000Z</time>
      </trkpt>
      <trkpt lat="45.7784" lon="4.76705">
        <ele>252</ele>
        <time>2014-12-06T13:05:32.000Z</time>
      </trkpt>
      <trkpt lat="45.77887" lon="4.7668">
        <ele>254</ele>
        <time>2014-12-06T13:05:42.000Z</time>
      </trkpt>
      <trkpt lat="45.77896" lon="4.76674">
        <ele>254.39999389648</ele>
        <time>2014-12-06T13:05:44.000Z</time>
      </trkpt>
      <trkpt lat="45.77905" lon="4.76669">
        <ele>255</ele>
        <time>2014-12-06T13:05:46.000Z</time>
      </trkpt>
      <trkpt lat="45.77961" lon="4.76642">
        <ele>257.79998779297</ele>
        <time>2014-12-06T13:05:58.000Z</time>
      </trkpt>
      <trkpt lat="45.78001" lon="4.76584">
        <ele>260.39999389648</ele>
        <time>2014-12-06T13:06:09.000Z</time>
      </trkpt>
      <trkpt lat="45.78023" lon="4.76534">
        <ele>262.20001220703</ele>
        <time>2014-12-06T13:06:17.000Z</time>
      </trkpt>
      <trkpt lat="45.78049" lon="4.76509">
        <ele>263.60000610352</ele>
        <time>2014-12-06T13:06:23.000Z</time>
      </trkpt>
      <trkpt lat="45.78099" lon="4.76472">
        <ele>266.20001220703</ele>
        <time>2014-12-06T13:06:34.000Z</time>
      </trkpt>
      <trkpt lat="45.78139" lon="4.7645">
        <ele>268</ele>
        <time>2014-12-06T13:06:46.000Z</time>
      </trkpt>
      <trkpt lat="45.78168" lon="4.76415">
        <ele>267.79998779297</ele>
        <time>2014-12-06T13:06:53.000Z</time>
      </trkpt>
      <trkpt lat="45.78178" lon="4.76408">
        <ele>267.60000610352</ele>
        <time>2014-12-06T13:06:55.000Z</time>
      </trkpt>
      <trkpt lat="45.78224" lon="4.76354">
        <ele>266</ele>
        <time>2014-12-06T13:07:06.000Z</time>
      </trkpt>
      <trkpt lat="45.78253" lon="4.76308">
        <ele>266.60000610352</ele>
        <time>2014-12-06T13:07:14.000Z</time>
      </trkpt>
      <trkpt lat="45.78291" lon="4.76249">
        <ele>267.60000610352</ele>
        <time>2014-12-06T13:07:24.000Z</time>
      </trkpt>
      <trkpt lat="45.78311" lon="4.7622">
        <ele>268.39999389648</ele>
        <time>2014-12-06T13:07:29.000Z</time>
      </trkpt>
      <trkpt lat="45.78351" lon="4.76163">
        <ele>270.60000610352</ele>
        <time>2014-12-06T13:07:39.000Z</time>
      </trkpt>
      <trkpt lat="45.78398" lon="4.76118">
        <ele>273</ele>
        <time>2014-12-06T13:07:49.000Z</time>
      </trkpt>
      <trkpt lat="45.78449" lon="4.76079">
        <ele>275.20001220703</ele>
        <time>2014-12-06T13:08:01.000Z</time>
      </trkpt>
      <trkpt lat="45.78498" lon="4.76044">
        <ele>277</ele>
        <time>2014-12-06T13:08:12.000Z</time>
      </trkpt>
      <trkpt lat="45.78549" lon="4.76004">
        <ele>279.60000610352</ele>
        <time>2014-12-06T13:08:25.000Z</time>
      </trkpt>
      <trkpt lat="45.7858" lon="4.75983">
        <ele>280.79998779297</ele>
        <time>2014-12-06T13:08:32.000Z</time>
      </trkpt>
      <trkpt lat="45.7859" lon="4.75977">
        <ele>281.39999389648</ele>
        <time>2014-12-06T13:08:34.000Z</time>
      </trkpt>
      <trkpt lat="45.78643" lon="4.75942">
        <ele>284.20001220703</ele>
        <time>2014-12-06T13:08:45.000Z</time>
      </trkpt>
      <trkpt lat="45.78698" lon="4.75926">
        <ele>288</ele>
        <time>2014-12-06T13:08:56.000Z</time>
      </trkpt>
      <trkpt lat="45.78736" lon="4.75941">
        <ele>290.60000610352</ele>
        <time>2014-12-06T13:09:04.000Z</time>
      </trkpt>
      <trkpt lat="45.78744" lon="4.75947">
        <ele>291.20001220703</ele>
        <time>2014-12-06T13:09:06.000Z</time>
      </trkpt>
      <trkpt lat="45.78756" lon="4.75957">
        <ele>291.60000610352</ele>
        <time>2014-12-06T13:09:09.000Z</time>
      </trkpt>
      <trkpt lat="45.78811" lon="4.75985">
        <ele>292.79998779297</ele>
        <time>2014-12-06T13:09:19.000Z</time>
      </trkpt>
      <trkpt lat="45.78863" lon="4.76015">
        <ele>293.60000610352</ele>
        <time>2014-12-06T13:09:29.000Z</time>
      </trkpt>
      <trkpt lat="45.78919" lon="4.76049">
        <ele>293.79998779297</ele>
        <time>2014-12-06T13:09:39.000Z</time>
      </trkpt>
      <trkpt lat="45.78924" lon="4.76054">
        <ele>293.79998779297</ele>
        <time>2014-12-06T13:09:40.000Z</time>
      </trkpt>
      <trkpt lat="45.78925" lon="4.76105">
        <ele>293.39999389648</ele>
        <time>2014-12-06T13:09:45.000Z</time>
      </trkpt>
      <trkpt lat="45.78917" lon="4.76184">
        <ele>293.60000610352</ele>
        <time>2014-12-06T13:09:53.000Z</time>
      </trkpt>
      <trkpt lat="45.78909" lon="4.76261">
        <ele>295.39999389648</ele>
        <time>2014-12-06T13:10:03.000Z</time>
      </trkpt>
      <trkpt lat="45.78899" lon="4.76337">
        <ele>296.79998779297</ele>
        <time>2014-12-06T13:10:13.000Z</time>
      </trkpt>
      <trkpt lat="45.78888" lon="4.76414">
        <ele>296.20001220703</ele>
        <time>2014-12-06T13:10:20.000Z</time>
      </trkpt>
      <trkpt lat="45.78862" lon="4.76491">
        <ele>294.79998779297</ele>
        <time>2014-12-06T13:10:28.000Z</time>
      </trkpt>
      <trkpt lat="45.78837" lon="4.76562">
        <ele>293.39999389648</ele>
        <time>2014-12-06T13:10:35.000Z</time>
      </trkpt>
      <trkpt lat="45.78818" lon="4.7661">
        <ele>293.39999389648</ele>
        <time>2014-12-06T13:10:45.000Z</time>
      </trkpt>
      <trkpt lat="45.7885" lon="4.76606">
        <ele>293</ele>
        <time>2014-12-06T13:10:52.000Z</time>
      </trkpt>
      <trkpt lat="45.78905" lon="4.76592">
        <ele>293</ele>
        <time>2014-12-06T13:11:02.000Z</time>
      </trkpt>
      <trkpt lat="45.78961" lon="4.76576">
        <ele>293.60000610352</ele>
        <time>2014-12-06T13:11:12.000Z</time>
      </trkpt>
      <trkpt lat="45.79017" lon="4.76552">
        <ele>294.60000610352</ele>
        <time>2014-12-06T13:11:22.000Z</time>
      </trkpt>
      <trkpt lat="45.7903" lon="4.76543">
        <ele>295</ele>
        <time>2014-12-06T13:11:25.000Z</time>
      </trkpt>
      <trkpt lat="45.79056" lon="4.76526">
        <ele>295.60000610352</ele>
        <time>2014-12-06T13:11:31.000Z</time>
      </trkpt>
      <trkpt lat="45.79102" lon="4.76495">
        <ele>296.60000610352</ele>
        <time>2014-12-06T13:11:40.000Z</time>
      </trkpt>
      <trkpt lat="45.79154" lon="4.76474">
        <ele>298.39999389648</ele>
        <time>2014-12-06T13:11:50.000Z</time>
      </trkpt>
      <trkpt lat="45.7921" lon="4.7645">
        <ele>299.39999389648</ele>
        <time>2014-12-06T13:12:00.000Z</time>
      </trkpt>
      <trkpt lat="45.79264" lon="4.76428">
        <ele>299.20001220703</ele>
        <time>2014-12-06T13:12:09.000Z</time>
      </trkpt>
      <trkpt lat="45.79318" lon="4.76412">
        <ele>298.60000610352</ele>
        <time>2014-12-06T13:12:17.000Z</time>
      </trkpt>
      <trkpt lat="45.79375" lon="4.76411">
        <ele>298.60000610352</ele>
        <time>2014-12-06T13:12:25.000Z</time>
      </trkpt>
      <trkpt lat="45.79432" lon="4.7641">
        <ele>298.20001220703</ele>
        <time>2014-12-06T13:12:33.000Z</time>
      </trkpt>
      <trkpt lat="45.79493" lon="4.76424">
        <ele>298</ele>
        <time>2014-12-06T13:12:41.000Z</time>
      </trkpt>
      <trkpt lat="45.79551" lon="4.76438">
        <ele>297.79998779297</ele>
        <time>2014-12-06T13:12:49.000Z</time>
      </trkpt>
      <trkpt lat="45.79607" lon="4.76453">
        <ele>297.79998779297</ele>
        <time>2014-12-06T13:12:58.000Z</time>
      </trkpt>
      <trkpt lat="45.79647" lon="4.7646">
        <ele>297.60000610352</ele>
        <time>2014-12-06T13:13:05.000Z</time>
      </trkpt>
      <trkpt lat="45.79701" lon="4.76448">
        <ele>297.79998779297</ele>
        <time>2014-12-06T13:13:13.000Z</time>
      </trkpt>
      <trkpt lat="45.79712" lon="4.76447">
        <ele>297.79998779297</ele>
        <time>2014-12-06T13:13:15.000Z</time>
      </trkpt>
      <trkpt lat="45.7971" lon="4.765">
        <ele>298.39999389648</ele>
        <time>2014-12-06T13:13:22.000Z</time>
      </trkpt>
      <trkpt lat="45.7968" lon="4.76565">
        <ele>299</ele>
        <time>2014-12-06T13:13:31.000Z</time>
      </trkpt>
      <trkpt lat="45.79653" lon="4.76633">
        <ele>299.60000610352</ele>
        <time>2014-12-06T13:13:41.000Z</time>
      </trkpt>
      <trkpt lat="45.7967" lon="4.76653">
        <ele>299.60000610352</ele>
        <time>2014-12-06T13:13:45.000Z</time>
      </trkpt>
      <trkpt lat="45.79718" lon="4.767">
        <ele>299.79998779297</ele>
        <time>2014-12-06T13:13:55.000Z</time>
      </trkpt>
      <trkpt lat="45.79768" lon="4.76744">
        <ele>300</ele>
        <time>2014-12-06T13:14:04.000Z</time>
      </trkpt>
      <trkpt lat="45.79817" lon="4.76786">
        <ele>300.60000610352</ele>
        <time>2014-12-06T13:14:13.000Z</time>
      </trkpt>
      <trkpt lat="45.79867" lon="4.76829">
        <ele>301.60000610352</ele>
        <time>2014-12-06T13:14:22.000Z</time>
      </trkpt>
      <trkpt lat="45.79917" lon="4.76872">
        <ele>302.20001220703</ele>
        <time>2014-12-06T13:14:31.000Z</time>
      </trkpt>
      <trkpt lat="45.79963" lon="4.76916">
        <ele>302.60000610352</ele>
        <time>2014-12-06T13:14:40.000Z</time>
      </trkpt>
      <trkpt lat="45.79991" lon="4.76975">
        <ele>303.60000610352</ele>
        <time>2014-12-06T13:14:55.000Z</time>
      </trkpt>
      <trkpt lat="45.80002" lon="4.76968">
        <ele>303.60000610352</ele>
        <time>2014-12-06T13:14:57.000Z</time>
      </trkpt>
      <trkpt lat="45.80009" lon="4.76966">
        <ele>303.60000610352</ele>
        <time>2014-12-06T13:14:58.000Z</time>
      </trkpt>
      <trkpt lat="45.80033" lon="4.76981">
        <ele>303.60000610352</ele>
        <time>2014-12-06T13:15:02.000Z</time>
      </trkpt>
      <trkpt lat="45.80077" lon="4.77019">
        <ele>303.39999389648</ele>
        <time>2014-12-06T13:15:11.000Z</time>
      </trkpt>
      <trkpt lat="45.80123" lon="4.77039">
        <ele>303.60000610352</ele>
        <time>2014-12-06T13:15:20.000Z</time>
      </trkpt>
      <trkpt lat="45.80178" lon="4.77048">
        <ele>303.60000610352</ele>
        <time>2014-12-06T13:15:29.000Z</time>
      </trkpt>
      <trkpt lat="45.80238" lon="4.77056">
        <ele>303.39999389648</ele>
        <time>2014-12-06T13:15:38.000Z</time>
      </trkpt>
      <trkpt lat="45.80267" lon="4.77058">
        <ele>303.20001220703</ele>
        <time>2014-12-06T13:15:43.000Z</time>
      </trkpt>
      <trkpt lat="45.80283" lon="4.77032">
        <ele>301.79998779297</ele>
        <time>2014-12-06T13:15:47.000Z</time>
      </trkpt>
      <trkpt lat="45.80303" lon="4.76957">
        <ele>299.39999389648</ele>
        <time>2014-12-06T13:15:55.000Z</time>
      </trkpt>
      <trkpt lat="45.80319" lon="4.76881">
        <ele>298.20001220703</ele>
        <time>2014-12-06T13:16:06.000Z</time>
      </trkpt>
      <trkpt lat="45.80377" lon="4.76874">
        <ele>299.20001220703</ele>
        <time>2014-12-06T13:16:16.000Z</time>
      </trkpt>
      <trkpt lat="45.80433" lon="4.76866">
        <ele>301</ele>
        <time>2014-12-06T13:16:25.000Z</time>
      </trkpt>
      <trkpt lat="45.8049" lon="4.76848">
        <ele>302.20001220703</ele>
        <time>2014-12-06T13:16:34.000Z</time>
      </trkpt>
      <trkpt lat="45.80545" lon="4.76831">
        <ele>302.79998779297</ele>
        <time>2014-12-06T13:16:43.000Z</time>
      </trkpt>
      <trkpt lat="45.80559" lon="4.76832">
        <ele>303</ele>
        <time>2014-12-06T13:16:46.000Z</time>
      </trkpt>
      <trkpt lat="45.8056" lon="4.76872">
        <ele>303.79998779297</ele>
        <time>2014-12-06T13:16:52.000Z</time>
      </trkpt>
      <trkpt lat="45.8055" lon="4.76954">
        <ele>305.79998779297</ele>
        <time>2014-12-06T13:17:03.000Z</time>
      </trkpt>
      <trkpt lat="45.8054" lon="4.77035">
        <ele>307.39999389648</ele>
        <time>2014-12-06T13:17:13.000Z</time>
      </trkpt>
      <trkpt lat="45.80528" lon="4.77097">
        <ele>307.39999389648</ele>
        <time>2014-12-06T13:17:20.000Z</time>
      </trkpt>
      <trkpt lat="45.80521" lon="4.77132">
        <ele>307.60000610352</ele>
        <time>2014-12-06T13:17:28.000Z</time>
      </trkpt>
      <trkpt lat="45.80549" lon="4.77142">
        <ele>307.60000610352</ele>
        <time>2014-12-06T13:17:35.000Z</time>
      </trkpt>
      <trkpt lat="45.80554" lon="4.77135">
        <ele>307.39999389648</ele>
        <time>2014-12-06T13:17:36.000Z</time>
      </trkpt>
      <trkpt lat="45.8058" lon="4.77136">
        <ele>307.20001220703</ele>
        <time>2014-12-06T13:17:40.000Z</time>
      </trkpt>
      <trkpt lat="45.80598" lon="4.77168">
        <ele>307</ele>
        <time>2014-12-06T13:17:44.000Z</time>
      </trkpt>
      <trkpt lat="45.80594" lon="4.77212">
        <ele>306.39999389648</ele>
        <time>2014-12-06T13:17:48.000Z</time>
      </trkpt>
      <trkpt lat="45.80561" lon="4.77275">
        <ele>305.60000610352</ele>
        <time>2014-12-06T13:17:54.000Z</time>
      </trkpt>
      <trkpt lat="45.80558" lon="4.77284">
        <ele>305.39999389648</ele>
        <time>2014-12-06T13:17:55.000Z</time>
      </trkpt>
      <trkpt lat="45.80548" lon="4.77352">
        <ele>304.60000610352</ele>
        <time>2014-12-06T13:18:01.000Z</time>
      </trkpt>
      <trkpt lat="45.80543" lon="4.77433">
        <ele>303.20001220703</ele>
        <time>2014-12-06T13:18:08.000Z</time>
      </trkpt>
      <trkpt lat="45.80544" lon="4.77458">
        <ele>302.79998779297</ele>
        <time>2014-12-06T13:18:10.000Z</time>
      </trkpt>
      <trkpt lat="45.80565" lon="4.7753">
        <ele>301</ele>
        <time>2014-12-06T13:18:16.000Z</time>
      </trkpt>
      <trkpt lat="45.80599" lon="4.77594">
        <ele>299</ele>
        <time>2014-12-06T13:18:22.000Z</time>
      </trkpt>
      <trkpt lat="45.80632" lon="4.77658">
        <ele>297.20001220703</ele>
        <time>2014-12-06T13:18:28.000Z</time>
      </trkpt>
      <trkpt lat="45.80648" lon="4.77691">
        <ele>296.39999389648</ele>
        <time>2014-12-06T13:18:31.000Z</time>
      </trkpt>
      <trkpt lat="45.80656" lon="4.77765">
        <ele>295</ele>
        <time>2014-12-06T13:18:37.000Z</time>
      </trkpt>
      <trkpt lat="45.80657" lon="4.77843">
        <ele>295</ele>
        <time>2014-12-06T13:18:45.000Z</time>
      </trkpt>
      <trkpt lat="45.80658" lon="4.77858">
        <ele>295.20001220703</ele>
        <time>2014-12-06T13:18:47.000Z</time>
      </trkpt>
      <trkpt lat="45.8066" lon="4.77872">
        <ele>295.60000610352</ele>
        <time>2014-12-06T13:18:49.000Z</time>
      </trkpt>
      <trkpt lat="45.80678" lon="4.77922">
        <ele>297.20001220703</ele>
        <time>2014-12-06T13:18:56.000Z</time>
      </trkpt>
      <trkpt lat="45.8071" lon="4.77986">
        <ele>299</ele>
        <time>2014-12-06T13:19:06.000Z</time>
      </trkpt>
      <trkpt lat="45.80722" lon="4.78015">
        <ele>302.39999389648</ele>
        <time>2014-12-06T13:19:57.000Z</time>
      </trkpt>
      <trkpt lat="45.80729" lon="4.7803">
        <ele>302.20001220703</ele>
        <time>2014-12-06T13:20:01.000Z</time>
      </trkpt>
      <trkpt lat="45.80762" lon="4.78032">
        <ele>301.60000610352</ele>
        <time>2014-12-06T13:20:08.000Z</time>
      </trkpt>
      <trkpt lat="45.80815" lon="4.78001">
        <ele>300.79998779297</ele>
        <time>2014-12-06T13:20:18.000Z</time>
      </trkpt>
      <trkpt lat="45.80865" lon="4.77971">
        <ele>301.39999389648</ele>
        <time>2014-12-06T13:20:28.000Z</time>
      </trkpt>
      <trkpt lat="45.80918" lon="4.7794">
        <ele>303</ele>
        <time>2014-12-06T13:20:38.000Z</time>
      </trkpt>
      <trkpt lat="45.80972" lon="4.77907">
        <ele>304.79998779297</ele>
        <time>2014-12-06T13:20:48.000Z</time>
      </trkpt>
      <trkpt lat="45.81026" lon="4.77875">
        <ele>307.60000610352</ele>
        <time>2014-12-06T13:20:58.000Z</time>
      </trkpt>
      <trkpt lat="45.8108" lon="4.77841">
        <ele>310.79998779297</ele>
        <time>2014-12-06T13:21:08.000Z</time>
      </trkpt>
      <trkpt lat="45.81135" lon="4.77809">
        <ele>314</ele>
        <time>2014-12-06T13:21:18.000Z</time>
      </trkpt>
      <trkpt lat="45.81187" lon="4.77779">
        <ele>316.20001220703</ele>
        <time>2014-12-06T13:21:27.000Z</time>
      </trkpt>
      <trkpt lat="45.81239" lon="4.77747">
        <ele>318</ele>
        <time>2014-12-06T13:21:36.000Z</time>
      </trkpt>
      <trkpt lat="45.81291" lon="4.77714">
        <ele>319.79998779297</ele>
        <time>2014-12-06T13:21:45.000Z</time>
      </trkpt>
      <trkpt lat="45.81344" lon="4.77677">
        <ele>321.39999389648</ele>
        <time>2014-12-06T13:21:55.000Z</time>
      </trkpt>
      <trkpt lat="45.81376" lon="4.77677">
        <ele>322</ele>
        <time>2014-12-06T13:22:00.000Z</time>
      </trkpt>
      <trkpt lat="45.81402" lon="4.77677">
        <ele>322.39999389648</ele>
        <time>2014-12-06T13:22:04.000Z</time>
      </trkpt>
      <trkpt lat="45.81425" lon="4.77668">
        <ele>323.60000610352</ele>
        <time>2014-12-06T13:22:08.000Z</time>
      </trkpt>
      <trkpt lat="45.81478" lon="4.77652">
        <ele>326.39999389648</ele>
        <time>2014-12-06T13:22:17.000Z</time>
      </trkpt>
      <trkpt lat="45.81534" lon="4.77638">
        <ele>327.79998779297</ele>
        <time>2014-12-06T13:22:26.000Z</time>
      </trkpt>
      <trkpt lat="45.81589" lon="4.77624">
        <ele>329</ele>
        <time>2014-12-06T13:22:35.000Z</time>
      </trkpt>
      <trkpt lat="45.81643" lon="4.7761">
        <ele>329.79998779297</ele>
        <time>2014-12-06T13:22:44.000Z</time>
      </trkpt>
      <trkpt lat="45.81699" lon="4.77594">
        <ele>330.60000610352</ele>
        <time>2014-12-06T13:22:53.000Z</time>
      </trkpt>
      <trkpt lat="45.81756" lon="4.7758">
        <ele>330.79998779297</ele>
        <time>2014-12-06T13:23:02.000Z</time>
      </trkpt>
      <trkpt lat="45.81815" lon="4.77565">
        <ele>330.79998779297</ele>
        <time>2014-12-06T13:23:11.000Z</time>
      </trkpt>
      <trkpt lat="45.81872" lon="4.77549">
        <ele>331</ele>
        <time>2014-12-06T13:23:20.000Z</time>
      </trkpt>
      <trkpt lat="45.81929" lon="4.77534">
        <ele>331.39999389648</ele>
        <time>2014-12-06T13:23:29.000Z</time>
      </trkpt>
      <trkpt lat="45.81988" lon="4.77519">
        <ele>331.60000610352</ele>
        <time>2014-12-06T13:23:39.000Z</time>
      </trkpt>
      <trkpt lat="45.82045" lon="4.77503">
        <ele>332.79998779297</ele>
        <time>2014-12-06T13:23:49.000Z</time>
      </trkpt>
      <trkpt lat="45.82099" lon="4.77484">
        <ele>334.20001220703</ele>
        <time>2014-12-06T13:23:59.000Z</time>
      </trkpt>
      <trkpt lat="45.82154" lon="4.77464">
        <ele>336.20001220703</ele>
        <time>2014-12-06T13:24:09.000Z</time>
      </trkpt>
      <trkpt lat="45.82208" lon="4.77445">
        <ele>338.60000610352</ele>
        <time>2014-12-06T13:24:19.000Z</time>
      </trkpt>
      <trkpt lat="45.82265" lon="4.77424">
        <ele>341.20001220703</ele>
        <time>2014-12-06T13:24:30.000Z</time>
      </trkpt>
      <trkpt lat="45.82318" lon="4.77405">
        <ele>343.79998779297</ele>
        <time>2014-12-06T13:24:40.000Z</time>
      </trkpt>
      <trkpt lat="45.82374" lon="4.77385">
        <ele>346.60000610352</ele>
        <time>2014-12-06T13:24:51.000Z</time>
      </trkpt>
      <trkpt lat="45.8243" lon="4.77366">
        <ele>348.79998779297</ele>
        <time>2014-12-06T13:25:02.000Z</time>
      </trkpt>
      <trkpt lat="45.82487" lon="4.77345">
        <ele>351.39999389648</ele>
        <time>2014-12-06T13:25:13.000Z</time>
      </trkpt>
      <trkpt lat="45.82542" lon="4.77325">
        <ele>353.79998779297</ele>
        <time>2014-12-06T13:25:23.000Z</time>
      </trkpt>
      <trkpt lat="45.82595" lon="4.77305">
        <ele>356.20001220703</ele>
        <time>2014-12-06T13:25:33.000Z</time>
      </trkpt>
      <trkpt lat="45.82652" lon="4.77284">
        <ele>359</ele>
        <time>2014-12-06T13:25:43.000Z</time>
      </trkpt>
      <trkpt lat="45.82708" lon="4.77264">
        <ele>361.20001220703</ele>
        <time>2014-12-06T13:25:53.000Z</time>
      </trkpt>
      <trkpt lat="45.82764" lon="4.77245">
        <ele>363.39999389648</ele>
        <time>2014-12-06T13:26:03.000Z</time>
      </trkpt>
      <trkpt lat="45.8282" lon="4.77224">
        <ele>365.60000610352</ele>
        <time>2014-12-06T13:26:13.000Z</time>
      </trkpt>
      <trkpt lat="45.82874" lon="4.77206">
        <ele>367.60000610352</ele>
        <time>2014-12-06T13:26:22.000Z</time>
      </trkpt>
      <trkpt lat="45.82931" lon="4.77185">
        <ele>369.79998779297</ele>
        <time>2014-12-06T13:26:32.000Z</time>
      </trkpt>
      <trkpt lat="45.82988" lon="4.77163">
        <ele>372.20001220703</ele>
        <time>2014-12-06T13:26:42.000Z</time>
      </trkpt>
      <trkpt lat="45.83045" lon="4.77144">
        <ele>375</ele>
        <time>2014-12-06T13:26:52.000Z</time>
      </trkpt>
      <trkpt lat="45.83102" lon="4.77137">
        <ele>377.79998779297</ele>
        <time>2014-12-06T13:27:02.000Z</time>
      </trkpt>
      <trkpt lat="45.83156" lon="4.77138">
        <ele>379.79998779297</ele>
        <time>2014-12-06T13:27:11.000Z</time>
      </trkpt>
      <trkpt lat="45.83216" lon="4.77141">
        <ele>382</ele>
        <time>2014-12-06T13:27:21.000Z</time>
      </trkpt>
      <trkpt lat="45.83275" lon="4.77144">
        <ele>383.79998779297</ele>
        <time>2014-12-06T13:27:31.000Z</time>
      </trkpt>
      <trkpt lat="45.83329" lon="4.77143">
        <ele>384.60000610352</ele>
        <time>2014-12-06T13:27:40.000Z</time>
      </trkpt>
      <trkpt lat="45.83388" lon="4.77144">
        <ele>385.20001220703</ele>
        <time>2014-12-06T13:27:49.000Z</time>
      </trkpt>
      <trkpt lat="45.83443" lon="4.77146">
        <ele>386</ele>
        <time>2014-12-06T13:27:59.000Z</time>
      </trkpt>
      <trkpt lat="45.83498" lon="4.77144">
        <ele>389.20001220703</ele>
        <time>2014-12-06T13:28:36.000Z</time>
      </trkpt>
      <trkpt lat="45.83555" lon="4.77143">
        <ele>391.20001220703</ele>
        <time>2014-12-06T13:28:47.000Z</time>
      </trkpt>
      <trkpt lat="45.83613" lon="4.77147">
        <ele>394</ele>
        <time>2014-12-06T13:28:57.000Z</time>
      </trkpt>
      <trkpt lat="45.83672" lon="4.77149">
        <ele>397.60000610352</ele>
        <time>2014-12-06T13:29:07.000Z</time>
      </trkpt>
      <trkpt lat="45.83709" lon="4.77148">
        <ele>400.60000610352</ele>
        <time>2014-12-06T13:29:14.000Z</time>
      </trkpt>
      <trkpt lat="45.83761" lon="4.77167">
        <ele>404.39999389648</ele>
        <time>2014-12-06T13:29:25.000Z</time>
      </trkpt>
      <trkpt lat="45.83814" lon="4.77188">
        <ele>407.20001220703</ele>
        <time>2014-12-06T13:29:35.000Z</time>
      </trkpt>
      <trkpt lat="45.83842" lon="4.77198">
        <ele>408.60000610352</ele>
        <time>2014-12-06T13:29:40.000Z</time>
      </trkpt>
      <trkpt lat="45.83895" lon="4.77219">
        <ele>412.20001220703</ele>
        <time>2014-12-06T13:29:52.000Z</time>
      </trkpt>
      <trkpt lat="45.8395" lon="4.77238">
        <ele>417.39999389648</ele>
        <time>2014-12-06T13:30:05.000Z</time>
      </trkpt>
      <trkpt lat="45.84004" lon="4.77259">
        <ele>420.39999389648</ele>
        <time>2014-12-06T13:30:17.000Z</time>
      </trkpt>
      <trkpt lat="45.84009" lon="4.77259">
        <ele>420.79998779297</ele>
        <time>2014-12-06T13:30:18.000Z</time>
      </trkpt>
      <trkpt lat="45.84027" lon="4.77256">
        <ele>421.60000610352</ele>
        <time>2014-12-06T13:30:22.000Z</time>
      </trkpt>
      <trkpt lat="45.84063" lon="4.77235">
        <ele>423.20001220703</ele>
        <time>2014-12-06T13:30:30.000Z</time>
      </trkpt>
      <trkpt lat="45.84113" lon="4.77202">
        <ele>425</ele>
        <time>2014-12-06T13:30:41.000Z</time>
      </trkpt>
      <trkpt lat="45.84166" lon="4.7717">
        <ele>424.20001220703</ele>
        <time>2014-12-06T13:30:52.000Z</time>
      </trkpt>
      <trkpt lat="45.84218" lon="4.77136">
        <ele>423</ele>
        <time>2014-12-06T13:31:02.000Z</time>
      </trkpt>
      <trkpt lat="45.84229" lon="4.77127">
        <ele>422.79998779297</ele>
        <time>2014-12-06T13:31:04.000Z</time>
      </trkpt>
      <trkpt lat="45.84247" lon="4.77103">
        <ele>422.39999389648</ele>
        <time>2014-12-06T13:31:08.000Z</time>
      </trkpt>
      <trkpt lat="45.84281" lon="4.77034">
        <ele>421.60000610352</ele>
        <time>2014-12-06T13:31:17.000Z</time>
      </trkpt>
      <trkpt lat="45.84316" lon="4.76963">
        <ele>420.60000610352</ele>
        <time>2014-12-06T13:31:26.000Z</time>
      </trkpt>
      <trkpt lat="45.84348" lon="4.76892">
        <ele>419.79998779297</ele>
        <time>2014-12-06T13:31:33.000Z</time>
      </trkpt>
      <trkpt lat="45.84359" lon="4.76871">
        <ele>419.39999389648</ele>
        <time>2014-12-06T13:31:35.000Z</time>
      </trkpt>
      <trkpt lat="45.84411" lon="4.76826">
        <ele>417.79998779297</ele>
        <time>2014-12-06T13:31:41.000Z</time>
      </trkpt>
      <trkpt lat="45.8447" lon="4.76793">
        <ele>415.20001220703</ele>
        <time>2014-12-06T13:31:47.000Z</time>
      </trkpt>
      <trkpt lat="45.84529" lon="4.76761">
        <ele>412.20001220703</ele>
        <time>2014-12-06T13:31:53.000Z</time>
      </trkpt>
      <trkpt lat="45.84576" lon="4.76732">
        <ele>409.20001220703</ele>
        <time>2014-12-06T13:31:58.000Z</time>
      </trkpt>
      <trkpt lat="45.84609" lon="4.76668">
        <ele>405.60000610352</ele>
        <time>2014-12-06T13:32:03.000Z</time>
      </trkpt>
      <trkpt lat="45.84613" lon="4.76652">
        <ele>404.79998779297</ele>
        <time>2014-12-06T13:32:04.000Z</time>
      </trkpt>
      <trkpt lat="45.84632" lon="4.7657">
        <ele>401</ele>
        <time>2014-12-06T13:32:09.000Z</time>
      </trkpt>
      <trkpt lat="45.84637" lon="4.76556">
        <ele>400.20001220703</ele>
        <time>2014-12-06T13:32:10.000Z</time>
      </trkpt>
      <trkpt lat="45.84689" lon="4.76542">
        <ele>395.60000610352</ele>
        <time>2014-12-06T13:32:15.000Z</time>
      </trkpt>
      <trkpt lat="45.84719" lon="4.76573">
        <ele>393</ele>
        <time>2014-12-06T13:32:18.000Z</time>
      </trkpt>
      <trkpt lat="45.84761" lon="4.76617">
        <ele>389</ele>
        <time>2014-12-06T13:32:22.000Z</time>
      </trkpt>
      <trkpt lat="45.84814" lon="4.76599">
        <ele>384.20001220703</ele>
        <time>2014-12-06T13:32:27.000Z</time>
      </trkpt>
      <trkpt lat="45.84827" lon="4.76568">
        <ele>382.20001220703</ele>
        <time>2014-12-06T13:32:29.000Z</time>
      </trkpt>
      <trkpt lat="45.84859" lon="4.76489">
        <ele>377.39999389648</ele>
        <time>2014-12-06T13:32:34.000Z</time>
      </trkpt>
      <trkpt lat="45.84891" lon="4.76407">
        <ele>373</ele>
        <time>2014-12-06T13:32:39.000Z</time>
      </trkpt>
      <trkpt lat="45.84922" lon="4.76328">
        <ele>368.60000610352</ele>
        <time>2014-12-06T13:32:44.000Z</time>
      </trkpt>
      <trkpt lat="45.84953" lon="4.76251">
        <ele>364.39999389648</ele>
        <time>2014-12-06T13:32:49.000Z</time>
      </trkpt>
      <trkpt lat="45.84993" lon="4.76183">
        <ele>360.20001220703</ele>
        <time>2014-12-06T13:32:54.000Z</time>
      </trkpt>
      <trkpt lat="45.85044" lon="4.76134">
        <ele>356</ele>
        <time>2014-12-06T13:32:59.000Z</time>
      </trkpt>
      <trkpt lat="45.85094" lon="4.76088">
        <ele>351.60000610352</ele>
        <time>2014-12-06T13:33:04.000Z</time>
      </trkpt>
      <trkpt lat="45.85146" lon="4.76042">
        <ele>347.60000610352</ele>
        <time>2014-12-06T13:33:09.000Z</time>
      </trkpt>
      <trkpt lat="45.85199" lon="4.75994">
        <ele>343.39999389648</ele>
        <time>2014-12-06T13:33:14.000Z</time>
      </trkpt>
      <trkpt lat="45.85251" lon="4.75948">
        <ele>339.60000610352</ele>
        <time>2014-12-06T13:33:19.000Z</time>
      </trkpt>
      <trkpt lat="45.85301" lon="4.75903">
        <ele>336</ele>
        <time>2014-12-06T13:33:24.000Z</time>
      </trkpt>
      <trkpt lat="45.85354" lon="4.75855">
        <ele>332.60000610352</ele>
        <time>2014-12-06T13:33:29.000Z</time>
      </trkpt>
      <trkpt lat="45.85407" lon="4.75806">
        <ele>329.20001220703</ele>
        <time>2014-12-06T13:33:34.000Z</time>
      </trkpt>
      <trkpt lat="45.85461" lon="4.75756">
        <ele>326</ele>
        <time>2014-12-06T13:33:39.000Z</time>
      </trkpt>
      <trkpt lat="45.85516" lon="4.75708">
        <ele>322.60000610352</ele>
        <time>2014-12-06T13:33:44.000Z</time>
      </trkpt>
      <trkpt lat="45.85569" lon="4.75659">
        <ele>319</ele>
        <time>2014-12-06T13:33:49.000Z</time>
      </trkpt>
      <trkpt lat="45.85623" lon="4.75611">
        <ele>315.20001220703</ele>
        <time>2014-12-06T13:33:54.000Z</time>
      </trkpt>
      <trkpt lat="45.85676" lon="4.75562">
        <ele>311.20001220703</ele>
        <time>2014-12-06T13:33:59.000Z</time>
      </trkpt>
      <trkpt lat="45.8573" lon="4.75514">
        <ele>307.39999389648</ele>
        <time>2014-12-06T13:34:04.000Z</time>
      </trkpt>
      <trkpt lat="45.85784" lon="4.75469">
        <ele>303.79998779297</ele>
        <time>2014-12-06T13:34:09.000Z</time>
      </trkpt>
      <trkpt lat="45.85839" lon="4.75428">
        <ele>300.20001220703</ele>
        <time>2014-12-06T13:34:14.000Z</time>
      </trkpt>
      <trkpt lat="45.85896" lon="4.75395">
        <ele>297</ele>
        <time>2014-12-06T13:34:19.000Z</time>
      </trkpt>
      <trkpt lat="45.85949" lon="4.75367">
        <ele>294.39999389648</ele>
        <time>2014-12-06T13:34:24.000Z</time>
      </trkpt>
      <trkpt lat="45.86011" lon="4.7534">
        <ele>291.60000610352</ele>
        <time>2014-12-06T13:34:30.000Z</time>
      </trkpt>
      <trkpt lat="45.8607" lon="4.75316">
        <ele>289.39999389648</ele>
        <time>2014-12-06T13:34:36.000Z</time>
      </trkpt>
      <trkpt lat="45.86128" lon="4.75295">
        <ele>287.39999389648</ele>
        <time>2014-12-06T13:34:42.000Z</time>
      </trkpt>
      <trkpt lat="45.86185" lon="4.75276">
        <ele>285.39999389648</ele>
        <time>2014-12-06T13:34:48.000Z</time>
      </trkpt>
      <trkpt lat="45.8624" lon="4.75255">
        <ele>283.60000610352</ele>
        <time>2014-12-06T13:34:54.000Z</time>
      </trkpt>
      <trkpt lat="45.86297" lon="4.75233">
        <ele>281.79998779297</ele>
        <time>2014-12-06T13:35:00.000Z</time>
      </trkpt>
      <trkpt lat="45.86353" lon="4.75212">
        <ele>280.39999389648</ele>
        <time>2014-12-06T13:35:06.000Z</time>
      </trkpt>
      <trkpt lat="45.8641" lon="4.75191">
        <ele>279</ele>
        <time>2014-12-06T13:35:12.000Z</time>
      </trkpt>
      <trkpt lat="45.86471" lon="4.75168">
        <ele>276.60000610352</ele>
        <time>2014-12-06T13:35:18.000Z</time>
      </trkpt>
      <trkpt lat="45.86526" lon="4.75148">
        <ele>274.20001220703</ele>
        <time>2014-12-06T13:35:23.000Z</time>
      </trkpt>
      <trkpt lat="45.86584" lon="4.75127">
        <ele>270.79998779297</ele>
        <time>2014-12-06T13:35:28.000Z</time>
      </trkpt>
      <trkpt lat="45.86646" lon="4.75103">
        <ele>267</ele>
        <time>2014-12-06T13:35:33.000Z</time>
      </trkpt>
      <trkpt lat="45.86699" lon="4.75083">
        <ele>263.60000610352</ele>
        <time>2014-12-06T13:35:37.000Z</time>
      </trkpt>
      <trkpt lat="45.86753" lon="4.75065">
        <ele>259.79998779297</ele>
        <time>2014-12-06T13:35:41.000Z</time>
      </trkpt>
      <trkpt lat="45.86816" lon="4.75043">
        <ele>254.60000610352</ele>
        <time>2014-12-06T13:35:46.000Z</time>
      </trkpt>
      <trkpt lat="45.86877" lon="4.7502">
        <ele>249.39999389648</ele>
        <time>2014-12-06T13:35:51.000Z</time>
      </trkpt>
      <trkpt lat="45.86937" lon="4.74999">
        <ele>244.19999694824</ele>
        <time>2014-12-06T13:35:56.000Z</time>
      </trkpt>
      <trkpt lat="45.86992" lon="4.74978">
        <ele>239.80000305176</ele>
        <time>2014-12-06T13:36:01.000Z</time>
      </trkpt>
      <trkpt lat="45.87049" lon="4.74959">
        <ele>235.39999389648</ele>
        <time>2014-12-06T13:36:07.000Z</time>
      </trkpt>
      <trkpt lat="45.87104" lon="4.74932">
        <ele>231.19999694824</ele>
        <time>2014-12-06T13:36:14.000Z</time>
      </trkpt>
      <trkpt lat="45.87111" lon="4.74931">
        <ele>230.60000610352</ele>
        <time>2014-12-06T13:36:15.000Z</time>
      </trkpt>
      <trkpt lat="45.87122" lon="4.74976">
        <ele>228.60000610352</ele>
        <time>2014-12-06T13:36:20.000Z</time>
      </trkpt>
      <trkpt lat="45.87121" lon="4.7501">
        <ele>227.60000610352</ele>
        <time>2014-12-06T13:36:23.000Z</time>
      </trkpt>
      <trkpt lat="45.87128" lon="4.75091">
        <ele>226</ele>
        <time>2014-12-06T13:36:31.000Z</time>
      </trkpt>
      <trkpt lat="45.87141" lon="4.75167">
        <ele>225</ele>
        <time>2014-12-06T13:36:39.000Z</time>
      </trkpt>
      <trkpt lat="45.87157" lon="4.75245">
        <ele>224.60000610352</ele>
        <time>2014-12-06T13:36:47.000Z</time>
      </trkpt>
      <trkpt lat="45.87168" lon="4.75329">
        <ele>224</ele>
        <time>2014-12-06T13:36:55.000Z</time>
      </trkpt>
      <trkpt lat="45.87172" lon="4.75407">
        <ele>223.19999694824</ele>
        <time>2014-12-06T13:37:02.000Z</time>
      </trkpt>
      <trkpt lat="45.87174" lon="4.75495">
        <ele>222.39999389648</ele>
        <time>2014-12-06T13:37:09.000Z</time>
      </trkpt>
      <trkpt lat="45.87173" lon="4.75581">
        <ele>222</ele>
        <time>2014-12-06T13:37:16.000Z</time>
      </trkpt>
      <trkpt lat="45.87172" lon="4.75664">
        <ele>222.19999694824</ele>
        <time>2014-12-06T13:37:23.000Z</time>
      </trkpt>
      <trkpt lat="45.87184" lon="4.7574">
        <ele>222</ele>
        <time>2014-12-06T13:37:29.000Z</time>
      </trkpt>
      <trkpt lat="45.87206" lon="4.75811">
        <ele>221.80000305176</ele>
        <time>2014-12-06T13:37:35.000Z</time>
      </trkpt>
      <trkpt lat="45.87218" lon="4.75889">
        <ele>222.60000610352</ele>
        <time>2014-12-06T13:37:42.000Z</time>
      </trkpt>
      <trkpt lat="45.87227" lon="4.75975">
        <ele>224</ele>
        <time>2014-12-06T13:37:50.000Z</time>
      </trkpt>
      <trkpt lat="45.87234" lon="4.76057">
        <ele>225.80000305176</ele>
        <time>2014-12-06T13:37:58.000Z</time>
      </trkpt>
      <trkpt lat="45.87238" lon="4.76137">
        <ele>227</ele>
        <time>2014-12-06T13:38:06.000Z</time>
      </trkpt>
      <trkpt lat="45.87242" lon="4.76223">
        <ele>228</ele>
        <time>2014-12-06T13:38:14.000Z</time>
      </trkpt>
      <trkpt lat="45.87244" lon="4.76304">
        <ele>228.80000305176</ele>
        <time>2014-12-06T13:38:22.000Z</time>
      </trkpt>
      <trkpt lat="45.87248" lon="4.76386">
        <ele>229.60000610352</ele>
        <time>2014-12-06T13:38:30.000Z</time>
      </trkpt>
      <trkpt lat="45.8725" lon="4.7647">
        <ele>230.60000610352</ele>
        <time>2014-12-06T13:38:38.000Z</time>
      </trkpt>
      <trkpt lat="45.87253" lon="4.76547">
        <ele>231</ele>
        <time>2014-12-06T13:38:45.000Z</time>
      </trkpt>
      <trkpt lat="45.87255" lon="4.76626">
        <ele>230.80000305176</ele>
        <time>2014-12-06T13:38:52.000Z</time>
      </trkpt>
      <trkpt lat="45.87257" lon="4.76709">
        <ele>230.60000610352</ele>
        <time>2014-12-06T13:38:59.000Z</time>
      </trkpt>
      <trkpt lat="45.87259" lon="4.7679">
        <ele>230.60000610352</ele>
        <time>2014-12-06T13:39:06.000Z</time>
      </trkpt>
      <trkpt lat="45.87261" lon="4.7687">
        <ele>231.19999694824</ele>
        <time>2014-12-06T13:39:13.000Z</time>
      </trkpt>
      <trkpt lat="45.87264" lon="4.76952">
        <ele>232.19999694824</ele>
        <time>2014-12-06T13:39:21.000Z</time>
      </trkpt>
      <trkpt lat="45.87264" lon="4.76974">
        <ele>232.19999694824</ele>
        <time>2014-12-06T13:39:23.000Z</time>
      </trkpt>
      <trkpt lat="45.87266" lon="4.77053">
        <ele>233</ele>
        <time>2014-12-06T13:39:30.000Z</time>
      </trkpt>
      <trkpt lat="45.87267" lon="4.77132">
        <ele>233.80000305176</ele>
        <time>2014-12-06T13:39:37.000Z</time>
      </trkpt>
      <trkpt lat="45.87274" lon="4.77198">
        <ele>234.19999694824</ele>
        <time>2014-12-06T13:39:43.000Z</time>
      </trkpt>
      <trkpt lat="45.87323" lon="4.77226">
        <ele>234.39999389648</ele>
        <time>2014-12-06T13:39:50.000Z</time>
      </trkpt>
      <trkpt lat="45.87331" lon="4.77226">
        <ele>234.39999389648</ele>
        <time>2014-12-06T13:39:51.000Z</time>
      </trkpt>
      <trkpt lat="45.87392" lon="4.7722">
        <ele>234.19999694824</ele>
        <time>2014-12-06T13:39:58.000Z</time>
      </trkpt>
      <trkpt lat="45.87401" lon="4.77221">
        <ele>234.19999694824</ele>
        <time>2014-12-06T13:39:59.000Z</time>
      </trkpt>
      <trkpt lat="45.87418" lon="4.77227">
        <ele>234</ele>
        <time>2014-12-06T13:40:01.000Z</time>
      </trkpt>
      <trkpt lat="45.87463" lon="4.77283">
        <ele>233</ele>
        <time>2014-12-06T13:40:08.000Z</time>
      </trkpt>
      <trkpt lat="45.87471" lon="4.77317">
        <ele>232.60000610352</ele>
        <time>2014-12-06T13:40:11.000Z</time>
      </trkpt>
      <trkpt lat="45.87491" lon="4.77399">
        <ele>231.39999389648</ele>
        <time>2014-12-06T13:40:18.000Z</time>
      </trkpt>
      <trkpt lat="45.87526" lon="4.77458">
        <ele>230.60000610352</ele>
        <time>2014-12-06T13:40:24.000Z</time>
      </trkpt>
      <trkpt lat="45.87567" lon="4.7752">
        <ele>229.39999389648</ele>
        <time>2014-12-06T13:40:31.000Z</time>
      </trkpt>
      <trkpt lat="45.87601" lon="4.77592">
        <ele>228.39999389648</ele>
        <time>2014-12-06T13:40:38.000Z</time>
      </trkpt>
      <trkpt lat="45.87627" lon="4.77668">
        <ele>227.60000610352</ele>
        <time>2014-12-06T13:40:45.000Z</time>
      </trkpt>
      <trkpt lat="45.8765" lon="4.77749">
        <ele>226.80000305176</ele>
        <time>2014-12-06T13:40:52.000Z</time>
      </trkpt>
      <trkpt lat="45.87659" lon="4.77832">
        <ele>226.19999694824</ele>
        <time>2014-12-06T13:40:59.000Z</time>
      </trkpt>
      <trkpt lat="45.87665" lon="4.77913">
        <ele>226.19999694824</ele>
        <time>2014-12-06T13:41:06.000Z</time>
      </trkpt>
      <trkpt lat="45.87672" lon="4.77997">
        <ele>227</ele>
        <time>2014-12-06T13:41:14.000Z</time>
      </trkpt>
      <trkpt lat="45.87678" lon="4.78079">
        <ele>227</ele>
        <time>2014-12-06T13:41:21.000Z</time>
      </trkpt>
      <trkpt lat="45.87692" lon="4.78162">
        <ele>226.60000610352</ele>
        <time>2014-12-06T13:41:28.000Z</time>
      </trkpt>
      <trkpt lat="45.87718" lon="4.78242">
        <ele>225.80000305176</ele>
        <time>2014-12-06T13:41:35.000Z</time>
      </trkpt>
      <trkpt lat="45.87749" lon="4.78316">
        <ele>225</ele>
        <time>2014-12-06T13:41:42.000Z</time>
      </trkpt>
      <trkpt lat="45.8778" lon="4.78388">
        <ele>223.80000305176</ele>
        <time>2014-12-06T13:41:49.000Z</time>
      </trkpt>
      <trkpt lat="45.87808" lon="4.78462">
        <ele>223.19999694824</ele>
        <time>2014-12-06T13:41:56.000Z</time>
      </trkpt>
      <trkpt lat="45.87821" lon="4.78538">
        <ele>223</ele>
        <time>2014-12-06T13:42:03.000Z</time>
      </trkpt>
      <trkpt lat="45.87837" lon="4.78621">
        <ele>223.19999694824</ele>
        <time>2014-12-06T13:42:11.000Z</time>
      </trkpt>
      <trkpt lat="45.87847" lon="4.78707">
        <ele>223.19999694824</ele>
        <time>2014-12-06T13:42:19.000Z</time>
      </trkpt>
      <trkpt lat="45.8785" lon="4.78785">
        <ele>223.39999389648</ele>
        <time>2014-12-06T13:42:26.000Z</time>
      </trkpt>
      <trkpt lat="45.87844" lon="4.78871">
        <ele>223.60000610352</ele>
        <time>2014-12-06T13:42:34.000Z</time>
      </trkpt>
      <trkpt lat="45.87834" lon="4.78956">
        <ele>223.80000305176</ele>
        <time>2014-12-06T13:42:42.000Z</time>
      </trkpt>
      <trkpt lat="45.87841" lon="4.79034">
        <ele>224.60000610352</ele>
        <time>2014-12-06T13:42:50.000Z</time>
      </trkpt>
      <trkpt lat="45.87854" lon="4.79118">
        <ele>226.19999694824</ele>
        <time>2014-12-06T13:42:59.000Z</time>
      </trkpt>
      <trkpt lat="45.87865" lon="4.79199">
        <ele>228.19999694824</ele>
        <time>2014-12-06T13:43:08.000Z</time>
      </trkpt>
      <trkpt lat="45.87878" lon="4.79281">
        <ele>230.80000305176</ele>
        <time>2014-12-06T13:43:17.000Z</time>
      </trkpt>
      <trkpt lat="45.8789" lon="4.79359">
        <ele>233.19999694824</ele>
        <time>2014-12-06T13:43:26.000Z</time>
      </trkpt>
      <trkpt lat="45.87903" lon="4.79437">
        <ele>236</ele>
        <time>2014-12-06T13:43:35.000Z</time>
      </trkpt>
      <trkpt lat="45.87922" lon="4.79514">
        <ele>237.80000305176</ele>
        <time>2014-12-06T13:43:44.000Z</time>
      </trkpt>
      <trkpt lat="45.87939" lon="4.79568">
        <ele>237.39999389648</ele>
        <time>2014-12-06T13:43:50.000Z</time>
      </trkpt>
      <trkpt lat="45.87969" lon="4.79642">
        <ele>236.19999694824</ele>
        <time>2014-12-06T13:43:57.000Z</time>
      </trkpt>
      <trkpt lat="45.88" lon="4.79715">
        <ele>235.19999694824</ele>
        <time>2014-12-06T13:44:04.000Z</time>
      </trkpt>
      <trkpt lat="45.8802" lon="4.79767">
        <ele>235.80000305176</ele>
        <time>2014-12-06T13:44:10.000Z</time>
      </trkpt>
      <trkpt lat="45.88025" lon="4.798">
        <ele>236.60000610352</ele>
        <time>2014-12-06T13:44:14.000Z</time>
      </trkpt>
      <trkpt lat="45.88026" lon="4.79817">
        <ele>237.19999694824</ele>
        <time>2014-12-06T13:44:16.000Z</time>
      </trkpt>
      <trkpt lat="45.88027" lon="4.79859">
        <ele>238.80000305176</ele>
        <time>2014-12-06T13:44:21.000Z</time>
      </trkpt>
      <trkpt lat="45.88011" lon="4.79935">
        <ele>241.80000305176</ele>
        <time>2014-12-06T13:44:30.000Z</time>
      </trkpt>
      <trkpt lat="45.8799" lon="4.80013">
        <ele>244.80000305176</ele>
        <time>2014-12-06T13:44:40.000Z</time>
      </trkpt>
      <trkpt lat="45.87987" lon="4.80019">
        <ele>245.19999694824</ele>
        <time>2014-12-06T13:44:41.000Z</time>
      </trkpt>
      <trkpt lat="45.87946" lon="4.80073">
        <ele>248.60000610352</ele>
        <time>2014-12-06T13:44:51.000Z</time>
      </trkpt>
      <trkpt lat="45.87941" lon="4.80076">
        <ele>248.80000305176</ele>
        <time>2014-12-06T13:44:52.000Z</time>
      </trkpt>
      <trkpt lat="45.87912" lon="4.80096">
        <ele>250.60000610352</ele>
        <time>2014-12-06T13:44:58.000Z</time>
      </trkpt>
      <trkpt lat="45.87895" lon="4.80148">
        <ele>251.60000610352</ele>
        <time>2014-12-06T13:45:05.000Z</time>
      </trkpt>
      <trkpt lat="45.8789" lon="4.80236">
        <ele>250.80000305176</ele>
        <time>2014-12-06T13:45:12.000Z</time>
      </trkpt>
      <trkpt lat="45.87884" lon="4.80319">
        <ele>249.60000610352</ele>
        <time>2014-12-06T13:45:18.000Z</time>
      </trkpt>
      <trkpt lat="45.87878" lon="4.80404">
        <ele>247.80000305176</ele>
        <time>2014-12-06T13:45:25.000Z</time>
      </trkpt>
      <trkpt lat="45.87872" lon="4.80488">
        <ele>245.60000610352</ele>
        <time>2014-12-06T13:45:34.000Z</time>
      </trkpt>
      <trkpt lat="45.87871" lon="4.80498">
        <ele>245.60000610352</ele>
        <time>2014-12-06T13:45:35.000Z</time>
      </trkpt>
      <trkpt lat="45.87866" lon="4.80564">
        <ele>245.39999389648</ele>
        <time>2014-12-06T13:45:42.000Z</time>
      </trkpt>
      <trkpt lat="45.87862" lon="4.80642">
        <ele>246.19999694824</ele>
        <time>2014-12-06T13:45:51.000Z</time>
      </trkpt>
      <trkpt lat="45.87861" lon="4.80666">
        <ele>246.60000610352</ele>
        <time>2014-12-06T13:45:54.000Z</time>
      </trkpt>
      <trkpt lat="45.87863" lon="4.80717">
        <ele>247.39999389648</ele>
        <time>2014-12-06T13:46:00.000Z</time>
      </trkpt>
      <trkpt lat="45.87859" lon="4.80747">
        <ele>247.80000305176</ele>
        <time>2014-12-06T13:46:04.000Z</time>
      </trkpt>
      <trkpt lat="45.87853" lon="4.80766">
        <ele>248.39999389648</ele>
        <time>2014-12-06T13:46:07.000Z</time>
      </trkpt>
      <trkpt lat="45.87814" lon="4.80825">
        <ele>249</ele>
        <time>2014-12-06T13:46:17.000Z</time>
      </trkpt>
      <trkpt lat="45.87778" lon="4.80884">
        <ele>248.60000610352</ele>
        <time>2014-12-06T13:46:26.000Z</time>
      </trkpt>
      <trkpt lat="45.87753" lon="4.8095">
        <ele>247.39999389648</ele>
        <time>2014-12-06T13:46:33.000Z</time>
      </trkpt>
      <trkpt lat="45.8775" lon="4.81034">
        <ele>246.19999694824</ele>
        <time>2014-12-06T13:46:41.000Z</time>
      </trkpt>
      <trkpt lat="45.87747" lon="4.81064">
        <ele>245.60000610352</ele>
        <time>2014-12-06T13:46:44.000Z</time>
      </trkpt>
      <trkpt lat="45.87725" lon="4.81137">
        <ele>244.19999694824</ele>
        <time>2014-12-06T13:46:51.000Z</time>
      </trkpt>
      <trkpt lat="45.87697" lon="4.81209">
        <ele>242.19999694824</ele>
        <time>2014-12-06T13:46:57.000Z</time>
      </trkpt>
      <trkpt lat="45.87675" lon="4.81262">
        <ele>240.60000610352</ele>
        <time>2014-12-06T13:47:01.000Z</time>
      </trkpt>
      <trkpt lat="45.87623" lon="4.81291">
        <ele>237.39999389648</ele>
        <time>2014-12-06T13:47:07.000Z</time>
      </trkpt>
      <trkpt lat="45.87637" lon="4.81348">
        <ele>232.39999389648</ele>
        <time>2014-12-06T13:47:14.000Z</time>
      </trkpt>
      <trkpt lat="45.87644" lon="4.81358">
        <ele>231.60000610352</ele>
        <time>2014-12-06T13:47:15.000Z</time>
      </trkpt>
      <trkpt lat="45.8767" lon="4.8143">
        <ele>227.39999389648</ele>
        <time>2014-12-06T13:47:20.000Z</time>
      </trkpt>
      <trkpt lat="45.87672" lon="4.81448">
        <ele>226.39999389648</ele>
        <time>2014-12-06T13:47:21.000Z</time>
      </trkpt>
      <trkpt lat="45.87682" lon="4.81532">
        <ele>222.19999694824</ele>
        <time>2014-12-06T13:47:26.000Z</time>
      </trkpt>
      <trkpt lat="45.87688" lon="4.81568">
        <ele>219.60000610352</ele>
        <time>2014-12-06T13:47:29.000Z</time>
      </trkpt>
      <trkpt lat="45.87707" lon="4.81595">
        <ele>213</ele>
        <time>2014-12-06T13:47:36.000Z</time>
      </trkpt>
      <trkpt lat="45.87737" lon="4.81554">
        <ele>201.60000610352</ele>
        <time>2014-12-06T13:47:45.000Z</time>
      </trkpt>
      <trkpt lat="45.87742" lon="4.8157">
        <ele>199.39999389648</ele>
        <time>2014-12-06T13:47:47.000Z</time>
      </trkpt>
      <trkpt lat="45.87765" lon="4.81641">
        <ele>192.80000305176</ele>
        <time>2014-12-06T13:47:53.000Z</time>
      </trkpt>
      <trkpt lat="45.87784" lon="4.81715">
        <ele>187.39999389648</ele>
        <time>2014-12-06T13:47:58.000Z</time>
      </trkpt>
      <trkpt lat="45.87805" lon="4.81791">
        <ele>183</ele>
        <time>2014-12-06T13:48:03.000Z</time>
      </trkpt>
      <trkpt lat="45.87846" lon="4.81846">
        <ele>178.60000610352</ele>
        <time>2014-12-06T13:48:08.000Z</time>
      </trkpt>
      <trkpt lat="45.87872" lon="4.81875">
        <ele>176.19999694824</ele>
        <time>2014-12-06T13:48:11.000Z</time>
      </trkpt>
      <trkpt lat="45.87894" lon="4.8191">
        <ele>174.39999389648</ele>
        <time>2014-12-06T13:48:14.000Z</time>
      </trkpt>
      <trkpt lat="45.87913" lon="4.81965">
        <ele>172.39999389648</ele>
        <time>2014-12-06T13:48:18.000Z</time>
      </trkpt>
      <trkpt lat="45.87922" lon="4.81991">
        <ele>171.60000610352</ele>
        <time>2014-12-06T13:48:20.000Z</time>
      </trkpt>
      <trkpt lat="45.87957" lon="4.82033">
        <ele>169.19999694824</ele>
        <time>2014-12-06T13:48:25.000Z</time>
      </trkpt>
      <trkpt lat="45.87974" lon="4.82048">
        <ele>168</ele>
        <time>2014-12-06T13:48:28.000Z</time>
      </trkpt>
      <trkpt lat="45.8798" lon="4.82067">
        <ele>167</ele>
        <time>2014-12-06T13:48:32.000Z</time>
      </trkpt>
      <trkpt lat="45.87981" lon="4.82071">
        <ele>164.60000610352</ele>
        <time>2014-12-06T13:48:49.000Z</time>
      </trkpt>
      <trkpt lat="45.8798" lon="4.82077">
        <ele>164.19999694824</ele>
        <time>2014-12-06T13:49:40.000Z</time>
      </trkpt>
      <trkpt lat="45.87976" lon="4.82105">
        <ele>165.19999694824</ele>
        <time>2014-12-06T13:49:45.000Z</time>
      </trkpt>
      <trkpt lat="45.87966" lon="4.82133">
        <ele>165.60000610352</ele>
        <time>2014-12-06T13:49:49.000Z</time>
      </trkpt>
      <trkpt lat="45.87956" lon="4.82211">
        <ele>166</ele>
        <time>2014-12-06T13:49:57.000Z</time>
      </trkpt>
      <trkpt lat="45.87947" lon="4.82289">
        <ele>165.80000305176</ele>
        <time>2014-12-06T13:50:04.000Z</time>
      </trkpt>
      <trkpt lat="45.87938" lon="4.82377">
        <ele>165.80000305176</ele>
        <time>2014-12-06T13:50:12.000Z</time>
      </trkpt>
      <trkpt lat="45.87927" lon="4.82454">
        <ele>165.60000610352</ele>
        <time>2014-12-06T13:50:19.000Z</time>
      </trkpt>
      <trkpt lat="45.87911" lon="4.82531">
        <ele>165.80000305176</ele>
        <time>2014-12-06T13:50:26.000Z</time>
      </trkpt>
      <trkpt lat="45.87891" lon="4.82612">
        <ele>166</ele>
        <time>2014-12-06T13:50:33.000Z</time>
      </trkpt>
      <trkpt lat="45.87876" lon="4.82696">
        <ele>166.39999389648</ele>
        <time>2014-12-06T13:50:40.000Z</time>
      </trkpt>
      <trkpt lat="45.87878" lon="4.82782">
        <ele>166.60000610352</ele>
        <time>2014-12-06T13:50:47.000Z</time>
      </trkpt>
      <trkpt lat="45.87884" lon="4.82865">
        <ele>166.80000305176</ele>
        <time>2014-12-06T13:50:54.000Z</time>
      </trkpt>
      <trkpt lat="45.87885" lon="4.82948">
        <ele>166.80000305176</ele>
        <time>2014-12-06T13:51:01.000Z</time>
      </trkpt>
      <trkpt lat="45.87876" lon="4.83031">
        <ele>166.60000610352</ele>
        <time>2014-12-06T13:51:08.000Z</time>
      </trkpt>
      <trkpt lat="45.87867" lon="4.83114">
        <ele>166.39999389648</ele>
        <time>2014-12-06T13:51:15.000Z</time>
      </trkpt>
      <trkpt lat="45.87854" lon="4.83192">
        <ele>166.39999389648</ele>
        <time>2014-12-06T13:51:22.000Z</time>
      </trkpt>
      <trkpt lat="45.87837" lon="4.8327">
        <ele>166.39999389648</ele>
        <time>2014-12-06T13:51:29.000Z</time>
      </trkpt>
      <trkpt lat="45.87814" lon="4.83347">
        <ele>166.60000610352</ele>
        <time>2014-12-06T13:51:36.000Z</time>
      </trkpt>
      <trkpt lat="45.87783" lon="4.83419">
        <ele>166.80000305176</ele>
        <time>2014-12-06T13:51:43.000Z</time>
      </trkpt>
      <trkpt lat="45.87773" lon="4.83438">
        <ele>166.80000305176</ele>
        <time>2014-12-06T13:51:45.000Z</time>
      </trkpt>
      <trkpt lat="45.87763" lon="4.83455">
        <ele>166.80000305176</ele>
        <time>2014-12-06T13:51:47.000Z</time>
      </trkpt>
      <trkpt lat="45.87722" lon="4.83508">
        <ele>167.60000610352</ele>
        <time>2014-12-06T13:51:54.000Z</time>
      </trkpt>
      <trkpt lat="45.87696" lon="4.83536">
        <ele>168.60000610352</ele>
        <time>2014-12-06T13:51:59.000Z</time>
      </trkpt>
      <trkpt lat="45.87675" lon="4.83538">
        <ele>169</ele>
        <time>2014-12-06T13:52:03.000Z</time>
      </trkpt>
      <trkpt lat="45.87678" lon="4.83592">
        <ele>170</ele>
        <time>2014-12-06T13:52:10.000Z</time>
      </trkpt>
      <trkpt lat="45.87684" lon="4.83671">
        <ele>171.19999694824</ele>
        <time>2014-12-06T13:52:19.000Z</time>
      </trkpt>
      <trkpt lat="45.87692" lon="4.83753">
        <ele>171.60000610352</ele>
        <time>2014-12-06T13:52:28.000Z</time>
      </trkpt>
      <trkpt lat="45.87695" lon="4.83832">
        <ele>170.19999694824</ele>
        <time>2014-12-06T13:52:41.000Z</time>
      </trkpt>
      <trkpt lat="45.87694" lon="4.83839">
        <ele>170.19999694824</ele>
        <time>2014-12-06T13:52:42.000Z</time>
      </trkpt>
      <trkpt lat="45.87723" lon="4.83856">
        <ele>169.60000610352</ele>
        <time>2014-12-06T13:52:49.000Z</time>
      </trkpt>
      <trkpt lat="45.87781" lon="4.83837">
        <ele>168.60000610352</ele>
        <time>2014-12-06T13:52:58.000Z</time>
      </trkpt>
      <trkpt lat="45.87838" lon="4.8382">
        <ele>167.80000305176</ele>
        <time>2014-12-06T13:53:06.000Z</time>
      </trkpt>
      <trkpt lat="45.87894" lon="4.83803">
        <ele>167.39999389648</ele>
        <time>2014-12-06T13:53:14.000Z</time>
      </trkpt>
      <trkpt lat="45.87949" lon="4.8379">
        <ele>166.80000305176</ele>
        <time>2014-12-06T13:53:26.000Z</time>
      </trkpt>
      <trkpt lat="45.87957" lon="4.83788">
        <ele>167</ele>
        <time>2014-12-06T13:53:28.000Z</time>
      </trkpt>
      <trkpt lat="45.88011" lon="4.83776">
        <ele>167.80000305176</ele>
        <time>2014-12-06T13:53:37.000Z</time>
      </trkpt>
      <trkpt lat="45.88068" lon="4.8376">
        <ele>168.39999389648</ele>
        <time>2014-12-06T13:53:46.000Z</time>
      </trkpt>
      <trkpt lat="45.88125" lon="4.83748">
        <ele>168.80000305176</ele>
        <time>2014-12-06T13:53:55.000Z</time>
      </trkpt>
      <trkpt lat="45.88183" lon="4.83738">
        <ele>169.19999694824</ele>
        <time>2014-12-06T13:54:05.000Z</time>
      </trkpt>
      <trkpt lat="45.88232" lon="4.83724">
        <ele>170.80000305176</ele>
        <time>2014-12-06T13:54:14.000Z</time>
      </trkpt>
      <trkpt lat="45.88271" lon="4.83715">
        <ele>172.80000305176</ele>
        <time>2014-12-06T13:54:21.000Z</time>
      </trkpt>
      <trkpt lat="45.88326" lon="4.83701">
        <ele>176.19999694824</ele>
        <time>2014-12-06T13:54:32.000Z</time>
      </trkpt>
      <trkpt lat="45.8833" lon="4.83698">
        <ele>176.39999389648</ele>
        <time>2014-12-06T13:54:33.000Z</time>
      </trkpt>
      <trkpt lat="45.88345" lon="4.83692">
        <ele>177.19999694824</ele>
        <time>2014-12-06T13:54:36.000Z</time>
      </trkpt>
      <trkpt lat="45.88379" lon="4.8368">
        <ele>178.39999389648</ele>
        <time>2014-12-06T13:54:42.000Z</time>
      </trkpt>
      <trkpt lat="45.88436" lon="4.83683">
        <ele>179.80000305176</ele>
        <time>2014-12-06T13:54:51.000Z</time>
      </trkpt>
      <trkpt lat="45.88453" lon="4.83682">
        <ele>180</ele>
        <time>2014-12-06T13:54:54.000Z</time>
      </trkpt>
      <trkpt lat="45.88511" lon="4.83665">
        <ele>180</ele>
        <time>2014-12-06T13:55:04.000Z</time>
      </trkpt>
      <trkpt lat="45.88565" lon="4.83648">
        <ele>181.39999389648</ele>
        <time>2014-12-06T13:55:14.000Z</time>
      </trkpt>
      <trkpt lat="45.88622" lon="4.83628">
        <ele>184</ele>
        <time>2014-12-06T13:55:25.000Z</time>
      </trkpt>
      <trkpt lat="45.88676" lon="4.83612">
        <ele>185.39999389648</ele>
        <time>2014-12-06T13:55:35.000Z</time>
      </trkpt>
      <trkpt lat="45.88733" lon="4.83594">
        <ele>186.19999694824</ele>
        <time>2014-12-06T13:55:46.000Z</time>
      </trkpt>
      <trkpt lat="45.88788" lon="4.83574">
        <ele>187.39999389648</ele>
        <time>2014-12-06T13:55:56.000Z</time>
      </trkpt>
      <trkpt lat="45.88843" lon="4.83554">
        <ele>188.60000610352</ele>
        <time>2014-12-06T13:56:06.000Z</time>
      </trkpt>
      <trkpt lat="45.88897" lon="4.83532">
        <ele>190.19999694824</ele>
        <time>2014-12-06T13:56:17.000Z</time>
      </trkpt>
      <trkpt lat="45.88929" lon="4.83515">
        <ele>191.80000305176</ele>
        <time>2014-12-06T13:56:24.000Z</time>
      </trkpt>
      <trkpt lat="45.8896" lon="4.83504">
        <ele>193.39999389648</ele>
        <time>2014-12-06T13:56:29.000Z</time>
      </trkpt>
      <trkpt lat="45.88978" lon="4.83501">
        <ele>194.60000610352</ele>
        <time>2014-12-06T13:56:32.000Z</time>
      </trkpt>
      <trkpt lat="45.88999" lon="4.83503">
        <ele>195.39999389648</ele>
        <time>2014-12-06T13:56:35.000Z</time>
      </trkpt>
      <trkpt lat="45.89013" lon="4.83505">
        <ele>196</ele>
        <time>2014-12-06T13:56:37.000Z</time>
      </trkpt>
      <trkpt lat="45.89072" lon="4.835">
        <ele>196.60000610352</ele>
        <time>2014-12-06T13:56:45.000Z</time>
      </trkpt>
      <trkpt lat="45.89079" lon="4.83497">
        <ele>196.60000610352</ele>
        <time>2014-12-06T13:56:46.000Z</time>
      </trkpt>
      <trkpt lat="45.89129" lon="4.83473">
        <ele>195</ele>
        <time>2014-12-06T13:56:56.000Z</time>
      </trkpt>
      <trkpt lat="45.89114" lon="4.83394">
        <ele>189.80000305176</ele>
        <time>2014-12-06T13:57:05.000Z</time>
      </trkpt>
      <trkpt lat="45.8911" lon="4.83371">
        <ele>188.39999389648</ele>
        <time>2014-12-06T13:57:07.000Z</time>
      </trkpt>
      <trkpt lat="45.89113" lon="4.83287">
        <ele>184.80000305176</ele>
        <time>2014-12-06T13:57:14.000Z</time>
      </trkpt>
      <trkpt lat="45.89114" lon="4.8326">
        <ele>183.60000610352</ele>
        <time>2014-12-06T13:57:17.000Z</time>
      </trkpt>
      <trkpt lat="45.891" lon="4.83178">
        <ele>181.39999389648</ele>
        <time>2014-12-06T13:57:25.000Z</time>
      </trkpt>
      <trkpt lat="45.89091" lon="4.83099">
        <ele>179.80000305176</ele>
        <time>2014-12-06T13:57:31.000Z</time>
      </trkpt>
      <trkpt lat="45.89084" lon="4.83025">
        <ele>178.80000305176</ele>
        <time>2014-12-06T13:57:37.000Z</time>
      </trkpt>
      <trkpt lat="45.89111" lon="4.8302">
        <ele>178.39999389648</ele>
        <time>2014-12-06T13:57:44.000Z</time>
      </trkpt>
      <trkpt lat="45.89167" lon="4.83039">
        <ele>179.19999694824</ele>
        <time>2014-12-06T13:57:53.000Z</time>
      </trkpt>
      <trkpt lat="45.89221" lon="4.83056">
        <ele>180.19999694824</ele>
        <time>2014-12-06T13:58:03.000Z</time>
      </trkpt>
      <trkpt lat="45.8924" lon="4.83063">
        <ele>180.39999389648</ele>
        <time>2014-12-06T13:58:07.000Z</time>
      </trkpt>
      <trkpt lat="45.89248" lon="4.83068">
        <ele>180.60000610352</ele>
        <time>2014-12-06T13:58:09.000Z</time>
      </trkpt>
      <trkpt lat="45.8927" lon="4.83072">
        <ele>180.80000305176</ele>
        <time>2014-12-06T13:58:14.000Z</time>
      </trkpt>
      <trkpt lat="45.89274" lon="4.83074">
        <ele>180.80000305176</ele>
        <time>2014-12-06T13:58:15.000Z</time>
      </trkpt>
      <trkpt lat="45.89327" lon="4.83099">
        <ele>181.60000610352</ele>
        <time>2014-12-06T13:58:26.000Z</time>
      </trkpt>
      <trkpt lat="45.89376" lon="4.83146">
        <ele>182.60000610352</ele>
        <time>2014-12-06T13:58:36.000Z</time>
      </trkpt>
      <trkpt lat="45.89413" lon="4.83202">
        <ele>183.19999694824</ele>
        <time>2014-12-06T13:58:45.000Z</time>
      </trkpt>
      <trkpt lat="45.8945" lon="4.83266">
        <ele>184.39999389648</ele>
        <time>2014-12-06T13:58:55.000Z</time>
      </trkpt>
      <trkpt lat="45.89487" lon="4.83327">
        <ele>185.60000610352</ele>
        <time>2014-12-06T13:59:05.000Z</time>
      </trkpt>
      <trkpt lat="45.89525" lon="4.83389">
        <ele>187.60000610352</ele>
        <time>2014-12-06T13:59:15.000Z</time>
      </trkpt>
      <trkpt lat="45.89559" lon="4.83448">
        <ele>189.80000305176</ele>
        <time>2014-12-06T13:59:25.000Z</time>
      </trkpt>
      <trkpt lat="45.89589" lon="4.83518">
        <ele>192.39999389648</ele>
        <time>2014-12-06T13:59:36.000Z</time>
      </trkpt>
      <trkpt lat="45.89612" lon="4.83592">
        <ele>194.80000305176</ele>
        <time>2014-12-06T13:59:46.000Z</time>
      </trkpt>
      <trkpt lat="45.89632" lon="4.8367">
        <ele>197.60000610352</ele>
        <time>2014-12-06T13:59:56.000Z</time>
      </trkpt>
      <trkpt lat="45.89652" lon="4.83751">
        <ele>200.60000610352</ele>
        <time>2014-12-06T14:00:06.000Z</time>
      </trkpt>
      <trkpt lat="45.89683" lon="4.8382">
        <ele>203</ele>
        <time>2014-12-06T14:00:15.000Z</time>
      </trkpt>
      <trkpt lat="45.89716" lon="4.83884">
        <ele>205.19999694824</ele>
        <time>2014-12-06T14:00:24.000Z</time>
      </trkpt>
      <trkpt lat="45.8975" lon="4.83952">
        <ele>207</ele>
        <time>2014-12-06T14:00:33.000Z</time>
      </trkpt>
      <trkpt lat="45.89772" lon="4.84025">
        <ele>209.19999694824</ele>
        <time>2014-12-06T14:00:42.000Z</time>
      </trkpt>
      <trkpt lat="45.89786" lon="4.84072">
        <ele>210.80000305176</ele>
        <time>2014-12-06T14:00:48.000Z</time>
      </trkpt>
      <trkpt lat="45.89786" lon="4.84153">
        <ele>213.60000610352</ele>
        <time>2014-12-06T14:00:58.000Z</time>
      </trkpt>
      <trkpt lat="45.89788" lon="4.8419">
        <ele>214.60000610352</ele>
        <time>2014-12-06T14:01:03.000Z</time>
      </trkpt>
      <trkpt lat="45.898" lon="4.84233">
        <ele>215.60000610352</ele>
        <time>2014-12-06T14:01:11.000Z</time>
      </trkpt>
      <trkpt lat="45.89802" lon="4.84246">
        <ele>215.39999389648</ele>
        <time>2014-12-06T14:01:14.000Z</time>
      </trkpt>
      <trkpt lat="45.89837" lon="4.84217">
        <ele>215.39999389648</ele>
        <time>2014-12-06T14:01:24.000Z</time>
      </trkpt>
      <trkpt lat="45.8984" lon="4.8421">
        <ele>215.19999694824</ele>
        <time>2014-12-06T14:01:25.000Z</time>
      </trkpt>
      <trkpt lat="45.89851" lon="4.84191">
        <ele>214.80000305176</ele>
        <time>2014-12-06T14:01:28.000Z</time>
      </trkpt>
      <trkpt lat="45.89871" lon="4.84199">
        <ele>214.19999694824</ele>
        <time>2014-12-06T14:01:32.000Z</time>
      </trkpt>
      <trkpt lat="45.89924" lon="4.84238">
        <ele>213.80000305176</ele>
        <time>2014-12-06T14:01:40.000Z</time>
      </trkpt>
      <trkpt lat="45.89976" lon="4.84272">
        <ele>214.19999694824</ele>
        <time>2014-12-06T14:01:48.000Z</time>
      </trkpt>
      <trkpt lat="45.90031" lon="4.84295">
        <ele>215.39999389648</ele>
        <time>2014-12-06T14:01:56.000Z</time>
      </trkpt>
      <trkpt lat="45.90057" lon="4.843">
        <ele>216.19999694824</ele>
        <time>2014-12-06T14:02:00.000Z</time>
      </trkpt>
      <trkpt lat="45.90114" lon="4.84274">
        <ele>218</ele>
        <time>2014-12-06T14:02:10.000Z</time>
      </trkpt>
      <trkpt lat="45.9017" lon="4.84277">
        <ele>219.39999389648</ele>
        <time>2014-12-06T14:02:19.000Z</time>
      </trkpt>
      <trkpt lat="45.90176" lon="4.84279">
        <ele>219.60000610352</ele>
        <time>2014-12-06T14:02:20.000Z</time>
      </trkpt>
      <trkpt lat="45.90234" lon="4.84305">
        <ele>220.80000305176</ele>
        <time>2014-12-06T14:02:30.000Z</time>
      </trkpt>
      <trkpt lat="45.90279" lon="4.84344">
        <ele>223</ele>
        <time>2014-12-06T14:02:38.000Z</time>
      </trkpt>
      <trkpt lat="45.90291" lon="4.84361">
        <ele>224.19999694824</ele>
        <time>2014-12-06T14:02:41.000Z</time>
      </trkpt>
      <trkpt lat="45.90304" lon="4.84409">
        <ele>226</ele>
        <time>2014-12-06T14:02:47.000Z</time>
      </trkpt>
      <trkpt lat="45.90324" lon="4.84486">
        <ele>228.80000305176</ele>
        <time>2014-12-06T14:02:57.000Z</time>
      </trkpt>
      <trkpt lat="45.90332" lon="4.845">
        <ele>229.19999694824</ele>
        <time>2014-12-06T14:02:59.000Z</time>
      </trkpt>
      <trkpt lat="45.90339" lon="4.84512">
        <ele>229.60000610352</ele>
        <time>2014-12-06T14:03:01.000Z</time>
      </trkpt>
      <trkpt lat="45.90356" lon="4.84535">
        <ele>230.80000305176</ele>
        <time>2014-12-06T14:03:05.000Z</time>
      </trkpt>
      <trkpt lat="45.9041" lon="4.8451">
        <ele>232.60000610352</ele>
        <time>2014-12-06T14:03:15.000Z</time>
      </trkpt>
      <trkpt lat="45.90465" lon="4.8448">
        <ele>235.39999389648</ele>
        <time>2014-12-06T14:03:27.000Z</time>
      </trkpt>
      <trkpt lat="45.90517" lon="4.84455">
        <ele>237.60000610352</ele>
        <time>2014-12-06T14:03:39.000Z</time>
      </trkpt>
      <trkpt lat="45.90552" lon="4.84444">
        <ele>240.19999694824</ele>
        <time>2014-12-06T14:03:47.000Z</time>
      </trkpt>
      <trkpt lat="45.90591" lon="4.84438">
        <ele>242.60000610352</ele>
        <time>2014-12-06T14:03:55.000Z</time>
      </trkpt>
      <trkpt lat="45.90645" lon="4.84438">
        <ele>244.39999389648</ele>
        <time>2014-12-06T14:04:05.000Z</time>
      </trkpt>
      <trkpt lat="45.90665" lon="4.84439">
        <ele>244.80000305176</ele>
        <time>2014-12-06T14:04:08.000Z</time>
      </trkpt>
      <trkpt lat="45.9072" lon="4.84449">
        <ele>245.80000305176</ele>
        <time>2014-12-06T14:04:16.000Z</time>
      </trkpt>
      <trkpt lat="45.90779" lon="4.84461">
        <ele>246.60000610352</ele>
        <time>2014-12-06T14:04:25.000Z</time>
      </trkpt>
      <trkpt lat="45.90837" lon="4.84474">
        <ele>247.80000305176</ele>
        <time>2014-12-06T14:04:35.000Z</time>
      </trkpt>
      <trkpt lat="45.90864" lon="4.8449">
        <ele>248.19999694824</ele>
        <time>2014-12-06T14:04:40.000Z</time>
      </trkpt>
      <trkpt lat="45.90911" lon="4.84543">
        <ele>248.60000610352</ele>
        <time>2014-12-06T14:04:49.000Z</time>
      </trkpt>
      <trkpt lat="45.90924" lon="4.84567">
        <ele>248.60000610352</ele>
        <time>2014-12-06T14:04:52.000Z</time>
      </trkpt>
      <trkpt lat="45.90935" lon="4.84602">
        <ele>248.60000610352</ele>
        <time>2014-12-06T14:04:56.000Z</time>
      </trkpt>
      <trkpt lat="45.90935" lon="4.84669">
        <ele>248.80000305176</ele>
        <time>2014-12-06T14:05:03.000Z</time>
      </trkpt>
      <trkpt lat="45.90925" lon="4.84747">
        <ele>248.80000305176</ele>
        <time>2014-12-06T14:05:11.000Z</time>
      </trkpt>
      <trkpt lat="45.90925" lon="4.84777">
        <ele>248.80000305176</ele>
        <time>2014-12-06T14:05:14.000Z</time>
      </trkpt>
      <trkpt lat="45.90963" lon="4.84827">
        <ele>247.60000610352</ele>
        <time>2014-12-06T14:05:22.000Z</time>
      </trkpt>
      <trkpt lat="45.90998" lon="4.84823">
        <ele>246.80000305176</ele>
        <time>2014-12-06T14:05:27.000Z</time>
      </trkpt>
      <trkpt lat="45.91051" lon="4.8481">
        <ele>245.80000305176</ele>
        <time>2014-12-06T14:05:36.000Z</time>
      </trkpt>
      <trkpt lat="45.91106" lon="4.84787">
        <ele>245.19999694824</ele>
        <time>2014-12-06T14:05:47.000Z</time>
      </trkpt>
      <trkpt lat="45.91126" lon="4.84778">
        <ele>245</ele>
        <time>2014-12-06T14:05:52.000Z</time>
      </trkpt>
      <trkpt lat="45.91179" lon="4.84757">
        <ele>244.19999694824</ele>
        <time>2014-12-06T14:06:00.000Z</time>
      </trkpt>
      <trkpt lat="45.91215" lon="4.848">
        <ele>243</ele>
        <time>2014-12-06T14:06:05.000Z</time>
      </trkpt>
      <trkpt lat="45.91244" lon="4.84875">
        <ele>241.19999694824</ele>
        <time>2014-12-06T14:06:11.000Z</time>
      </trkpt>
      <trkpt lat="45.91268" lon="4.84914">
        <ele>240</ele>
        <time>2014-12-06T14:06:15.000Z</time>
      </trkpt>
      <trkpt lat="45.91313" lon="4.84935">
        <ele>238</ele>
        <time>2014-12-06T14:06:20.000Z</time>
      </trkpt>
      <trkpt lat="45.91331" lon="4.84935">
        <ele>237.39999389648</ele>
        <time>2014-12-06T14:06:22.000Z</time>
      </trkpt>
      <trkpt lat="45.91387" lon="4.84909">
        <ele>235</ele>
        <time>2014-12-06T14:06:29.000Z</time>
      </trkpt>
      <trkpt lat="45.91438" lon="4.8488">
        <ele>233.60000610352</ele>
        <time>2014-12-06T14:06:42.000Z</time>
      </trkpt>
      <trkpt lat="45.91443" lon="4.84877">
        <ele>233.60000610352</ele>
        <time>2014-12-06T14:06:44.000Z</time>
      </trkpt>
      <trkpt lat="45.9146" lon="4.84883">
        <ele>234</ele>
        <time>2014-12-06T14:06:48.000Z</time>
      </trkpt>
      <trkpt lat="45.91473" lon="4.84892">
        <ele>234.39999389648</ele>
        <time>2014-12-06T14:06:51.000Z</time>
      </trkpt>
      <trkpt lat="45.91485" lon="4.84933">
        <ele>235.60000610352</ele>
        <time>2014-12-06T14:06:57.000Z</time>
      </trkpt>
      <trkpt lat="45.91486" lon="4.84979">
        <ele>237.19999694824</ele>
        <time>2014-12-06T14:07:03.000Z</time>
      </trkpt>
      <trkpt lat="45.91504" lon="4.85053">
        <ele>240</ele>
        <time>2014-12-06T14:07:13.000Z</time>
      </trkpt>
      <trkpt lat="45.91517" lon="4.85099">
        <ele>241.60000610352</ele>
        <time>2014-12-06T14:07:20.000Z</time>
      </trkpt>
      <trkpt lat="45.91537" lon="4.85171">
        <ele>244.19999694824</ele>
        <time>2014-12-06T14:07:31.000Z</time>
      </trkpt>
      <trkpt lat="45.91558" lon="4.85244">
        <ele>246.39999389648</ele>
        <time>2014-12-06T14:07:42.000Z</time>
      </trkpt>
      <trkpt lat="45.91582" lon="4.85317">
        <ele>248.39999389648</ele>
        <time>2014-12-06T14:07:52.000Z</time>
      </trkpt>
      <trkpt lat="45.91603" lon="4.85378">
        <ele>249.80000305176</ele>
        <time>2014-12-06T14:08:01.000Z</time>
      </trkpt>
      <trkpt lat="45.91633" lon="4.85443">
        <ele>251.19999694824</ele>
        <time>2014-12-06T14:08:11.000Z</time>
      </trkpt>
      <trkpt lat="45.91644" lon="4.85469">
        <ele>252</ele>
        <time>2014-12-06T14:08:15.000Z</time>
      </trkpt>
      <trkpt lat="45.91673" lon="4.85536">
        <ele>253.80000305176</ele>
        <time>2014-12-06T14:08:25.000Z</time>
      </trkpt>
      <trkpt lat="45.917" lon="4.85611">
        <ele>255.19999694824</ele>
        <time>2014-12-06T14:08:36.000Z</time>
      </trkpt>
      <trkpt lat="45.91713" lon="4.85654">
        <ele>255.80000305176</ele>
        <time>2014-12-06T14:08:42.000Z</time>
      </trkpt>
      <trkpt lat="45.91733" lon="4.85727">
        <ele>256.79998779297</ele>
        <time>2014-12-06T14:08:52.000Z</time>
      </trkpt>
      <trkpt lat="45.91758" lon="4.85798">
        <ele>258.20001220703</ele>
        <time>2014-12-06T14:09:02.000Z</time>
      </trkpt>
      <trkpt lat="45.91784" lon="4.85872">
        <ele>259.79998779297</ele>
        <time>2014-12-06T14:09:13.000Z</time>
      </trkpt>
      <trkpt lat="45.91802" lon="4.85955">
        <ele>260.60000610352</ele>
        <time>2014-12-06T14:09:22.000Z</time>
      </trkpt>
      <trkpt lat="45.91818" lon="4.86033">
        <ele>260.79998779297</ele>
        <time>2014-12-06T14:09:31.000Z</time>
      </trkpt>
      <trkpt lat="45.91836" lon="4.86111">
        <ele>261.20001220703</ele>
        <time>2014-12-06T14:09:41.000Z</time>
      </trkpt>
      <trkpt lat="45.91856" lon="4.8619">
        <ele>262</ele>
        <time>2014-12-06T14:09:51.000Z</time>
      </trkpt>
      <trkpt lat="45.91858" lon="4.86267">
        <ele>264.20001220703</ele>
        <time>2014-12-06T14:10:02.000Z</time>
      </trkpt>
      <trkpt lat="45.91858" lon="4.86273">
        <ele>264.39999389648</ele>
        <time>2014-12-06T14:10:03.000Z</time>
      </trkpt>
      <trkpt lat="45.91857" lon="4.86302">
        <ele>265.20001220703</ele>
        <time>2014-12-06T14:10:07.000Z</time>
      </trkpt>
      <trkpt lat="45.91857" lon="4.86382">
        <ele>268</ele>
        <time>2014-12-06T14:10:18.000Z</time>
      </trkpt>
      <trkpt lat="45.91858" lon="4.86396">
        <ele>268.39999389648</ele>
        <time>2014-12-06T14:10:20.000Z</time>
      </trkpt>
      <trkpt lat="45.91864" lon="4.86424">
        <ele>269.20001220703</ele>
        <time>2014-12-06T14:10:24.000Z</time>
      </trkpt>
      <trkpt lat="45.91893" lon="4.86501">
        <ele>270.39999389648</ele>
        <time>2014-12-06T14:10:34.000Z</time>
      </trkpt>
      <trkpt lat="45.9192" lon="4.86575">
        <ele>271</ele>
        <time>2014-12-06T14:10:42.000Z</time>
      </trkpt>
      <trkpt lat="45.91944" lon="4.86649">
        <ele>271.39999389648</ele>
        <time>2014-12-06T14:10:51.000Z</time>
      </trkpt>
      <trkpt lat="45.91964" lon="4.86723">
        <ele>272.39999389648</ele>
        <time>2014-12-06T14:11:00.000Z</time>
      </trkpt>
      <trkpt lat="45.91988" lon="4.86801">
        <ele>274.60000610352</ele>
        <time>2014-12-06T14:11:10.000Z</time>
      </trkpt>
      <trkpt lat="45.9201" lon="4.86875">
        <ele>277.39999389648</ele>
        <time>2014-12-06T14:11:21.000Z</time>
      </trkpt>
      <trkpt lat="45.92029" lon="4.86952">
        <ele>279.79998779297</ele>
        <time>2014-12-06T14:11:32.000Z</time>
      </trkpt>
      <trkpt lat="45.92044" lon="4.8703">
        <ele>282.20001220703</ele>
        <time>2014-12-06T14:11:43.000Z</time>
      </trkpt>
      <trkpt lat="45.92052" lon="4.87109">
        <ele>284.60000610352</ele>
        <time>2014-12-06T14:11:56.000Z</time>
      </trkpt>
      <trkpt lat="45.92059" lon="4.87188">
        <ele>286</ele>
        <time>2014-12-06T14:12:06.000Z</time>
      </trkpt>
      <trkpt lat="45.92066" lon="4.87266">
        <ele>286.39999389648</ele>
        <time>2014-12-06T14:12:15.000Z</time>
      </trkpt>
      <trkpt lat="45.92072" lon="4.8735">
        <ele>286.39999389648</ele>
        <time>2014-12-06T14:12:24.000Z</time>
      </trkpt>
      <trkpt lat="45.9208" lon="4.87433">
        <ele>285.39999389648</ele>
        <time>2014-12-06T14:12:35.000Z</time>
      </trkpt>
      <trkpt lat="45.92106" lon="4.87506">
        <ele>284.39999389648</ele>
        <time>2014-12-06T14:12:44.000Z</time>
      </trkpt>
      <trkpt lat="45.92128" lon="4.87548">
        <ele>283.60000610352</ele>
        <time>2014-12-06T14:12:49.000Z</time>
      </trkpt>
      <trkpt lat="45.92139" lon="4.8758">
        <ele>282.79998779297</ele>
        <time>2014-12-06T14:12:52.000Z</time>
      </trkpt>
      <trkpt lat="45.92148" lon="4.87665">
        <ele>282</ele>
        <time>2014-12-06T14:13:00.000Z</time>
      </trkpt>
      <trkpt lat="45.92156" lon="4.87746">
        <ele>282.79998779297</ele>
        <time>2014-12-06T14:13:10.000Z</time>
      </trkpt>
      <trkpt lat="45.92165" lon="4.87823">
        <ele>284</ele>
        <time>2014-12-06T14:13:21.000Z</time>
      </trkpt>
      <trkpt lat="45.92169" lon="4.87902">
        <ele>285.79998779297</ele>
        <time>2014-12-06T14:13:32.000Z</time>
      </trkpt>
      <trkpt lat="45.92171" lon="4.8798">
        <ele>287.20001220703</ele>
        <time>2014-12-06T14:13:42.000Z</time>
      </trkpt>
      <trkpt lat="45.92166" lon="4.88063">
        <ele>287.79998779297</ele>
        <time>2014-12-06T14:13:53.000Z</time>
      </trkpt>
      <trkpt lat="45.92161" lon="4.88125">
        <ele>287.60000610352</ele>
        <time>2014-12-06T14:14:01.000Z</time>
      </trkpt>
      <trkpt lat="45.92155" lon="4.8817">
        <ele>287.39999389648</ele>
        <time>2014-12-06T14:14:07.000Z</time>
      </trkpt>
      <trkpt lat="45.92175" lon="4.88205">
        <ele>287.39999389648</ele>
        <time>2014-12-06T14:14:15.000Z</time>
      </trkpt>
      <trkpt lat="45.92232" lon="4.88206">
        <ele>287.79998779297</ele>
        <time>2014-12-06T14:14:24.000Z</time>
      </trkpt>
      <trkpt lat="45.92286" lon="4.88207">
        <ele>288.79998779297</ele>
        <time>2014-12-06T14:14:33.000Z</time>
      </trkpt>
      <trkpt lat="45.92344" lon="4.88206">
        <ele>289.79998779297</ele>
        <time>2014-12-06T14:14:42.000Z</time>
      </trkpt>
      <trkpt lat="45.92401" lon="4.88207">
        <ele>291</ele>
        <time>2014-12-06T14:14:51.000Z</time>
      </trkpt>
      <trkpt lat="45.92456" lon="4.88209">
        <ele>291.60000610352</ele>
        <time>2014-12-06T14:14:59.000Z</time>
      </trkpt>
      <trkpt lat="45.92513" lon="4.88208">
        <ele>291.79998779297</ele>
        <time>2014-12-06T14:15:07.000Z</time>
      </trkpt>
      <trkpt lat="45.9257" lon="4.88208">
        <ele>292</ele>
        <time>2014-12-06T14:15:15.000Z</time>
      </trkpt>
      <trkpt lat="45.92626" lon="4.88208">
        <ele>292.60000610352</ele>
        <time>2014-12-06T14:15:23.000Z</time>
      </trkpt>
      <trkpt lat="45.92683" lon="4.88209">
        <ele>292.79998779297</ele>
        <time>2014-12-06T14:15:31.000Z</time>
      </trkpt>
      <trkpt lat="45.92743" lon="4.8821">
        <ele>292.79998779297</ele>
        <time>2014-12-06T14:15:39.000Z</time>
      </trkpt>
      <trkpt lat="45.92804" lon="4.88211">
        <ele>292.79998779297</ele>
        <time>2014-12-06T14:15:47.000Z</time>
      </trkpt>
      <trkpt lat="45.92866" lon="4.88212">
        <ele>292.60000610352</ele>
        <time>2014-12-06T14:15:55.000Z</time>
      </trkpt>
      <trkpt lat="45.92923" lon="4.88212">
        <ele>292.39999389648</ele>
        <time>2014-12-06T14:16:02.000Z</time>
      </trkpt>
      <trkpt lat="45.92983" lon="4.88212">
        <ele>292</ele>
        <time>2014-12-06T14:16:09.000Z</time>
      </trkpt>
      <trkpt lat="45.93041" lon="4.88213">
        <ele>291.79998779297</ele>
        <time>2014-12-06T14:16:17.000Z</time>
      </trkpt>
      <trkpt lat="45.93101" lon="4.88212">
        <ele>292</ele>
        <time>2014-12-06T14:16:26.000Z</time>
      </trkpt>
      <trkpt lat="45.93155" lon="4.88213">
        <ele>292.20001220703</ele>
        <time>2014-12-06T14:16:35.000Z</time>
      </trkpt>
      <trkpt lat="45.9321" lon="4.88213">
        <ele>292.20001220703</ele>
        <time>2014-12-06T14:16:44.000Z</time>
      </trkpt>
      <trkpt lat="45.93264" lon="4.88214">
        <ele>292.60000610352</ele>
        <time>2014-12-06T14:16:53.000Z</time>
      </trkpt>
      <trkpt lat="45.93319" lon="4.88214">
        <ele>293</ele>
        <time>2014-12-06T14:17:02.000Z</time>
      </trkpt>
      <trkpt lat="45.93341" lon="4.88215">
        <ele>293.20001220703</ele>
        <time>2014-12-06T14:17:06.000Z</time>
      </trkpt>
      <trkpt lat="45.93402" lon="4.88216">
        <ele>293</ele>
        <time>2014-12-06T14:17:16.000Z</time>
      </trkpt>
      <trkpt lat="45.93453" lon="4.88221">
        <ele>292.39999389648</ele>
        <time>2014-12-06T14:17:25.000Z</time>
      </trkpt>
      <trkpt lat="45.93464" lon="4.88227">
        <ele>292.20001220703</ele>
        <time>2014-12-06T14:17:27.000Z</time>
      </trkpt>
      <trkpt lat="45.93476" lon="4.88286">
        <ele>291.39999389648</ele>
        <time>2014-12-06T14:17:34.000Z</time>
      </trkpt>
      <trkpt lat="45.93475" lon="4.88294">
        <ele>291.20001220703</ele>
        <time>2014-12-06T14:17:35.000Z</time>
      </trkpt>
      <trkpt lat="45.93467" lon="4.88372">
        <ele>290</ele>
        <time>2014-12-06T14:17:51.000Z</time>
      </trkpt>
      <trkpt lat="45.93458" lon="4.88452">
        <ele>288.39999389648</ele>
        <time>2014-12-06T14:20:03.000Z</time>
      </trkpt>
      <trkpt lat="45.93449" lon="4.88536">
        <ele>288.39999389648</ele>
        <time>2014-12-06T14:20:13.000Z</time>
      </trkpt>
      <trkpt lat="45.93441" lon="4.88616">
        <ele>289.20001220703</ele>
        <time>2014-12-06T14:20:22.000Z</time>
      </trkpt>
      <trkpt lat="45.93434" lon="4.88693">
        <ele>290.39999389648</ele>
        <time>2014-12-06T14:20:31.000Z</time>
      </trkpt>
      <trkpt lat="45.93426" lon="4.88774">
        <ele>291.60000610352</ele>
        <time>2014-12-06T14:20:41.000Z</time>
      </trkpt>
      <trkpt lat="45.93416" lon="4.88852">
        <ele>292.79998779297</ele>
        <time>2014-12-06T14:20:50.000Z</time>
      </trkpt>
      <trkpt lat="45.93397" lon="4.88933">
        <ele>294</ele>
        <time>2014-12-06T14:20:59.000Z</time>
      </trkpt>
      <trkpt lat="45.93377" lon="4.89005">
        <ele>295</ele>
        <time>2014-12-06T14:21:07.000Z</time>
      </trkpt>
      <trkpt lat="45.93356" lon="4.89084">
        <ele>295</ele>
        <time>2014-12-06T14:21:15.000Z</time>
      </trkpt>
      <trkpt lat="45.93337" lon="4.89158">
        <ele>295</ele>
        <time>2014-12-06T14:21:22.000Z</time>
      </trkpt>
      <trkpt lat="45.93317" lon="4.89232">
        <ele>295</ele>
        <time>2014-12-06T14:21:29.000Z</time>
      </trkpt>
      <trkpt lat="45.93298" lon="4.89307">
        <ele>295.20001220703</ele>
        <time>2014-12-06T14:21:36.000Z</time>
      </trkpt>
      <trkpt lat="45.9328" lon="4.89384">
        <ele>295</ele>
        <time>2014-12-06T14:21:43.000Z</time>
      </trkpt>
      <trkpt lat="45.93272" lon="4.8947">
        <ele>294.39999389648</ele>
        <time>2014-12-06T14:21:50.000Z</time>
      </trkpt>
      <trkpt lat="45.93276" lon="4.8955">
        <ele>293.79998779297</ele>
        <time>2014-12-06T14:21:56.000Z</time>
      </trkpt>
      <trkpt lat="45.93287" lon="4.89636">
        <ele>292.60000610352</ele>
        <time>2014-12-06T14:22:03.000Z</time>
      </trkpt>
      <trkpt lat="45.93297" lon="4.89713">
        <ele>291.79998779297</ele>
        <time>2014-12-06T14:22:09.000Z</time>
      </trkpt>
      <trkpt lat="45.93308" lon="4.89794">
        <ele>291</ele>
        <time>2014-12-06T14:22:16.000Z</time>
      </trkpt>
      <trkpt lat="45.93318" lon="4.89874">
        <ele>290.60000610352</ele>
        <time>2014-12-06T14:22:23.000Z</time>
      </trkpt>
      <trkpt lat="45.93329" lon="4.89953">
        <ele>290.20001220703</ele>
        <time>2014-12-06T14:22:30.000Z</time>
      </trkpt>
      <trkpt lat="45.93343" lon="4.90028">
        <ele>290</ele>
        <time>2014-12-06T14:22:37.000Z</time>
      </trkpt>
      <trkpt lat="45.93365" lon="4.90099">
        <ele>289.60000610352</ele>
        <time>2014-12-06T14:22:44.000Z</time>
      </trkpt>
      <trkpt lat="45.93389" lon="4.90173">
        <ele>288.79998779297</ele>
        <time>2014-12-06T14:22:51.000Z</time>
      </trkpt>
      <trkpt lat="45.93411" lon="4.90244">
        <ele>288.39999389648</ele>
        <time>2014-12-06T14:22:58.000Z</time>
      </trkpt>
      <trkpt lat="45.93436" lon="4.9032">
        <ele>288.60000610352</ele>
        <time>2014-12-06T14:23:06.000Z</time>
      </trkpt>
      <trkpt lat="45.93461" lon="4.90396">
        <ele>289.20001220703</ele>
        <time>2014-12-06T14:23:14.000Z</time>
      </trkpt>
      <trkpt lat="45.93478" lon="4.90477">
        <ele>289.79998779297</ele>
        <time>2014-12-06T14:23:22.000Z</time>
      </trkpt>
      <trkpt lat="45.93485" lon="4.90555">
        <ele>290.20001220703</ele>
        <time>2014-12-06T14:23:29.000Z</time>
      </trkpt>
      <trkpt lat="45.93487" lon="4.90636">
        <ele>290.39999389648</ele>
        <time>2014-12-06T14:23:36.000Z</time>
      </trkpt>
      <trkpt lat="45.9349" lon="4.90716">
        <ele>290.60000610352</ele>
        <time>2014-12-06T14:23:43.000Z</time>
      </trkpt>
      <trkpt lat="45.93492" lon="4.90797">
        <ele>290.79998779297</ele>
        <time>2014-12-06T14:23:50.000Z</time>
      </trkpt>
      <trkpt lat="45.93494" lon="4.90877">
        <ele>291.20001220703</ele>
        <time>2014-12-06T14:23:57.000Z</time>
      </trkpt>
      <trkpt lat="45.93497" lon="4.90959">
        <ele>291.79998779297</ele>
        <time>2014-12-06T14:24:04.000Z</time>
      </trkpt>
      <trkpt lat="45.93499" lon="4.9104">
        <ele>292.60000610352</ele>
        <time>2014-12-06T14:24:11.000Z</time>
      </trkpt>
      <trkpt lat="45.93499" lon="4.91122">
        <ele>293</ele>
        <time>2014-12-06T14:24:18.000Z</time>
      </trkpt>
      <trkpt lat="45.93497" lon="4.91204">
        <ele>293.39999389648</ele>
        <time>2014-12-06T14:24:25.000Z</time>
      </trkpt>
      <trkpt lat="45.93492" lon="4.91286">
        <ele>293.20001220703</ele>
        <time>2014-12-06T14:24:32.000Z</time>
      </trkpt>
      <trkpt lat="45.93484" lon="4.91367">
        <ele>293.20001220703</ele>
        <time>2014-12-06T14:24:39.000Z</time>
      </trkpt>
      <trkpt lat="45.93474" lon="4.91448">
        <ele>293.20001220703</ele>
        <time>2014-12-06T14:24:46.000Z</time>
      </trkpt>
      <trkpt lat="45.93462" lon="4.91531">
        <ele>293.20001220703</ele>
        <time>2014-12-06T14:24:53.000Z</time>
      </trkpt>
      <trkpt lat="45.93449" lon="4.91612">
        <ele>293</ele>
        <time>2014-12-06T14:25:00.000Z</time>
      </trkpt>
      <trkpt lat="45.93437" lon="4.91692">
        <ele>293</ele>
        <time>2014-12-06T14:25:07.000Z</time>
      </trkpt>
      <trkpt lat="45.93424" lon="4.91774">
        <ele>293</ele>
        <time>2014-12-06T14:25:14.000Z</time>
      </trkpt>
      <trkpt lat="45.93413" lon="4.91855">
        <ele>293</ele>
        <time>2014-12-06T14:25:21.000Z</time>
      </trkpt>
      <trkpt lat="45.93401" lon="4.91938">
        <ele>293</ele>
        <time>2014-12-06T14:25:28.000Z</time>
      </trkpt>
      <trkpt lat="45.93388" lon="4.92022">
        <ele>292.79998779297</ele>
        <time>2014-12-06T14:25:35.000Z</time>
      </trkpt>
      <trkpt lat="45.93376" lon="4.92104">
        <ele>293.20001220703</ele>
        <time>2014-12-06T14:25:42.000Z</time>
      </trkpt>
      <trkpt lat="45.93364" lon="4.92184">
        <ele>293.79998779297</ele>
        <time>2014-12-06T14:25:49.000Z</time>
      </trkpt>
      <trkpt lat="45.93351" lon="4.92263">
        <ele>294.20001220703</ele>
        <time>2014-12-06T14:25:56.000Z</time>
      </trkpt>
      <trkpt lat="45.93339" lon="4.92345">
        <ele>294.39999389648</ele>
        <time>2014-12-06T14:26:03.000Z</time>
      </trkpt>
      <trkpt lat="45.93327" lon="4.92424">
        <ele>295</ele>
        <time>2014-12-06T14:26:10.000Z</time>
      </trkpt>
      <trkpt lat="45.93314" lon="4.92501">
        <ele>295.60000610352</ele>
        <time>2014-12-06T14:26:17.000Z</time>
      </trkpt>
      <trkpt lat="45.93295" lon="4.92578">
        <ele>296</ele>
        <time>2014-12-06T14:26:24.000Z</time>
      </trkpt>
      <trkpt lat="45.93271" lon="4.92661">
        <ele>296.20001220703</ele>
        <time>2014-12-06T14:26:31.000Z</time>
      </trkpt>
      <trkpt lat="45.93251" lon="4.92734">
        <ele>296.39999389648</ele>
        <time>2014-12-06T14:26:37.000Z</time>
      </trkpt>
      <trkpt lat="45.9323" lon="4.92808">
        <ele>296.39999389648</ele>
        <time>2014-12-06T14:26:43.000Z</time>
      </trkpt>
      <trkpt lat="45.93209" lon="4.92887">
        <ele>296</ele>
        <time>2014-12-06T14:26:49.000Z</time>
      </trkpt>
      <trkpt lat="45.93185" lon="4.92966">
        <ele>295.79998779297</ele>
        <time>2014-12-06T14:26:55.000Z</time>
      </trkpt>
      <trkpt lat="45.93161" lon="4.9305">
        <ele>295.20001220703</ele>
        <time>2014-12-06T14:27:01.000Z</time>
      </trkpt>
      <trkpt lat="45.93142" lon="4.93128">
        <ele>294.60000610352</ele>
        <time>2014-12-06T14:27:06.000Z</time>
      </trkpt>
      <trkpt lat="45.93118" lon="4.93209">
        <ele>294.20001220703</ele>
        <time>2014-12-06T14:27:11.000Z</time>
      </trkpt>
      <trkpt lat="45.93094" lon="4.93294">
        <ele>294</ele>
        <time>2014-12-06T14:27:16.000Z</time>
      </trkpt>
      <trkpt lat="45.93069" lon="4.93381">
        <ele>293.79998779297</ele>
        <time>2014-12-06T14:27:21.000Z</time>
      </trkpt>
      <trkpt lat="45.93045" lon="4.93465">
        <ele>293.79998779297</ele>
        <time>2014-12-06T14:27:26.000Z</time>
      </trkpt>
      <trkpt lat="45.93025" lon="4.93541">
        <ele>293.79998779297</ele>
        <time>2014-12-06T14:27:31.000Z</time>
      </trkpt>
      <trkpt lat="45.93003" lon="4.9362">
        <ele>293.79998779297</ele>
        <time>2014-12-06T14:27:37.000Z</time>
      </trkpt>
      <trkpt lat="45.92981" lon="4.93698">
        <ele>293.60000610352</ele>
        <time>2014-12-06T14:27:43.000Z</time>
      </trkpt>
      <trkpt lat="45.9296" lon="4.93772">
        <ele>293</ele>
        <time>2014-12-06T14:27:49.000Z</time>
      </trkpt>
      <trkpt lat="45.9294" lon="4.93846">
        <ele>292.60000610352</ele>
        <time>2014-12-06T14:27:55.000Z</time>
      </trkpt>
      <trkpt lat="45.92919" lon="4.93925">
        <ele>293.39999389648</ele>
        <time>2014-12-06T14:28:01.000Z</time>
      </trkpt>
      <trkpt lat="45.92896" lon="4.94002">
        <ele>294.20001220703</ele>
        <time>2014-12-06T14:28:06.000Z</time>
      </trkpt>
      <trkpt lat="45.92873" lon="4.94086">
        <ele>295</ele>
        <time>2014-12-06T14:28:11.000Z</time>
      </trkpt>
      <trkpt lat="45.9285" lon="4.9417">
        <ele>295.39999389648</ele>
        <time>2014-12-06T14:28:16.000Z</time>
      </trkpt>
      <trkpt lat="45.92826" lon="4.94254">
        <ele>295.60000610352</ele>
        <time>2014-12-06T14:28:21.000Z</time>
      </trkpt>
      <trkpt lat="45.92803" lon="4.94335">
        <ele>295.39999389648</ele>
        <time>2014-12-06T14:28:26.000Z</time>
      </trkpt>
      <trkpt lat="45.92781" lon="4.94414">
        <ele>295.39999389648</ele>
        <time>2014-12-06T14:28:31.000Z</time>
      </trkpt>
      <trkpt lat="45.9276" lon="4.9449">
        <ele>295.20001220703</ele>
        <time>2014-12-06T14:28:36.000Z</time>
      </trkpt>
      <trkpt lat="45.92737" lon="4.94575">
        <ele>295.20001220703</ele>
        <time>2014-12-06T14:28:42.000Z</time>
      </trkpt>
      <trkpt lat="45.92715" lon="4.94653">
        <ele>295.20001220703</ele>
        <time>2014-12-06T14:28:49.000Z</time>
      </trkpt>
      <trkpt lat="45.92693" lon="4.94729">
        <ele>295</ele>
        <time>2014-12-06T14:28:58.000Z</time>
      </trkpt>
      <trkpt lat="45.92676" lon="4.94806">
        <ele>294.79998779297</ele>
        <time>2014-12-06T14:29:08.000Z</time>
      </trkpt>
      <trkpt lat="45.92663" lon="4.94849">
        <ele>295.39999389648</ele>
        <time>2014-12-06T14:29:15.000Z</time>
      </trkpt>
      <trkpt lat="45.92655" lon="4.9486">
        <ele>297.20001220703</ele>
        <time>2014-12-06T14:30:50.000Z</time>
      </trkpt>
      <trkpt lat="45.9265" lon="4.94904">
        <ele>293.60000610352</ele>
        <time>2014-12-06T14:31:02.000Z</time>
      </trkpt>
      <trkpt lat="45.92629" lon="4.94978">
        <ele>290.60000610352</ele>
        <time>2014-12-06T14:31:13.000Z</time>
      </trkpt>
      <trkpt lat="45.92608" lon="4.95055">
        <ele>290</ele>
        <time>2014-12-06T14:31:23.000Z</time>
      </trkpt>
      <trkpt lat="45.92606" lon="4.95062">
        <ele>290</ele>
        <time>2014-12-06T14:31:24.000Z</time>
      </trkpt>
      <trkpt lat="45.9259" lon="4.95079">
        <ele>290</ele>
        <time>2014-12-06T14:31:28.000Z</time>
      </trkpt>
      <trkpt lat="45.92592" lon="4.95116">
        <ele>290</ele>
        <time>2014-12-06T14:31:33.000Z</time>
      </trkpt>
      <trkpt lat="45.92613" lon="4.95165">
        <ele>290</ele>
        <time>2014-12-06T14:31:39.000Z</time>
      </trkpt>
      <trkpt lat="45.92624" lon="4.95228">
        <ele>290</ele>
        <time>2014-12-06T14:31:46.000Z</time>
      </trkpt>
      <trkpt lat="45.92606" lon="4.95242">
        <ele>290</ele>
        <time>2014-12-06T14:31:50.000Z</time>
      </trkpt>
      <trkpt lat="45.92552" lon="4.95247">
        <ele>289.60000610352</ele>
        <time>2014-12-06T14:31:58.000Z</time>
      </trkpt>
      <trkpt lat="45.92497" lon="4.95257">
        <ele>289.20001220703</ele>
        <time>2014-12-06T14:32:06.000Z</time>
      </trkpt>
      <trkpt lat="45.9244" lon="4.95284">
        <ele>288.60000610352</ele>
        <time>2014-12-06T14:32:14.000Z</time>
      </trkpt>
      <trkpt lat="45.92389" lon="4.95311">
        <ele>288.39999389648</ele>
        <time>2014-12-06T14:32:21.000Z</time>
      </trkpt>
      <trkpt lat="45.92331" lon="4.95343">
        <ele>288.20001220703</ele>
        <time>2014-12-06T14:32:29.000Z</time>
      </trkpt>
      <trkpt lat="45.92277" lon="4.95371">
        <ele>288.39999389648</ele>
        <time>2014-12-06T14:32:37.000Z</time>
      </trkpt>
      <trkpt lat="45.92221" lon="4.95401">
        <ele>289.20001220703</ele>
        <time>2014-12-06T14:32:46.000Z</time>
      </trkpt>
      <trkpt lat="45.92164" lon="4.95413">
        <ele>289.79998779297</ele>
        <time>2014-12-06T14:32:54.000Z</time>
      </trkpt>
      <trkpt lat="45.92104" lon="4.95408">
        <ele>289.60000610352</ele>
        <time>2014-12-06T14:33:02.000Z</time>
      </trkpt>
      <trkpt lat="45.92046" lon="4.95398">
        <ele>289.60000610352</ele>
        <time>2014-12-06T14:33:10.000Z</time>
      </trkpt>
      <trkpt lat="45.9201" lon="4.95399">
        <ele>289.79998779297</ele>
        <time>2014-12-06T14:33:15.000Z</time>
      </trkpt>
      <trkpt lat="45.91955" lon="4.95427">
        <ele>290.39999389648</ele>
        <time>2014-12-06T14:33:23.000Z</time>
      </trkpt>
      <trkpt lat="45.91901" lon="4.95455">
        <ele>290.60000610352</ele>
        <time>2014-12-06T14:33:31.000Z</time>
      </trkpt>
      <trkpt lat="45.91848" lon="4.95471">
        <ele>290.60000610352</ele>
        <time>2014-12-06T14:33:38.000Z</time>
      </trkpt>
      <trkpt lat="45.91792" lon="4.95486">
        <ele>290.39999389648</ele>
        <time>2014-12-06T14:33:45.000Z</time>
      </trkpt>
      <trkpt lat="45.91731" lon="4.95503">
        <ele>290</ele>
        <time>2014-12-06T14:33:52.000Z</time>
      </trkpt>
      <trkpt lat="45.91675" lon="4.95518">
        <ele>289.39999389648</ele>
        <time>2014-12-06T14:33:58.000Z</time>
      </trkpt>
      <trkpt lat="45.91617" lon="4.95534">
        <ele>289</ele>
        <time>2014-12-06T14:34:04.000Z</time>
      </trkpt>
      <trkpt lat="45.91561" lon="4.95546">
        <ele>288.60000610352</ele>
        <time>2014-12-06T14:34:10.000Z</time>
      </trkpt>
      <trkpt lat="45.91501" lon="4.95557">
        <ele>288.39999389648</ele>
        <time>2014-12-06T14:34:17.000Z</time>
      </trkpt>
      <trkpt lat="45.91446" lon="4.95577">
        <ele>288.39999389648</ele>
        <time>2014-12-06T14:34:24.000Z</time>
      </trkpt>
      <trkpt lat="45.91388" lon="4.95601">
        <ele>288</ele>
        <time>2014-12-06T14:34:31.000Z</time>
      </trkpt>
      <trkpt lat="45.91333" lon="4.95625">
        <ele>287.39999389648</ele>
        <time>2014-12-06T14:34:37.000Z</time>
      </trkpt>
      <trkpt lat="45.91275" lon="4.9565">
        <ele>286.79998779297</ele>
        <time>2014-12-06T14:34:43.000Z</time>
      </trkpt>
      <trkpt lat="45.91216" lon="4.95675">
        <ele>286.20001220703</ele>
        <time>2014-12-06T14:34:49.000Z</time>
      </trkpt>
      <trkpt lat="45.91161" lon="4.95699">
        <ele>286</ele>
        <time>2014-12-06T14:34:55.000Z</time>
      </trkpt>
      <trkpt lat="45.91109" lon="4.9572">
        <ele>285.79998779297</ele>
        <time>2014-12-06T14:35:01.000Z</time>
      </trkpt>
      <trkpt lat="45.9105" lon="4.95746">
        <ele>285.60000610352</ele>
        <time>2014-12-06T14:35:08.000Z</time>
      </trkpt>
      <trkpt lat="45.90994" lon="4.95769">
        <ele>285.79998779297</ele>
        <time>2014-12-06T14:35:15.000Z</time>
      </trkpt>
      <trkpt lat="45.90936" lon="4.95794">
        <ele>286</ele>
        <time>2014-12-06T14:35:23.000Z</time>
      </trkpt>
      <trkpt lat="45.90877" lon="4.95819">
        <ele>286.20001220703</ele>
        <time>2014-12-06T14:35:31.000Z</time>
      </trkpt>
      <trkpt lat="45.90821" lon="4.95843">
        <ele>286.20001220703</ele>
        <time>2014-12-06T14:35:38.000Z</time>
      </trkpt>
      <trkpt lat="45.90768" lon="4.9587">
        <ele>286</ele>
        <time>2014-12-06T14:35:44.000Z</time>
      </trkpt>
      <trkpt lat="45.90716" lon="4.95904">
        <ele>285.60000610352</ele>
        <time>2014-12-06T14:35:50.000Z</time>
      </trkpt>
      <trkpt lat="45.90667" lon="4.95947">
        <ele>285</ele>
        <time>2014-12-06T14:35:56.000Z</time>
      </trkpt>
      <trkpt lat="45.90616" lon="4.95995">
        <ele>284.20001220703</ele>
        <time>2014-12-06T14:36:02.000Z</time>
      </trkpt>
      <trkpt lat="45.90565" lon="4.96042">
        <ele>283.39999389648</ele>
        <time>2014-12-06T14:36:08.000Z</time>
      </trkpt>
      <trkpt lat="45.90513" lon="4.96092">
        <ele>282.79998779297</ele>
        <time>2014-12-06T14:36:14.000Z</time>
      </trkpt>
      <trkpt lat="45.90468" lon="4.96135">
        <ele>282.20001220703</ele>
        <time>2014-12-06T14:36:19.000Z</time>
      </trkpt>
      <trkpt lat="45.90415" lon="4.96185">
        <ele>281.60000610352</ele>
        <time>2014-12-06T14:36:25.000Z</time>
      </trkpt>
      <trkpt lat="45.90369" lon="4.96228">
        <ele>281.39999389648</ele>
        <time>2014-12-06T14:36:31.000Z</time>
      </trkpt>
      <trkpt lat="45.90317" lon="4.96277">
        <ele>281.60000610352</ele>
        <time>2014-12-06T14:36:38.000Z</time>
      </trkpt>
      <trkpt lat="45.90264" lon="4.96326">
        <ele>282</ele>
        <time>2014-12-06T14:36:45.000Z</time>
      </trkpt>
      <trkpt lat="45.90213" lon="4.96376">
        <ele>282.20001220703</ele>
        <time>2014-12-06T14:36:52.000Z</time>
      </trkpt>
      <trkpt lat="45.9016" lon="4.96423">
        <ele>282</ele>
        <time>2014-12-06T14:36:59.000Z</time>
      </trkpt>
      <trkpt lat="45.90109" lon="4.96472">
        <ele>281.60000610352</ele>
        <time>2014-12-06T14:37:06.000Z</time>
      </trkpt>
      <trkpt lat="45.90064" lon="4.96515">
        <ele>281.39999389648</ele>
        <time>2014-12-06T14:37:12.000Z</time>
      </trkpt>
      <trkpt lat="45.90018" lon="4.96559">
        <ele>281.20001220703</ele>
        <time>2014-12-06T14:37:18.000Z</time>
      </trkpt>
      <trkpt lat="45.8997" lon="4.96604">
        <ele>281</ele>
        <time>2014-12-06T14:37:24.000Z</time>
      </trkpt>
      <trkpt lat="45.89937" lon="4.96635">
        <ele>280.79998779297</ele>
        <time>2014-12-06T14:37:28.000Z</time>
      </trkpt>
      <trkpt lat="45.89886" lon="4.96682">
        <ele>280.60000610352</ele>
        <time>2014-12-06T14:37:34.000Z</time>
      </trkpt>
      <trkpt lat="45.89836" lon="4.9673">
        <ele>280</ele>
        <time>2014-12-06T14:37:40.000Z</time>
      </trkpt>
      <trkpt lat="45.89788" lon="4.96776">
        <ele>279.20001220703</ele>
        <time>2014-12-06T14:37:46.000Z</time>
      </trkpt>
      <trkpt lat="45.8974" lon="4.9682">
        <ele>277.79998779297</ele>
        <time>2014-12-06T14:37:52.000Z</time>
      </trkpt>
      <trkpt lat="45.89694" lon="4.96865">
        <ele>276.20001220703</ele>
        <time>2014-12-06T14:37:58.000Z</time>
      </trkpt>
      <trkpt lat="45.89647" lon="4.9691">
        <ele>274</ele>
        <time>2014-12-06T14:38:04.000Z</time>
      </trkpt>
      <trkpt lat="45.89601" lon="4.96954">
        <ele>272</ele>
        <time>2014-12-06T14:38:10.000Z</time>
      </trkpt>
      <trkpt lat="45.89551" lon="4.96995">
        <ele>270.20001220703</ele>
        <time>2014-12-06T14:38:16.000Z</time>
      </trkpt>
      <trkpt lat="45.89491" lon="4.9703">
        <ele>268.39999389648</ele>
        <time>2014-12-06T14:38:22.000Z</time>
      </trkpt>
      <trkpt lat="45.89434" lon="4.97048">
        <ele>267.60000610352</ele>
        <time>2014-12-06T14:38:27.000Z</time>
      </trkpt>
      <trkpt lat="45.89378" lon="4.97055">
        <ele>266.60000610352</ele>
        <time>2014-12-06T14:38:32.000Z</time>
      </trkpt>
      <trkpt lat="45.89323" lon="4.9705">
        <ele>266.20001220703</ele>
        <time>2014-12-06T14:38:37.000Z</time>
      </trkpt>
      <trkpt lat="45.89269" lon="4.97041">
        <ele>266.20001220703</ele>
        <time>2014-12-06T14:38:42.000Z</time>
      </trkpt>
      <trkpt lat="45.89213" lon="4.97032">
        <ele>267.79998779297</ele>
        <time>2014-12-06T14:38:47.000Z</time>
      </trkpt>
      <trkpt lat="45.89157" lon="4.97021">
        <ele>268.79998779297</ele>
        <time>2014-12-06T14:38:52.000Z</time>
      </trkpt>
      <trkpt lat="45.89098" lon="4.97011">
        <ele>269.79998779297</ele>
        <time>2014-12-06T14:38:57.000Z</time>
      </trkpt>
      <trkpt lat="45.8904" lon="4.97">
        <ele>270.20001220703</ele>
        <time>2014-12-06T14:39:02.000Z</time>
      </trkpt>
      <trkpt lat="45.88984" lon="4.96989">
        <ele>270.39999389648</ele>
        <time>2014-12-06T14:39:07.000Z</time>
      </trkpt>
      <trkpt lat="45.88931" lon="4.96978">
        <ele>270.39999389648</ele>
        <time>2014-12-06T14:39:12.000Z</time>
      </trkpt>
      <trkpt lat="45.88877" lon="4.96965">
        <ele>270</ele>
        <time>2014-12-06T14:39:17.000Z</time>
      </trkpt>
      <trkpt lat="45.88816" lon="4.96944">
        <ele>269.60000610352</ele>
        <time>2014-12-06T14:39:23.000Z</time>
      </trkpt>
      <trkpt lat="45.8876" lon="4.96924">
        <ele>269.20001220703</ele>
        <time>2014-12-06T14:39:29.000Z</time>
      </trkpt>
      <trkpt lat="45.88699" lon="4.96902">
        <ele>268.79998779297</ele>
        <time>2014-12-06T14:39:36.000Z</time>
      </trkpt>
      <trkpt lat="45.88638" lon="4.9688">
        <ele>268.39999389648</ele>
        <time>2014-12-06T14:39:43.000Z</time>
      </trkpt>
      <trkpt lat="45.88583" lon="4.96869">
        <ele>268.39999389648</ele>
        <time>2014-12-06T14:39:49.000Z</time>
      </trkpt>
      <trkpt lat="45.88528" lon="4.96876">
        <ele>268</ele>
        <time>2014-12-06T14:39:55.000Z</time>
      </trkpt>
      <trkpt lat="45.88473" lon="4.96883">
        <ele>267.60000610352</ele>
        <time>2014-12-06T14:40:01.000Z</time>
      </trkpt>
      <trkpt lat="45.8841" lon="4.9689">
        <ele>267.60000610352</ele>
        <time>2014-12-06T14:40:08.000Z</time>
      </trkpt>
      <trkpt lat="45.88348" lon="4.96897">
        <ele>267.79998779297</ele>
        <time>2014-12-06T14:40:15.000Z</time>
      </trkpt>
      <trkpt lat="45.88286" lon="4.96904">
        <ele>268.20001220703</ele>
        <time>2014-12-06T14:40:22.000Z</time>
      </trkpt>
      <trkpt lat="45.88224" lon="4.9691">
        <ele>268</ele>
        <time>2014-12-06T14:40:29.000Z</time>
      </trkpt>
      <trkpt lat="45.88165" lon="4.96916">
        <ele>268.20001220703</ele>
        <time>2014-12-06T14:40:36.000Z</time>
      </trkpt>
      <trkpt lat="45.88107" lon="4.96931">
        <ele>269.20001220703</ele>
        <time>2014-12-06T14:40:43.000Z</time>
      </trkpt>
      <trkpt lat="45.88077" lon="4.96958">
        <ele>270.79998779297</ele>
        <time>2014-12-06T14:40:47.000Z</time>
      </trkpt>
      <trkpt lat="45.8807" lon="4.96967">
        <ele>271.20001220703</ele>
        <time>2014-12-06T14:40:48.000Z</time>
      </trkpt>
      <trkpt lat="45.88038" lon="4.97042">
        <ele>274.60000610352</ele>
        <time>2014-12-06T14:40:55.000Z</time>
      </trkpt>
      <trkpt lat="45.88029" lon="4.97062">
        <ele>275.60000610352</ele>
        <time>2014-12-06T14:40:57.000Z</time>
      </trkpt>
      <trkpt lat="45.88001" lon="4.97043">
        <ele>279.20001220703</ele>
        <time>2014-12-06T14:41:03.000Z</time>
      </trkpt>
      <trkpt lat="45.87983" lon="4.96979">
        <ele>283.79998779297</ele>
        <time>2014-12-06T14:41:11.000Z</time>
      </trkpt>
      <trkpt lat="45.87972" lon="4.96954">
        <ele>285.79998779297</ele>
        <time>2014-12-06T14:41:15.000Z</time>
      </trkpt>
      <trkpt lat="45.87945" lon="4.96925">
        <ele>289</ele>
        <time>2014-12-06T14:41:22.000Z</time>
      </trkpt>
      <trkpt lat="45.8792" lon="4.96909">
        <ele>291.20001220703</ele>
        <time>2014-12-06T14:41:28.000Z</time>
      </trkpt>
      <trkpt lat="45.87912" lon="4.96904">
        <ele>292</ele>
        <time>2014-12-06T14:41:30.000Z</time>
      </trkpt>
      <trkpt lat="45.87858" lon="4.96883">
        <ele>296.60000610352</ele>
        <time>2014-12-06T14:41:44.000Z</time>
      </trkpt>
      <trkpt lat="45.87846" lon="4.96878">
        <ele>297.39999389648</ele>
        <time>2014-12-06T14:41:47.000Z</time>
      </trkpt>
      <trkpt lat="45.87792" lon="4.96858">
        <ele>299.39999389648</ele>
        <time>2014-12-06T14:42:01.000Z</time>
      </trkpt>
      <trkpt lat="45.87787" lon="4.96857">
        <ele>299.60000610352</ele>
        <time>2014-12-06T14:42:02.000Z</time>
      </trkpt>
      <trkpt lat="45.87762" lon="4.96859">
        <ele>300</ele>
        <time>2014-12-06T14:42:09.000Z</time>
      </trkpt>
      <trkpt lat="45.87709" lon="4.9683">
        <ele>302.20001220703</ele>
        <time>2014-12-06T14:42:31.000Z</time>
      </trkpt>
      <trkpt lat="45.87663" lon="4.96787">
        <ele>302.79998779297</ele>
        <time>2014-12-06T14:42:50.000Z</time>
      </trkpt>
      <trkpt lat="45.87637" lon="4.96711">
        <ele>301.60000610352</ele>
        <time>2014-12-06T14:43:00.000Z</time>
      </trkpt>
      <trkpt lat="45.87616" lon="4.96635">
        <ele>300.20001220703</ele>
        <time>2014-12-06T14:43:08.000Z</time>
      </trkpt>
      <trkpt lat="45.87595" lon="4.96563">
        <ele>299.39999389648</ele>
        <time>2014-12-06T14:43:16.000Z</time>
      </trkpt>
      <trkpt lat="45.87592" lon="4.96555">
        <ele>299.39999389648</ele>
        <time>2014-12-06T14:43:17.000Z</time>
      </trkpt>
      <trkpt lat="45.87574" lon="4.96535">
        <ele>299.20001220703</ele>
        <time>2014-12-06T14:43:21.000Z</time>
      </trkpt>
      <trkpt lat="45.87519" lon="4.96502">
        <ele>298.60000610352</ele>
        <time>2014-12-06T14:43:31.000Z</time>
      </trkpt>
      <trkpt lat="45.87502" lon="4.96494">
        <ele>298.39999389648</ele>
        <time>2014-12-06T14:43:34.000Z</time>
      </trkpt>
      <trkpt lat="45.87486" lon="4.96486">
        <ele>298</ele>
        <time>2014-12-06T14:43:37.000Z</time>
      </trkpt>
      <trkpt lat="45.87469" lon="4.96474">
        <ele>297.60000610352</ele>
        <time>2014-12-06T14:43:40.000Z</time>
      </trkpt>
      <trkpt lat="45.87443" lon="4.96457">
        <ele>297.20001220703</ele>
        <time>2014-12-06T14:43:45.000Z</time>
      </trkpt>
      <trkpt lat="45.87416" lon="4.96453">
        <ele>296.79998779297</ele>
        <time>2014-12-06T14:43:50.000Z</time>
      </trkpt>
      <trkpt lat="45.87386" lon="4.96421">
        <ele>296.60000610352</ele>
        <time>2014-12-06T14:43:55.000Z</time>
      </trkpt>
      <trkpt lat="45.87329" lon="4.96387">
        <ele>296.39999389648</ele>
        <time>2014-12-06T14:44:02.000Z</time>
      </trkpt>
      <trkpt lat="45.87276" lon="4.96353">
        <ele>296.60000610352</ele>
        <time>2014-12-06T14:44:10.000Z</time>
      </trkpt>
      <trkpt lat="45.87235" lon="4.9632">
        <ele>297</ele>
        <time>2014-12-06T14:44:28.000Z</time>
      </trkpt>
      <trkpt lat="45.87243" lon="4.96332">
        <ele>297</ele>
        <time>2014-12-06T14:44:36.000Z</time>
      </trkpt>
      <trkpt lat="45.87292" lon="4.96368">
        <ele>297.39999389648</ele>
        <time>2014-12-06T14:44:52.000Z</time>
      </trkpt>
      <trkpt lat="45.87343" lon="4.96399">
        <ele>296.79998779297</ele>
        <time>2014-12-06T14:45:04.000Z</time>
      </trkpt>
      <trkpt lat="45.8738" lon="4.96423">
        <ele>296.39999389648</ele>
        <time>2014-12-06T14:45:15.000Z</time>
      </trkpt>
      <trkpt lat="45.87382" lon="4.96425">
        <ele>296.39999389648</ele>
        <time>2014-12-06T14:45:17.000Z</time>
      </trkpt>
      <trkpt lat="45.87384" lon="4.96424">
        <ele>296.20001220703</ele>
        <time>2014-12-06T14:45:43.000Z</time>
      </trkpt>
      <trkpt lat="45.87385" lon="4.96423">
        <ele>296.39999389648</ele>
        <time>2014-12-06T14:45:46.000Z</time>
      </trkpt>
      <trkpt lat="45.8738" lon="4.96416">
        <ele>297.60000610352</ele>
        <time>2014-12-06T14:46:03.000Z</time>
      </trkpt>
      <trkpt lat="45.87329" lon="4.96386">
        <ele>297.79998779297</ele>
        <time>2014-12-06T14:46:18.000Z</time>
      </trkpt>
      <trkpt lat="45.87308" lon="4.96373">
        <ele>297.79998779297</ele>
        <time>2014-12-06T14:46:22.000Z</time>
      </trkpt>
      <trkpt lat="45.87259" lon="4.9634">
        <ele>297.60000610352</ele>
        <time>2014-12-06T14:46:30.000Z</time>
      </trkpt>
      <trkpt lat="45.87208" lon="4.96299">
        <ele>297</ele>
        <time>2014-12-06T14:46:39.000Z</time>
      </trkpt>
      <trkpt lat="45.87179" lon="4.96278">
        <ele>297</ele>
        <time>2014-12-06T14:46:50.000Z</time>
      </trkpt>
      <trkpt lat="45.8717" lon="4.96275">
        <ele>297</ele>
        <time>2014-12-06T14:46:55.000Z</time>
      </trkpt>
      <trkpt lat="45.87112" lon="4.96262">
        <ele>297.20001220703</ele>
        <time>2014-12-06T14:47:09.000Z</time>
      </trkpt>
      <trkpt lat="45.87057" lon="4.96252">
        <ele>297.79998779297</ele>
        <time>2014-12-06T14:47:18.000Z</time>
      </trkpt>
      <trkpt lat="45.86997" lon="4.96245">
        <ele>298.60000610352</ele>
        <time>2014-12-06T14:47:27.000Z</time>
      </trkpt>
      <trkpt lat="45.8697" lon="4.96291">
        <ele>298.39999389648</ele>
        <time>2014-12-06T14:47:33.000Z</time>
      </trkpt>
      <trkpt lat="45.86958" lon="4.96331">
        <ele>298.20001220703</ele>
        <time>2014-12-06T14:47:37.000Z</time>
      </trkpt>
      <trkpt lat="45.86913" lon="4.96346">
        <ele>297.79998779297</ele>
        <time>2014-12-06T14:47:43.000Z</time>
      </trkpt>
      <trkpt lat="45.86855" lon="4.96338">
        <ele>296.79998779297</ele>
        <time>2014-12-06T14:47:50.000Z</time>
      </trkpt>
      <trkpt lat="45.86833" lon="4.96279">
        <ele>296</ele>
        <time>2014-12-06T14:47:55.000Z</time>
      </trkpt>
      <trkpt lat="45.86819" lon="4.96239">
        <ele>295.20001220703</ele>
        <time>2014-12-06T14:47:58.000Z</time>
      </trkpt>
      <trkpt lat="45.86772" lon="4.962">
        <ele>293</ele>
        <time>2014-12-06T14:48:03.000Z</time>
      </trkpt>
      <trkpt lat="45.86719" lon="4.9616">
        <ele>290.39999389648</ele>
        <time>2014-12-06T14:48:08.000Z</time>
      </trkpt>
      <trkpt lat="45.86658" lon="4.96124">
        <ele>287.20001220703</ele>
        <time>2014-12-06T14:48:13.000Z</time>
      </trkpt>
      <trkpt lat="45.86599" lon="4.96091">
        <ele>284.20001220703</ele>
        <time>2014-12-06T14:48:18.000Z</time>
      </trkpt>
      <trkpt lat="45.8654" lon="4.96061">
        <ele>281.39999389648</ele>
        <time>2014-12-06T14:48:23.000Z</time>
      </trkpt>
      <trkpt lat="45.86482" lon="4.96034">
        <ele>278.79998779297</ele>
        <time>2014-12-06T14:48:28.000Z</time>
      </trkpt>
      <trkpt lat="45.86427" lon="4.96012">
        <ele>276.79998779297</ele>
        <time>2014-12-06T14:48:33.000Z</time>
      </trkpt>
      <trkpt lat="45.86373" lon="4.95996">
        <ele>275</ele>
        <time>2014-12-06T14:48:38.000Z</time>
      </trkpt>
      <trkpt lat="45.86316" lon="4.95971">
        <ele>273.60000610352</ele>
        <time>2014-12-06T14:48:44.000Z</time>
      </trkpt>
      <trkpt lat="45.86262" lon="4.95939">
        <ele>272.39999389648</ele>
        <time>2014-12-06T14:48:50.000Z</time>
      </trkpt>
      <trkpt lat="45.86206" lon="4.95925">
        <ele>271.39999389648</ele>
        <time>2014-12-06T14:48:56.000Z</time>
      </trkpt>
      <trkpt lat="45.8615" lon="4.95928">
        <ele>271.20001220703</ele>
        <time>2014-12-06T14:49:02.000Z</time>
      </trkpt>
      <trkpt lat="45.86092" lon="4.95939">
        <ele>271.60000610352</ele>
        <time>2014-12-06T14:49:09.000Z</time>
      </trkpt>
      <trkpt lat="45.86035" lon="4.95944">
        <ele>273.60000610352</ele>
        <time>2014-12-06T14:49:17.000Z</time>
      </trkpt>
      <trkpt lat="45.85979" lon="4.95945">
        <ele>275.79998779297</ele>
        <time>2014-12-06T14:49:25.000Z</time>
      </trkpt>
      <trkpt lat="45.85922" lon="4.95946">
        <ele>278</ele>
        <time>2014-12-06T14:49:33.000Z</time>
      </trkpt>
      <trkpt lat="45.85868" lon="4.95948">
        <ele>279.39999389648</ele>
        <time>2014-12-06T14:49:40.000Z</time>
      </trkpt>
      <trkpt lat="45.85812" lon="4.95948">
        <ele>279.60000610352</ele>
        <time>2014-12-06T14:49:47.000Z</time>
      </trkpt>
      <trkpt lat="45.85755" lon="4.95938">
        <ele>279.20001220703</ele>
        <time>2014-12-06T14:49:53.000Z</time>
      </trkpt>
      <trkpt lat="45.85702" lon="4.95922">
        <ele>278.20001220703</ele>
        <time>2014-12-06T14:49:58.000Z</time>
      </trkpt>
      <trkpt lat="45.85644" lon="4.95903">
        <ele>276.60000610352</ele>
        <time>2014-12-06T14:50:03.000Z</time>
      </trkpt>
      <trkpt lat="45.85585" lon="4.95894">
        <ele>275.20001220703</ele>
        <time>2014-12-06T14:50:08.000Z</time>
      </trkpt>
      <trkpt lat="45.85529" lon="4.95891">
        <ele>274.20001220703</ele>
        <time>2014-12-06T14:50:13.000Z</time>
      </trkpt>
      <trkpt lat="45.85464" lon="4.95888">
        <ele>273.20001220703</ele>
        <time>2014-12-06T14:50:19.000Z</time>
      </trkpt>
      <trkpt lat="45.854" lon="4.95885">
        <ele>272.60000610352</ele>
        <time>2014-12-06T14:50:25.000Z</time>
      </trkpt>
      <trkpt lat="45.85337" lon="4.95882">
        <ele>272.20001220703</ele>
        <time>2014-12-06T14:50:31.000Z</time>
      </trkpt>
      <trkpt lat="45.85276" lon="4.95877">
        <ele>272.20001220703</ele>
        <time>2014-12-06T14:50:37.000Z</time>
      </trkpt>
      <trkpt lat="45.85218" lon="4.95865">
        <ele>272.39999389648</ele>
        <time>2014-12-06T14:50:43.000Z</time>
      </trkpt>
      <trkpt lat="45.85158" lon="4.95853">
        <ele>272.39999389648</ele>
        <time>2014-12-06T14:50:49.000Z</time>
      </trkpt>
      <trkpt lat="45.851" lon="4.9584">
        <ele>272.60000610352</ele>
        <time>2014-12-06T14:50:55.000Z</time>
      </trkpt>
      <trkpt lat="45.85037" lon="4.95827">
        <ele>273.39999389648</ele>
        <time>2014-12-06T14:51:01.000Z</time>
      </trkpt>
      <trkpt lat="45.85011" lon="4.95827">
        <ele>273.79998779297</ele>
        <time>2014-12-06T14:51:04.000Z</time>
      </trkpt>
      <trkpt lat="45.84981" lon="4.95839">
        <ele>274.39999389648</ele>
        <time>2014-12-06T14:51:08.000Z</time>
      </trkpt>
      <trkpt lat="45.84923" lon="4.95861">
        <ele>276</ele>
        <time>2014-12-06T14:51:16.000Z</time>
      </trkpt>
      <trkpt lat="45.8489" lon="4.95867">
        <ele>276.79998779297</ele>
        <time>2014-12-06T14:51:21.000Z</time>
      </trkpt>
      <trkpt lat="45.84834" lon="4.95871">
        <ele>279.20001220703</ele>
        <time>2014-12-06T14:51:30.000Z</time>
      </trkpt>
      <trkpt lat="45.84774" lon="4.95866">
        <ele>280.79998779297</ele>
        <time>2014-12-06T14:51:38.000Z</time>
      </trkpt>
      <trkpt lat="45.84713" lon="4.95849">
        <ele>281.79998779297</ele>
        <time>2014-12-06T14:51:45.000Z</time>
      </trkpt>
      <trkpt lat="45.8466" lon="4.95819">
        <ele>282.20001220703</ele>
        <time>2014-12-06T14:51:51.000Z</time>
      </trkpt>
      <trkpt lat="45.84614" lon="4.95767">
        <ele>282.60000610352</ele>
        <time>2014-12-06T14:51:57.000Z</time>
      </trkpt>
      <trkpt lat="45.84571" lon="4.95714">
        <ele>282.79998779297</ele>
        <time>2014-12-06T14:52:03.000Z</time>
      </trkpt>
      <trkpt lat="45.84525" lon="4.95657">
        <ele>282.79998779297</ele>
        <time>2014-12-06T14:52:10.000Z</time>
      </trkpt>
      <trkpt lat="45.84479" lon="4.95601">
        <ele>283</ele>
        <time>2014-12-06T14:52:17.000Z</time>
      </trkpt>
      <trkpt lat="45.84431" lon="4.95553">
        <ele>283.20001220703</ele>
        <time>2014-12-06T14:52:24.000Z</time>
      </trkpt>
      <trkpt lat="45.84379" lon="4.95505">
        <ele>283.20001220703</ele>
        <time>2014-12-06T14:52:31.000Z</time>
      </trkpt>
      <trkpt lat="45.84327" lon="4.95456">
        <ele>283.39999389648</ele>
        <time>2014-12-06T14:52:38.000Z</time>
      </trkpt>
      <trkpt lat="45.84273" lon="4.95417">
        <ele>283.60000610352</ele>
        <time>2014-12-06T14:52:45.000Z</time>
      </trkpt>
      <trkpt lat="45.84215" lon="4.95388">
        <ele>284</ele>
        <time>2014-12-06T14:52:52.000Z</time>
      </trkpt>
      <trkpt lat="45.84159" lon="4.95361">
        <ele>284.79998779297</ele>
        <time>2014-12-06T14:52:59.000Z</time>
      </trkpt>
      <trkpt lat="45.84107" lon="4.95325">
        <ele>286</ele>
        <time>2014-12-06T14:53:06.000Z</time>
      </trkpt>
      <trkpt lat="45.84064" lon="4.95277">
        <ele>287.60000610352</ele>
        <time>2014-12-06T14:53:13.000Z</time>
      </trkpt>
      <trkpt lat="45.84022" lon="4.95214">
        <ele>290.60000610352</ele>
        <time>2014-12-06T14:53:22.000Z</time>
      </trkpt>
      <trkpt lat="45.83987" lon="4.95144">
        <ele>294</ele>
        <time>2014-12-06T14:53:31.000Z</time>
      </trkpt>
      <trkpt lat="45.83944" lon="4.95089">
        <ele>297</ele>
        <time>2014-12-06T14:53:40.000Z</time>
      </trkpt>
      <trkpt lat="45.83895" lon="4.95046">
        <ele>299</ele>
        <time>2014-12-06T14:53:48.000Z</time>
      </trkpt>
      <trkpt lat="45.83846" lon="4.95006">
        <ele>299.79998779297</ele>
        <time>2014-12-06T14:53:55.000Z</time>
      </trkpt>
      <trkpt lat="45.83793" lon="4.94977">
        <ele>300.39999389648</ele>
        <time>2014-12-06T14:54:02.000Z</time>
      </trkpt>
      <trkpt lat="45.83736" lon="4.94956">
        <ele>301</ele>
        <time>2014-12-06T14:54:09.000Z</time>
      </trkpt>
      <trkpt lat="45.83677" lon="4.94927">
        <ele>300.39999389648</ele>
        <time>2014-12-06T14:54:16.000Z</time>
      </trkpt>
      <trkpt lat="45.8362" lon="4.94893">
        <ele>299.39999389648</ele>
        <time>2014-12-06T14:54:22.000Z</time>
      </trkpt>
      <trkpt lat="45.83562" lon="4.94862">
        <ele>298.60000610352</ele>
        <time>2014-12-06T14:54:28.000Z</time>
      </trkpt>
      <trkpt lat="45.83508" lon="4.94832">
        <ele>297.79998779297</ele>
        <time>2014-12-06T14:54:34.000Z</time>
      </trkpt>
      <trkpt lat="45.83451" lon="4.94799">
        <ele>297.20001220703</ele>
        <time>2014-12-06T14:54:40.000Z</time>
      </trkpt>
      <trkpt lat="45.83394" lon="4.94765">
        <ele>296.79998779297</ele>
        <time>2014-12-06T14:54:47.000Z</time>
      </trkpt>
      <trkpt lat="45.83339" lon="4.94736">
        <ele>296.60000610352</ele>
        <time>2014-12-06T14:54:55.000Z</time>
      </trkpt>
      <trkpt lat="45.83291" lon="4.94712">
        <ele>296.79998779297</ele>
        <time>2014-12-06T14:55:04.000Z</time>
      </trkpt>
      <trkpt lat="45.83278" lon="4.94684">
        <ele>297.79998779297</ele>
        <time>2014-12-06T14:55:21.000Z</time>
      </trkpt>
      <trkpt lat="45.83265" lon="4.94686">
        <ele>297.39999389648</ele>
        <time>2014-12-06T14:55:26.000Z</time>
      </trkpt>
      <trkpt lat="45.83235" lon="4.94696">
        <ele>296.39999389648</ele>
        <time>2014-12-06T14:55:32.000Z</time>
      </trkpt>
      <trkpt lat="45.83179" lon="4.94705">
        <ele>295.39999389648</ele>
        <time>2014-12-06T14:55:41.000Z</time>
      </trkpt>
      <trkpt lat="45.83124" lon="4.94713">
        <ele>294.20001220703</ele>
        <time>2014-12-06T14:55:49.000Z</time>
      </trkpt>
      <trkpt lat="45.83116" lon="4.94711">
        <ele>294</ele>
        <time>2014-12-06T14:55:50.000Z</time>
      </trkpt>
      <trkpt lat="45.83059" lon="4.94695">
        <ele>292.79998779297</ele>
        <time>2014-12-06T14:55:57.000Z</time>
      </trkpt>
      <trkpt lat="45.83024" lon="4.94685">
        <ele>292</ele>
        <time>2014-12-06T14:56:02.000Z</time>
      </trkpt>
      <trkpt lat="45.83012" lon="4.94644">
        <ele>291.39999389648</ele>
        <time>2014-12-06T14:56:09.000Z</time>
      </trkpt>
      <trkpt lat="45.83017" lon="4.94573">
        <ele>292.60000610352</ele>
        <time>2014-12-06T14:56:17.000Z</time>
      </trkpt>
      <trkpt lat="45.83018" lon="4.94496">
        <ele>294.79998779297</ele>
        <time>2014-12-06T14:56:26.000Z</time>
      </trkpt>
      <trkpt lat="45.8301" lon="4.94412">
        <ele>298.20001220703</ele>
        <time>2014-12-06T14:56:36.000Z</time>
      </trkpt>
      <trkpt lat="45.83" lon="4.94343">
        <ele>301.39999389648</ele>
        <time>2014-12-06T14:56:45.000Z</time>
      </trkpt>
      <trkpt lat="45.83016" lon="4.94294">
        <ele>303.39999389648</ele>
        <time>2014-12-06T14:56:55.000Z</time>
      </trkpt>
      <trkpt lat="45.8307" lon="4.9427">
        <ele>304.79998779297</ele>
        <time>2014-12-06T14:57:05.000Z</time>
      </trkpt>
      <trkpt lat="45.8308" lon="4.94265">
        <ele>305.20001220703</ele>
        <time>2014-12-06T14:57:07.000Z</time>
      </trkpt>
      <trkpt lat="45.83098" lon="4.94238">
        <ele>306</ele>
        <time>2014-12-06T14:57:12.000Z</time>
      </trkpt>
      <trkpt lat="45.83131" lon="4.94176">
        <ele>307.20001220703</ele>
        <time>2014-12-06T14:57:22.000Z</time>
      </trkpt>
      <trkpt lat="45.83171" lon="4.94123">
        <ele>307.39999389648</ele>
        <time>2014-12-06T14:57:30.000Z</time>
      </trkpt>
      <trkpt lat="45.83214" lon="4.94074">
        <ele>307.20001220703</ele>
        <time>2014-12-06T14:57:38.000Z</time>
      </trkpt>
      <trkpt lat="45.83243" lon="4.94041">
        <ele>307</ele>
        <time>2014-12-06T14:57:43.000Z</time>
      </trkpt>
      <trkpt lat="45.83255" lon="4.94005">
        <ele>306.79998779297</ele>
        <time>2014-12-06T14:57:47.000Z</time>
      </trkpt>
      <trkpt lat="45.8327" lon="4.93924">
        <ele>306.79998779297</ele>
        <time>2014-12-06T14:57:55.000Z</time>
      </trkpt>
      <trkpt lat="45.83268" lon="4.93842">
        <ele>307.39999389648</ele>
        <time>2014-12-06T14:58:04.000Z</time>
      </trkpt>
      <trkpt lat="45.83265" lon="4.9379">
        <ele>307.79998779297</ele>
        <time>2014-12-06T14:58:11.000Z</time>
      </trkpt>
      <trkpt lat="45.83267" lon="4.93703">
        <ele>307.39999389648</ele>
        <time>2014-12-06T14:58:20.000Z</time>
      </trkpt>
      <trkpt lat="45.83288" lon="4.93624">
        <ele>306</ele>
        <time>2014-12-06T14:58:27.000Z</time>
      </trkpt>
      <trkpt lat="45.8331" lon="4.93542">
        <ele>304.60000610352</ele>
        <time>2014-12-06T14:58:34.000Z</time>
      </trkpt>
      <trkpt lat="45.83331" lon="4.9347">
        <ele>303.60000610352</ele>
        <time>2014-12-06T14:58:40.000Z</time>
      </trkpt>
      <trkpt lat="45.83355" lon="4.93391">
        <ele>302.39999389648</ele>
        <time>2014-12-06T14:58:47.000Z</time>
      </trkpt>
      <trkpt lat="45.83362" lon="4.93355">
        <ele>301.79998779297</ele>
        <time>2014-12-06T14:58:50.000Z</time>
      </trkpt>
      <trkpt lat="45.83355" lon="4.93267">
        <ele>300.20001220703</ele>
        <time>2014-12-06T14:58:57.000Z</time>
      </trkpt>
      <trkpt lat="45.83348" lon="4.93189">
        <ele>298.79998779297</ele>
        <time>2014-12-06T14:59:03.000Z</time>
      </trkpt>
      <trkpt lat="45.83348" lon="4.93176">
        <ele>298.60000610352</ele>
        <time>2014-12-06T14:59:04.000Z</time>
      </trkpt>
      <trkpt lat="45.83361" lon="4.93131">
        <ele>297.39999389648</ele>
        <time>2014-12-06T14:59:08.000Z</time>
      </trkpt>
      <trkpt lat="45.83387" lon="4.93058">
        <ele>296.20001220703</ele>
        <time>2014-12-06T14:59:15.000Z</time>
      </trkpt>
      <trkpt lat="45.83403" lon="4.92974">
        <ele>295</ele>
        <time>2014-12-06T14:59:22.000Z</time>
      </trkpt>
      <trkpt lat="45.83411" lon="4.92896">
        <ele>294.20001220703</ele>
        <time>2014-12-06T14:59:28.000Z</time>
      </trkpt>
      <trkpt lat="45.83413" lon="4.92857">
        <ele>293.79998779297</ele>
        <time>2014-12-06T14:59:31.000Z</time>
      </trkpt>
      <trkpt lat="45.83405" lon="4.9281">
        <ele>293.60000610352</ele>
        <time>2014-12-06T14:59:35.000Z</time>
      </trkpt>
      <trkpt lat="45.83424" lon="4.92736">
        <ele>293.20001220703</ele>
        <time>2014-12-06T14:59:42.000Z</time>
      </trkpt>
      <trkpt lat="45.83458" lon="4.92667">
        <ele>294.20001220703</ele>
        <time>2014-12-06T14:59:51.000Z</time>
      </trkpt>
      <trkpt lat="45.83488" lon="4.92601">
        <ele>295.20001220703</ele>
        <time>2014-12-06T15:00:00.000Z</time>
      </trkpt>
      <trkpt lat="45.83507" lon="4.92559">
        <ele>296</ele>
        <time>2014-12-06T15:00:06.000Z</time>
      </trkpt>
      <trkpt lat="45.83533" lon="4.92491">
        <ele>297.20001220703</ele>
        <time>2014-12-06T15:00:16.000Z</time>
      </trkpt>
      <trkpt lat="45.83538" lon="4.9247">
        <ele>297.39999389648</ele>
        <time>2014-12-06T15:00:19.000Z</time>
      </trkpt>
      <trkpt lat="45.83541" lon="4.92385">
        <ele>297.20001220703</ele>
        <time>2014-12-06T15:00:28.000Z</time>
      </trkpt>
      <trkpt lat="45.83542" lon="4.923">
        <ele>297</ele>
        <time>2014-12-06T15:00:36.000Z</time>
      </trkpt>
      <trkpt lat="45.83542" lon="4.92215">
        <ele>297.20001220703</ele>
        <time>2014-12-06T15:00:45.000Z</time>
      </trkpt>
      <trkpt lat="45.83541" lon="4.92132">
        <ele>297.79998779297</ele>
        <time>2014-12-06T15:00:53.000Z</time>
      </trkpt>
      <trkpt lat="45.8354" lon="4.92052">
        <ele>298.79998779297</ele>
        <time>2014-12-06T15:01:01.000Z</time>
      </trkpt>
      <trkpt lat="45.83538" lon="4.91974">
        <ele>299.79998779297</ele>
        <time>2014-12-06T15:01:09.000Z</time>
      </trkpt>
      <trkpt lat="45.83538" lon="4.91934">
        <ele>300.39999389648</ele>
        <time>2014-12-06T15:01:13.000Z</time>
      </trkpt>
      <trkpt lat="45.83536" lon="4.91849">
        <ele>302</ele>
        <time>2014-12-06T15:01:22.000Z</time>
      </trkpt>
      <trkpt lat="45.83531" lon="4.91772">
        <ele>303.79998779297</ele>
        <time>2014-12-06T15:01:31.000Z</time>
      </trkpt>
      <trkpt lat="45.83524" lon="4.91687">
        <ele>305.39999389648</ele>
        <time>2014-12-06T15:01:40.000Z</time>
      </trkpt>
      <trkpt lat="45.83519" lon="4.91607">
        <ele>305</ele>
        <time>2014-12-06T15:01:47.000Z</time>
      </trkpt>
      <trkpt lat="45.83521" lon="4.91528">
        <ele>304</ele>
        <time>2014-12-06T15:01:53.000Z</time>
      </trkpt>
      <trkpt lat="45.83524" lon="4.91448">
        <ele>304.20001220703</ele>
        <time>2014-12-06T15:02:00.000Z</time>
      </trkpt>
      <trkpt lat="45.83527" lon="4.91364">
        <ele>306.20001220703</ele>
        <time>2014-12-06T15:02:11.000Z</time>
      </trkpt>
      <trkpt lat="45.83528" lon="4.91357">
        <ele>306.39999389648</ele>
        <time>2014-12-06T15:02:12.000Z</time>
      </trkpt>
      <trkpt lat="45.83528" lon="4.91326">
        <ele>308.39999389648</ele>
        <time>2014-12-06T15:02:20.000Z</time>
      </trkpt>
      <trkpt lat="45.83494" lon="4.91268">
        <ele>311.20001220703</ele>
        <time>2014-12-06T15:03:00.000Z</time>
      </trkpt>
      <trkpt lat="45.83451" lon="4.9123">
        <ele>311.39999389648</ele>
        <time>2014-12-06T15:03:11.000Z</time>
      </trkpt>
      <trkpt lat="45.83446" lon="4.91179">
        <ele>312</ele>
        <time>2014-12-06T15:03:18.000Z</time>
      </trkpt>
      <trkpt lat="45.83449" lon="4.9113">
        <ele>312.79998779297</ele>
        <time>2014-12-06T15:03:24.000Z</time>
      </trkpt>
      <trkpt lat="45.83477" lon="4.91063">
        <ele>313.39999389648</ele>
        <time>2014-12-06T15:03:37.000Z</time>
      </trkpt>
      <trkpt lat="45.8351" lon="4.90993">
        <ele>313.20001220703</ele>
        <time>2014-12-06T15:03:48.000Z</time>
      </trkpt>
      <trkpt lat="45.83522" lon="4.90971">
        <ele>314</ele>
        <time>2014-12-06T15:03:52.000Z</time>
      </trkpt>
      <trkpt lat="45.83533" lon="4.90934">
        <ele>315.39999389648</ele>
        <time>2014-12-06T15:03:58.000Z</time>
      </trkpt>
      <trkpt lat="45.83542" lon="4.90857">
        <ele>318.60000610352</ele>
        <time>2014-12-06T15:04:08.000Z</time>
      </trkpt>
      <trkpt lat="45.83548" lon="4.9078">
        <ele>320.79998779297</ele>
        <time>2014-12-06T15:04:18.000Z</time>
      </trkpt>
      <trkpt lat="45.83561" lon="4.90701">
        <ele>320.39999389648</ele>
        <time>2014-12-06T15:04:25.000Z</time>
      </trkpt>
      <trkpt lat="45.83573" lon="4.9062">
        <ele>319.60000610352</ele>
        <time>2014-12-06T15:04:33.000Z</time>
      </trkpt>
      <trkpt lat="45.83573" lon="4.90611">
        <ele>319.60000610352</ele>
        <time>2014-12-06T15:04:34.000Z</time>
      </trkpt>
      <trkpt lat="45.83581" lon="4.90566">
        <ele>319.20001220703</ele>
        <time>2014-12-06T15:04:39.000Z</time>
      </trkpt>
      <trkpt lat="45.83592" lon="4.90482">
        <ele>318.20001220703</ele>
        <time>2014-12-06T15:04:47.000Z</time>
      </trkpt>
      <trkpt lat="45.836" lon="4.90405">
        <ele>316.20001220703</ele>
        <time>2014-12-06T15:04:53.000Z</time>
      </trkpt>
      <trkpt lat="45.83604" lon="4.90323">
        <ele>313.60000610352</ele>
        <time>2014-12-06T15:04:58.000Z</time>
      </trkpt>
      <trkpt lat="45.83601" lon="4.90271">
        <ele>311.79998779297</ele>
        <time>2014-12-06T15:05:01.000Z</time>
      </trkpt>
      <trkpt lat="45.83588" lon="4.90189">
        <ele>308.79998779297</ele>
        <time>2014-12-06T15:05:06.000Z</time>
      </trkpt>
      <trkpt lat="45.83577" lon="4.90107">
        <ele>306</ele>
        <time>2014-12-06T15:05:11.000Z</time>
      </trkpt>
      <trkpt lat="45.83572" lon="4.90024">
        <ele>302.79998779297</ele>
        <time>2014-12-06T15:05:16.000Z</time>
      </trkpt>
      <trkpt lat="45.83571" lon="4.89941">
        <ele>300</ele>
        <time>2014-12-06T15:05:21.000Z</time>
      </trkpt>
      <trkpt lat="45.83567" lon="4.89862">
        <ele>297.60000610352</ele>
        <time>2014-12-06T15:05:26.000Z</time>
      </trkpt>
      <trkpt lat="45.83567" lon="4.89773">
        <ele>294.60000610352</ele>
        <time>2014-12-06T15:05:32.000Z</time>
      </trkpt>
      <trkpt lat="45.83576" lon="4.89685">
        <ele>291.20001220703</ele>
        <time>2014-12-06T15:05:38.000Z</time>
      </trkpt>
      <trkpt lat="45.83589" lon="4.896">
        <ele>288</ele>
        <time>2014-12-06T15:05:44.000Z</time>
      </trkpt>
      <trkpt lat="45.83601" lon="4.89519">
        <ele>285.20001220703</ele>
        <time>2014-12-06T15:05:50.000Z</time>
      </trkpt>
      <trkpt lat="45.83609" lon="4.8944">
        <ele>283</ele>
        <time>2014-12-06T15:05:56.000Z</time>
      </trkpt>
      <trkpt lat="45.83605" lon="4.89362">
        <ele>281.60000610352</ele>
        <time>2014-12-06T15:06:02.000Z</time>
      </trkpt>
      <trkpt lat="45.83596" lon="4.89282">
        <ele>281.60000610352</ele>
        <time>2014-12-06T15:06:09.000Z</time>
      </trkpt>
      <trkpt lat="45.83587" lon="4.89203">
        <ele>283.39999389648</ele>
        <time>2014-12-06T15:06:17.000Z</time>
      </trkpt>
      <trkpt lat="45.83579" lon="4.89124">
        <ele>286.60000610352</ele>
        <time>2014-12-06T15:06:26.000Z</time>
      </trkpt>
      <trkpt lat="45.83569" lon="4.89043">
        <ele>289.60000610352</ele>
        <time>2014-12-06T15:06:36.000Z</time>
      </trkpt>
      <trkpt lat="45.83561" lon="4.88963">
        <ele>290</ele>
        <time>2014-12-06T15:06:44.000Z</time>
      </trkpt>
      <trkpt lat="45.83552" lon="4.88882">
        <ele>289</ele>
        <time>2014-12-06T15:06:50.000Z</time>
      </trkpt>
      <trkpt lat="45.83535" lon="4.88802">
        <ele>288.39999389648</ele>
        <time>2014-12-06T15:06:56.000Z</time>
      </trkpt>
      <trkpt lat="45.835" lon="4.88734">
        <ele>288</ele>
        <time>2014-12-06T15:07:03.000Z</time>
      </trkpt>
      <trkpt lat="45.83473" lon="4.88671">
        <ele>288.60000610352</ele>
        <time>2014-12-06T15:07:10.000Z</time>
      </trkpt>
      <trkpt lat="45.83468" lon="4.88644">
        <ele>289.20001220703</ele>
        <time>2014-12-06T15:07:13.000Z</time>
      </trkpt>
      <trkpt lat="45.83461" lon="4.88561">
        <ele>291</ele>
        <time>2014-12-06T15:07:22.000Z</time>
      </trkpt>
      <trkpt lat="45.83458" lon="4.88494">
        <ele>291.79998779297</ele>
        <time>2014-12-06T15:07:29.000Z</time>
      </trkpt>
      <trkpt lat="45.83459" lon="4.88472">
        <ele>292</ele>
        <time>2014-12-06T15:07:32.000Z</time>
      </trkpt>
      <trkpt lat="45.83486" lon="4.88449">
        <ele>291</ele>
        <time>2014-12-06T15:07:45.000Z</time>
      </trkpt>
      <trkpt lat="45.83503" lon="4.88447">
        <ele>290.39999389648</ele>
        <time>2014-12-06T15:07:49.000Z</time>
      </trkpt>
      <trkpt lat="45.8356" lon="4.88439">
        <ele>289</ele>
        <time>2014-12-06T15:08:00.000Z</time>
      </trkpt>
      <trkpt lat="45.83619" lon="4.88431">
        <ele>288.39999389648</ele>
        <time>2014-12-06T15:08:10.000Z</time>
      </trkpt>
      <trkpt lat="45.83642" lon="4.88431">
        <ele>288.39999389648</ele>
        <time>2014-12-06T15:08:14.000Z</time>
      </trkpt>
      <trkpt lat="45.83659" lon="4.88436">
        <ele>288.39999389648</ele>
        <time>2014-12-06T15:08:17.000Z</time>
      </trkpt>
      <trkpt lat="45.83713" lon="4.88453">
        <ele>289</ele>
        <time>2014-12-06T15:08:27.000Z</time>
      </trkpt>
      <trkpt lat="45.83733" lon="4.8846">
        <ele>289.20001220703</ele>
        <time>2014-12-06T15:08:31.000Z</time>
      </trkpt>
      <trkpt lat="45.83788" lon="4.88486">
        <ele>289.39999389648</ele>
        <time>2014-12-06T15:08:41.000Z</time>
      </trkpt>
      <trkpt lat="45.83795" lon="4.88487">
        <ele>289.39999389648</ele>
        <time>2014-12-06T15:08:42.000Z</time>
      </trkpt>
      <trkpt lat="45.83828" lon="4.88439">
        <ele>289.39999389648</ele>
        <time>2014-12-06T15:08:49.000Z</time>
      </trkpt>
      <trkpt lat="45.83829" lon="4.88429">
        <ele>289.39999389648</ele>
        <time>2014-12-06T15:08:50.000Z</time>
      </trkpt>
      <trkpt lat="45.83844" lon="4.88352">
        <ele>288.79998779297</ele>
        <time>2014-12-06T15:08:58.000Z</time>
      </trkpt>
      <trkpt lat="45.83854" lon="4.88276">
        <ele>287.79998779297</ele>
        <time>2014-12-06T15:09:05.000Z</time>
      </trkpt>
      <trkpt lat="45.83841" lon="4.88219">
        <ele>286.79998779297</ele>
        <time>2014-12-06T15:09:10.000Z</time>
      </trkpt>
      <trkpt lat="45.83816" lon="4.88145">
        <ele>285.60000610352</ele>
        <time>2014-12-06T15:09:17.000Z</time>
      </trkpt>
      <trkpt lat="45.83792" lon="4.88071">
        <ele>284.60000610352</ele>
        <time>2014-12-06T15:09:24.000Z</time>
      </trkpt>
      <trkpt lat="45.83772" lon="4.88009">
        <ele>283.79998779297</ele>
        <time>2014-12-06T15:09:30.000Z</time>
      </trkpt>
      <trkpt lat="45.83734" lon="4.87942">
        <ele>282.60000610352</ele>
        <time>2014-12-06T15:09:37.000Z</time>
      </trkpt>
      <trkpt lat="45.83703" lon="4.879">
        <ele>281.79998779297</ele>
        <time>2014-12-06T15:09:42.000Z</time>
      </trkpt>
      <trkpt lat="45.83654" lon="4.87852">
        <ele>280.79998779297</ele>
        <time>2014-12-06T15:09:50.000Z</time>
      </trkpt>
      <trkpt lat="45.83606" lon="4.87809">
        <ele>280.60000610352</ele>
        <time>2014-12-06T15:09:59.000Z</time>
      </trkpt>
      <trkpt lat="45.83588" lon="4.87789">
        <ele>281</ele>
        <time>2014-12-06T15:10:03.000Z</time>
      </trkpt>
      <trkpt lat="45.83573" lon="4.87764">
        <ele>281.39999389648</ele>
        <time>2014-12-06T15:10:07.000Z</time>
      </trkpt>
      <trkpt lat="45.83568" lon="4.87751">
        <ele>281.39999389648</ele>
        <time>2014-12-06T15:10:09.000Z</time>
      </trkpt>
      <trkpt lat="45.83567" lon="4.87727">
        <ele>281.60000610352</ele>
        <time>2014-12-06T15:10:16.000Z</time>
      </trkpt>
      <trkpt lat="45.83567" lon="4.87726">
        <ele>281.79998779297</ele>
        <time>2014-12-06T15:10:21.000Z</time>
      </trkpt>
      <trkpt lat="45.83563" lon="4.87719">
        <ele>281.60000610352</ele>
        <time>2014-12-06T15:10:27.000Z</time>
      </trkpt>
      <trkpt lat="45.83556" lon="4.87709">
        <ele>281.60000610352</ele>
        <time>2014-12-06T15:10:32.000Z</time>
      </trkpt>
      <trkpt lat="45.83559" lon="4.87674">
        <ele>281.60000610352</ele>
        <time>2014-12-06T15:10:37.000Z</time>
      </trkpt>
      <trkpt lat="45.83564" lon="4.87594">
        <ele>282</ele>
        <time>2014-12-06T15:10:46.000Z</time>
      </trkpt>
      <trkpt lat="45.83577" lon="4.87521">
        <ele>282.20001220703</ele>
        <time>2014-12-06T15:10:53.000Z</time>
      </trkpt>
      <trkpt lat="45.83605" lon="4.87447">
        <ele>282</ele>
        <time>2014-12-06T15:11:00.000Z</time>
      </trkpt>
      <trkpt lat="45.83634" lon="4.87375">
        <ele>282.20001220703</ele>
        <time>2014-12-06T15:11:07.000Z</time>
      </trkpt>
      <trkpt lat="45.83648" lon="4.87335">
        <ele>282</ele>
        <time>2014-12-06T15:11:11.000Z</time>
      </trkpt>
      <trkpt lat="45.83674" lon="4.87285">
        <ele>282.20001220703</ele>
        <time>2014-12-06T15:11:17.000Z</time>
      </trkpt>
      <trkpt lat="45.83714" lon="4.87231">
        <ele>282.60000610352</ele>
        <time>2014-12-06T15:11:25.000Z</time>
      </trkpt>
      <trkpt lat="45.83725" lon="4.87201">
        <ele>282.79998779297</ele>
        <time>2014-12-06T15:11:28.000Z</time>
      </trkpt>
      <trkpt lat="45.83741" lon="4.87127">
        <ele>283.39999389648</ele>
        <time>2014-12-06T15:11:36.000Z</time>
      </trkpt>
      <trkpt lat="45.83757" lon="4.87049">
        <ele>283.60000610352</ele>
        <time>2014-12-06T15:11:45.000Z</time>
      </trkpt>
      <trkpt lat="45.83772" lon="4.86973">
        <ele>284.20001220703</ele>
        <time>2014-12-06T15:11:54.000Z</time>
      </trkpt>
      <trkpt lat="45.83788" lon="4.86893">
        <ele>284</ele>
        <time>2014-12-06T15:12:02.000Z</time>
      </trkpt>
      <trkpt lat="45.83804" lon="4.86808">
        <ele>283</ele>
        <time>2014-12-06T15:12:10.000Z</time>
      </trkpt>
      <trkpt lat="45.83816" lon="4.86732">
        <ele>281.20001220703</ele>
        <time>2014-12-06T15:12:17.000Z</time>
      </trkpt>
      <trkpt lat="45.83823" lon="4.86696">
        <ele>280</ele>
        <time>2014-12-06T15:12:22.000Z</time>
      </trkpt>
      <trkpt lat="45.83825" lon="4.86677">
        <ele>279.79998779297</ele>
        <time>2014-12-06T15:12:25.000Z</time>
      </trkpt>
      <trkpt lat="45.83826" lon="4.8666">
        <ele>279.60000610352</ele>
        <time>2014-12-06T15:12:27.000Z</time>
      </trkpt>
      <trkpt lat="45.83843" lon="4.86605">
        <ele>279.39999389648</ele>
        <time>2014-12-06T15:12:34.000Z</time>
      </trkpt>
      <trkpt lat="45.83854" lon="4.86536">
        <ele>278</ele>
        <time>2014-12-06T15:12:40.000Z</time>
      </trkpt>
      <trkpt lat="45.83873" lon="4.86502">
        <ele>277.20001220703</ele>
        <time>2014-12-06T15:12:44.000Z</time>
      </trkpt>
      <trkpt lat="45.8389" lon="4.86432">
        <ele>276.39999389648</ele>
        <time>2014-12-06T15:12:51.000Z</time>
      </trkpt>
      <trkpt lat="45.8392" lon="4.86364">
        <ele>277.20001220703</ele>
        <time>2014-12-06T15:12:59.000Z</time>
      </trkpt>
      <trkpt lat="45.83924" lon="4.86348">
        <ele>277.60000610352</ele>
        <time>2014-12-06T15:13:01.000Z</time>
      </trkpt>
      <trkpt lat="45.8393" lon="4.86322">
        <ele>278</ele>
        <time>2014-12-06T15:13:04.000Z</time>
      </trkpt>
      <trkpt lat="45.83935" lon="4.86278">
        <ele>278.60000610352</ele>
        <time>2014-12-06T15:13:09.000Z</time>
      </trkpt>
      <trkpt lat="45.83939" lon="4.86231">
        <ele>279</ele>
        <time>2014-12-06T15:13:14.000Z</time>
      </trkpt>
      <trkpt lat="45.83949" lon="4.86152">
        <ele>279</ele>
        <time>2014-12-06T15:13:22.000Z</time>
      </trkpt>
      <trkpt lat="45.83959" lon="4.86073">
        <ele>277.79998779297</ele>
        <time>2014-12-06T15:13:29.000Z</time>
      </trkpt>
      <trkpt lat="45.8396" lon="4.85986">
        <ele>275</ele>
        <time>2014-12-06T15:13:35.000Z</time>
      </trkpt>
      <trkpt lat="45.8396" lon="4.85895">
        <ele>271.60000610352</ele>
        <time>2014-12-06T15:13:40.000Z</time>
      </trkpt>
      <trkpt lat="45.83964" lon="4.85813">
        <ele>268.20001220703</ele>
        <time>2014-12-06T15:13:45.000Z</time>
      </trkpt>
      <trkpt lat="45.83964" lon="4.85771">
        <ele>266.60000610352</ele>
        <time>2014-12-06T15:13:48.000Z</time>
      </trkpt>
      <trkpt lat="45.83939" lon="4.85717">
        <ele>263.79998779297</ele>
        <time>2014-12-06T15:13:53.000Z</time>
      </trkpt>
      <trkpt lat="45.8389" lon="4.8566">
        <ele>260.60000610352</ele>
        <time>2014-12-06T15:13:59.000Z</time>
      </trkpt>
      <trkpt lat="45.83884" lon="4.85648">
        <ele>260</ele>
        <time>2014-12-06T15:14:00.000Z</time>
      </trkpt>
      <trkpt lat="45.83883" lon="4.85572">
        <ele>256.39999389648</ele>
        <time>2014-12-06T15:14:06.000Z</time>
      </trkpt>
      <trkpt lat="45.83884" lon="4.85565">
        <ele>256</ele>
        <time>2014-12-06T15:14:07.000Z</time>
      </trkpt>
      <trkpt lat="45.83886" lon="4.8556">
        <ele>255.39999389648</ele>
        <time>2014-12-06T15:14:08.000Z</time>
      </trkpt>
      <trkpt lat="45.83892" lon="4.85543">
        <ele>253.80000305176</ele>
        <time>2014-12-06T15:14:12.000Z</time>
      </trkpt>
      <trkpt lat="45.83852" lon="4.85476">
        <ele>249.80000305176</ele>
        <time>2014-12-06T15:14:21.000Z</time>
      </trkpt>
      <trkpt lat="45.83815" lon="4.8541">
        <ele>247.19999694824</ele>
        <time>2014-12-06T15:14:27.000Z</time>
      </trkpt>
      <trkpt lat="45.83784" lon="4.8533">
        <ele>244.39999389648</ele>
        <time>2014-12-06T15:14:33.000Z</time>
      </trkpt>
      <trkpt lat="45.83768" lon="4.85243">
        <ele>242</ele>
        <time>2014-12-06T15:14:39.000Z</time>
      </trkpt>
      <trkpt lat="45.83757" lon="4.85159">
        <ele>239.60000610352</ele>
        <time>2014-12-06T15:14:45.000Z</time>
      </trkpt>
      <trkpt lat="45.83754" lon="4.85133">
        <ele>238.19999694824</ele>
        <time>2014-12-06T15:14:47.000Z</time>
      </trkpt>
      <trkpt lat="45.83767" lon="4.85081">
        <ele>235.60000610352</ele>
        <time>2014-12-06T15:14:51.000Z</time>
      </trkpt>
      <trkpt lat="45.83779" lon="4.85034">
        <ele>232.60000610352</ele>
        <time>2014-12-06T15:14:56.000Z</time>
      </trkpt>
      <trkpt lat="45.83736" lon="4.84992">
        <ele>225.80000305176</ele>
        <time>2014-12-06T15:15:04.000Z</time>
      </trkpt>
      <trkpt lat="45.8372" lon="4.84904">
        <ele>219</ele>
        <time>2014-12-06T15:15:11.000Z</time>
      </trkpt>
      <trkpt lat="45.83679" lon="4.84897">
        <ele>213</ele>
        <time>2014-12-06T15:15:17.000Z</time>
      </trkpt>
      <trkpt lat="45.83649" lon="4.84905">
        <ele>209</ele>
        <time>2014-12-06T15:15:21.000Z</time>
      </trkpt>
      <trkpt lat="45.83668" lon="4.84849">
        <ele>200.60000610352</ele>
        <time>2014-12-06T15:15:30.000Z</time>
      </trkpt>
      <trkpt lat="45.83678" lon="4.84772">
        <ele>196.39999389648</ele>
        <time>2014-12-06T15:15:36.000Z</time>
      </trkpt>
      <trkpt lat="45.83679" lon="4.84693">
        <ele>190.80000305176</ele>
        <time>2014-12-06T15:15:44.000Z</time>
      </trkpt>
      <trkpt lat="45.83672" lon="4.84675">
        <ele>188</ele>
        <time>2014-12-06T15:15:50.000Z</time>
      </trkpt>
      <trkpt lat="45.83645" lon="4.84683">
        <ele>185.60000610352</ele>
        <time>2014-12-06T15:15:55.000Z</time>
      </trkpt>
      <trkpt lat="45.83588" lon="4.84707">
        <ele>182.60000610352</ele>
        <time>2014-12-06T15:16:03.000Z</time>
      </trkpt>
      <trkpt lat="45.83532" lon="4.84735">
        <ele>180.80000305176</ele>
        <time>2014-12-06T15:16:10.000Z</time>
      </trkpt>
      <trkpt lat="45.83499" lon="4.84749">
        <ele>179.39999389648</ele>
        <time>2014-12-06T15:16:16.000Z</time>
      </trkpt>
      <trkpt lat="45.83496" lon="4.84712">
        <ele>176.19999694824</ele>
        <time>2014-12-06T15:16:22.000Z</time>
      </trkpt>
      <trkpt lat="45.83504" lon="4.84674">
        <ele>173.80000305176</ele>
        <time>2014-12-06T15:16:27.000Z</time>
      </trkpt>
      <trkpt lat="45.83511" lon="4.8464">
        <ele>171.19999694824</ele>
        <time>2014-12-06T15:16:32.000Z</time>
      </trkpt>
      <trkpt lat="45.83515" lon="4.84613">
        <ele>168.80000305176</ele>
        <time>2014-12-06T15:16:37.000Z</time>
      </trkpt>
      <trkpt lat="45.83517" lon="4.84578">
        <ele>166</ele>
        <time>2014-12-06T15:16:44.000Z</time>
      </trkpt>
      <trkpt lat="45.83503" lon="4.84573">
        <ele>166.19999694824</ele>
        <time>2014-12-06T15:16:48.000Z</time>
      </trkpt>
      <trkpt lat="45.83449" lon="4.84569">
        <ele>165</ele>
        <time>2014-12-06T15:16:57.000Z</time>
      </trkpt>
      <trkpt lat="45.83394" lon="4.84568">
        <ele>164.60000610352</ele>
        <time>2014-12-06T15:17:05.000Z</time>
      </trkpt>
      <trkpt lat="45.83351" lon="4.84564">
        <ele>164.60000610352</ele>
        <time>2014-12-06T15:17:13.000Z</time>
      </trkpt>
      <trkpt lat="45.83322" lon="4.84577">
        <ele>165</ele>
        <time>2014-12-06T15:17:47.000Z</time>
      </trkpt>
      <trkpt lat="45.83304" lon="4.8465">
        <ele>162</ele>
        <time>2014-12-06T15:18:02.000Z</time>
      </trkpt>
      <trkpt lat="45.83281" lon="4.8473">
        <ele>161.19999694824</ele>
        <time>2014-12-06T15:18:12.000Z</time>
      </trkpt>
      <trkpt lat="45.8326" lon="4.84803">
        <ele>162.60000610352</ele>
        <time>2014-12-06T15:18:23.000Z</time>
      </trkpt>
      <trkpt lat="45.83237" lon="4.84859">
        <ele>165.60000610352</ele>
        <time>2014-12-06T15:19:01.000Z</time>
      </trkpt>
      <trkpt lat="45.83229" lon="4.84861">
        <ele>165.60000610352</ele>
        <time>2014-12-06T15:19:03.000Z</time>
      </trkpt>
      <trkpt lat="45.83182" lon="4.84812">
        <ele>167.60000610352</ele>
        <time>2014-12-06T15:19:14.000Z</time>
      </trkpt>
      <trkpt lat="45.83156" lon="4.84787">
        <ele>168.60000610352</ele>
        <time>2014-12-06T15:19:20.000Z</time>
      </trkpt>
      <trkpt lat="45.8311" lon="4.84742">
        <ele>168.80000305176</ele>
        <time>2014-12-06T15:19:29.000Z</time>
      </trkpt>
      <trkpt lat="45.83107" lon="4.84735">
        <ele>168.60000610352</ele>
        <time>2014-12-06T15:19:30.000Z</time>
      </trkpt>
      <trkpt lat="45.83101" lon="4.84715">
        <ele>168.80000305176</ele>
        <time>2014-12-06T15:19:33.000Z</time>
      </trkpt>
      <trkpt lat="45.83081" lon="4.84723">
        <ele>169</ele>
        <time>2014-12-06T15:19:39.000Z</time>
      </trkpt>
      <trkpt lat="45.83082" lon="4.84731">
        <ele>169</ele>
        <time>2014-12-06T15:19:40.000Z</time>
      </trkpt>
      <trkpt lat="45.831" lon="4.8474">
        <ele>169</ele>
        <time>2014-12-06T15:19:44.000Z</time>
      </trkpt>
      <trkpt lat="45.83089" lon="4.84706">
        <ele>169.19999694824</ele>
        <time>2014-12-06T15:19:49.000Z</time>
      </trkpt>
      <trkpt lat="45.83081" lon="4.84705">
        <ele>169.39999389648</ele>
        <time>2014-12-06T15:19:50.000Z</time>
      </trkpt>
      <trkpt lat="45.83066" lon="4.84695">
        <ele>169.60000610352</ele>
        <time>2014-12-06T15:19:52.000Z</time>
      </trkpt>
      <trkpt lat="45.83018" lon="4.84647">
        <ele>170.39999389648</ele>
        <time>2014-12-06T15:20:00.000Z</time>
      </trkpt>
      <trkpt lat="45.82983" lon="4.8461">
        <ele>171.80000305176</ele>
        <time>2014-12-06T15:20:09.000Z</time>
      </trkpt>
      <trkpt lat="45.82982" lon="4.84599">
        <ele>172.19999694824</ele>
        <time>2014-12-06T15:20:11.000Z</time>
      </trkpt>
      <trkpt lat="45.83026" lon="4.84546">
        <ele>173.60000610352</ele>
        <time>2014-12-06T15:20:24.000Z</time>
      </trkpt>
      <trkpt lat="45.83034" lon="4.84539">
        <ele>173.80000305176</ele>
        <time>2014-12-06T15:20:26.000Z</time>
      </trkpt>
      <trkpt lat="45.83086" lon="4.84527">
        <ele>173.80000305176</ele>
        <time>2014-12-06T15:20:37.000Z</time>
      </trkpt>
      <trkpt lat="45.83098" lon="4.84515">
        <ele>173.60000610352</ele>
        <time>2014-12-06T15:20:41.000Z</time>
      </trkpt>
      <trkpt lat="45.83097" lon="4.84505">
        <ele>174.19999694824</ele>
        <time>2014-12-06T15:20:43.000Z</time>
      </trkpt>
      <trkpt lat="45.8309" lon="4.84453">
        <ele>176.39999389648</ele>
        <time>2014-12-06T15:20:54.000Z</time>
      </trkpt>
      <trkpt lat="45.83074" lon="4.84399">
        <ele>181.39999389648</ele>
        <time>2014-12-06T15:21:05.000Z</time>
      </trkpt>
      <trkpt lat="45.83067" lon="4.84402">
        <ele>182</ele>
        <time>2014-12-06T15:21:07.000Z</time>
      </trkpt>
      <trkpt lat="45.83056" lon="4.8442">
        <ele>183.39999389648</ele>
        <time>2014-12-06T15:21:11.000Z</time>
      </trkpt>
      <trkpt lat="45.8304" lon="4.84441">
        <ele>184.39999389648</ele>
        <time>2014-12-06T15:21:17.000Z</time>
      </trkpt>
      <trkpt lat="45.83041" lon="4.8443">
        <ele>184.80000305176</ele>
        <time>2014-12-06T15:21:22.000Z</time>
      </trkpt>
      <trkpt lat="45.8305" lon="4.84418">
        <ele>185</ele>
        <time>2014-12-06T15:21:27.000Z</time>
      </trkpt>
      <trkpt lat="45.83055" lon="4.84344">
        <ele>192.19999694824</ele>
        <time>2014-12-06T15:21:47.000Z</time>
      </trkpt>
      <trkpt lat="45.83038" lon="4.8427">
        <ele>202.80000305176</ele>
        <time>2014-12-06T15:22:07.000Z</time>
      </trkpt>
      <trkpt lat="45.83004" lon="4.84208">
        <ele>211.60000610352</ele>
        <time>2014-12-06T15:22:29.000Z</time>
      </trkpt>
      <trkpt lat="45.82966" lon="4.84152">
        <ele>220</ele>
        <time>2014-12-06T15:22:50.000Z</time>
      </trkpt>
      <trkpt lat="45.82915" lon="4.84139">
        <ele>224.60000610352</ele>
        <time>2014-12-06T15:23:09.000Z</time>
      </trkpt>
      <trkpt lat="45.82901" lon="4.84063">
        <ele>231.19999694824</ele>
        <time>2014-12-06T15:23:27.000Z</time>
      </trkpt>
      <trkpt lat="45.82898" lon="4.84031">
        <ele>235</ele>
        <time>2014-12-06T15:23:37.000Z</time>
      </trkpt>
      <trkpt lat="45.82896" lon="4.84">
        <ele>237.60000610352</ele>
        <time>2014-12-06T15:23:48.000Z</time>
      </trkpt>
      <trkpt lat="45.82882" lon="4.83925">
        <ele>242</ele>
        <time>2014-12-06T15:24:07.000Z</time>
      </trkpt>
      <trkpt lat="45.82876" lon="4.83848">
        <ele>247.39999389648</ele>
        <time>2014-12-06T15:24:23.000Z</time>
      </trkpt>
      <trkpt lat="45.82846" lon="4.8378">
        <ele>252</ele>
        <time>2014-12-06T15:24:38.000Z</time>
      </trkpt>
      <trkpt lat="45.82841" lon="4.83768">
        <ele>252.60000610352</ele>
        <time>2014-12-06T15:24:40.000Z</time>
      </trkpt>
      <trkpt lat="45.82832" lon="4.83689">
        <ele>254.80000305176</ele>
        <time>2014-12-06T15:24:51.000Z</time>
      </trkpt>
      <trkpt lat="45.82826" lon="4.83608">
        <ele>257.39999389648</ele>
        <time>2014-12-06T15:25:03.000Z</time>
      </trkpt>
      <trkpt lat="45.82821" lon="4.83531">
        <ele>260.39999389648</ele>
        <time>2014-12-06T15:25:17.000Z</time>
      </trkpt>
      <trkpt lat="45.82839" lon="4.83524">
        <ele>261.20001220703</ele>
        <time>2014-12-06T15:25:22.000Z</time>
      </trkpt>
      <trkpt lat="45.82851" lon="4.83525">
        <ele>261.79998779297</ele>
        <time>2014-12-06T15:25:25.000Z</time>
      </trkpt>
      <trkpt lat="45.82907" lon="4.83515">
        <ele>262.60000610352</ele>
        <time>2014-12-06T15:25:38.000Z</time>
      </trkpt>
      <trkpt lat="45.82911" lon="4.83514">
        <ele>262.60000610352</ele>
        <time>2014-12-06T15:25:39.000Z</time>
      </trkpt>
      <trkpt lat="45.82964" lon="4.83482">
        <ele>262.39999389648</ele>
        <time>2014-12-06T15:25:51.000Z</time>
      </trkpt>
      <trkpt lat="45.83021" lon="4.83447">
        <ele>261.20001220703</ele>
        <time>2014-12-06T15:26:00.000Z</time>
      </trkpt>
      <trkpt lat="45.83076" lon="4.83414">
        <ele>259.79998779297</ele>
        <time>2014-12-06T15:26:07.000Z</time>
      </trkpt>
      <trkpt lat="45.83117" lon="4.83387">
        <ele>258.60000610352</ele>
        <time>2014-12-06T15:26:13.000Z</time>
      </trkpt>
      <trkpt lat="45.83165" lon="4.83337">
        <ele>256.79998779297</ele>
        <time>2014-12-06T15:26:22.000Z</time>
      </trkpt>
      <trkpt lat="45.83206" lon="4.83277">
        <ele>255.80000305176</ele>
        <time>2014-12-06T15:26:31.000Z</time>
      </trkpt>
      <trkpt lat="45.83243" lon="4.83214">
        <ele>254.60000610352</ele>
        <time>2014-12-06T15:26:40.000Z</time>
      </trkpt>
      <trkpt lat="45.83284" lon="4.83156">
        <ele>254.39999389648</ele>
        <time>2014-12-06T15:26:49.000Z</time>
      </trkpt>
      <trkpt lat="45.83293" lon="4.83143">
        <ele>254.60000610352</ele>
        <time>2014-12-06T15:26:51.000Z</time>
      </trkpt>
      <trkpt lat="45.83326" lon="4.83072">
        <ele>254.60000610352</ele>
        <time>2014-12-06T15:26:59.000Z</time>
      </trkpt>
      <trkpt lat="45.8336" lon="4.83005">
        <ele>253.80000305176</ele>
        <time>2014-12-06T15:27:06.000Z</time>
      </trkpt>
      <trkpt lat="45.83366" lon="4.82998">
        <ele>253.80000305176</ele>
        <time>2014-12-06T15:27:07.000Z</time>
      </trkpt>
      <trkpt lat="45.83399" lon="4.8297">
        <ele>253.60000610352</ele>
        <time>2014-12-06T15:27:12.000Z</time>
      </trkpt>
      <trkpt lat="45.83421" lon="4.82919">
        <ele>252.80000305176</ele>
        <time>2014-12-06T15:27:17.000Z</time>
      </trkpt>
      <trkpt lat="45.83425" lon="4.82906">
        <ele>252.80000305176</ele>
        <time>2014-12-06T15:27:18.000Z</time>
      </trkpt>
      <trkpt lat="45.83444" lon="4.82838">
        <ele>252.80000305176</ele>
        <time>2014-12-06T15:27:24.000Z</time>
      </trkpt>
      <trkpt lat="45.83452" lon="4.82761">
        <ele>252.19999694824</ele>
        <time>2014-12-06T15:27:32.000Z</time>
      </trkpt>
      <trkpt lat="45.83487" lon="4.8269">
        <ele>250</ele>
        <time>2014-12-06T15:27:39.000Z</time>
      </trkpt>
      <trkpt lat="45.8352" lon="4.82618">
        <ele>246.80000305176</ele>
        <time>2014-12-06T15:27:45.000Z</time>
      </trkpt>
      <trkpt lat="45.83546" lon="4.82536">
        <ele>243</ele>
        <time>2014-12-06T15:27:51.000Z</time>
      </trkpt>
      <trkpt lat="45.83571" lon="4.82454">
        <ele>238.39999389648</ele>
        <time>2014-12-06T15:27:57.000Z</time>
      </trkpt>
      <trkpt lat="45.83577" lon="4.82441">
        <ele>237.60000610352</ele>
        <time>2014-12-06T15:27:58.000Z</time>
      </trkpt>
      <trkpt lat="45.83597" lon="4.82403">
        <ele>235.19999694824</ele>
        <time>2014-12-06T15:28:01.000Z</time>
      </trkpt>
      <trkpt lat="45.83604" lon="4.82325">
        <ele>230.39999389648</ele>
        <time>2014-12-06T15:28:06.000Z</time>
      </trkpt>
      <trkpt lat="45.83602" lon="4.8231">
        <ele>229.60000610352</ele>
        <time>2014-12-06T15:28:07.000Z</time>
      </trkpt>
      <trkpt lat="45.836" lon="4.82276">
        <ele>226.80000305176</ele>
        <time>2014-12-06T15:28:10.000Z</time>
      </trkpt>
      <trkpt lat="45.83605" lon="4.82254">
        <ele>224.19999694824</ele>
        <time>2014-12-06T15:28:13.000Z</time>
      </trkpt>
      <trkpt lat="45.83558" lon="4.82209">
        <ele>218</ele>
        <time>2014-12-06T15:28:26.000Z</time>
      </trkpt>
      <trkpt lat="45.83512" lon="4.82168">
        <ele>216.60000610352</ele>
        <time>2014-12-06T15:28:42.000Z</time>
      </trkpt>
      <trkpt lat="45.83465" lon="4.82126">
        <ele>218.60000610352</ele>
        <time>2014-12-06T15:28:58.000Z</time>
      </trkpt>
      <trkpt lat="45.83418" lon="4.82089">
        <ele>221.60000610352</ele>
        <time>2014-12-06T15:29:13.000Z</time>
      </trkpt>
      <trkpt lat="45.8337" lon="4.82053">
        <ele>226.80000305176</ele>
        <time>2014-12-06T15:29:28.000Z</time>
      </trkpt>
      <trkpt lat="45.83325" lon="4.82005">
        <ele>231.39999389648</ele>
        <time>2014-12-06T15:29:44.000Z</time>
      </trkpt>
      <trkpt lat="45.8329" lon="4.81945">
        <ele>236.80000305176</ele>
        <time>2014-12-06T15:29:59.000Z</time>
      </trkpt>
      <trkpt lat="45.83255" lon="4.81884">
        <ele>241.39999389648</ele>
        <time>2014-12-06T15:30:14.000Z</time>
      </trkpt>
      <trkpt lat="45.83219" lon="4.8182">
        <ele>245</ele>
        <time>2014-12-06T15:30:31.000Z</time>
      </trkpt>
      <trkpt lat="45.832" lon="4.81747">
        <ele>251.39999389648</ele>
        <time>2014-12-06T15:30:47.000Z</time>
      </trkpt>
      <trkpt lat="45.83182" lon="4.81673">
        <ele>258.39999389648</ele>
        <time>2014-12-06T15:31:04.000Z</time>
      </trkpt>
      <trkpt lat="45.83205" lon="4.8162">
        <ele>264.79998779297</ele>
        <time>2014-12-06T15:31:21.000Z</time>
      </trkpt>
      <trkpt lat="45.83242" lon="4.81678">
        <ele>270.60000610352</ele>
        <time>2014-12-06T15:31:37.000Z</time>
      </trkpt>
      <trkpt lat="45.83288" lon="4.81725">
        <ele>275.60000610352</ele>
        <time>2014-12-06T15:31:54.000Z</time>
      </trkpt>
      <trkpt lat="45.83341" lon="4.81756">
        <ele>279.60000610352</ele>
        <time>2014-12-06T15:32:10.000Z</time>
      </trkpt>
      <trkpt lat="45.83395" lon="4.81759">
        <ele>282.79998779297</ele>
        <time>2014-12-06T15:32:25.000Z</time>
      </trkpt>
      <trkpt lat="45.83441" lon="4.81752">
        <ele>286.20001220703</ele>
        <time>2014-12-06T15:32:40.000Z</time>
      </trkpt>
      <trkpt lat="45.8345" lon="4.8175">
        <ele>288.60000610352</ele>
        <time>2014-12-06T15:33:08.000Z</time>
      </trkpt>
      <trkpt lat="45.83457" lon="4.81748">
        <ele>289</ele>
        <time>2014-12-06T15:33:13.000Z</time>
      </trkpt>
      <trkpt lat="45.83465" lon="4.81746">
        <ele>289.20001220703</ele>
        <time>2014-12-06T15:33:17.000Z</time>
      </trkpt>
      <trkpt lat="45.83521" lon="4.81742">
        <ele>290.39999389648</ele>
        <time>2014-12-06T15:33:37.000Z</time>
      </trkpt>
      <trkpt lat="45.83574" lon="4.81719">
        <ele>289.39999389648</ele>
        <time>2014-12-06T15:33:55.000Z</time>
      </trkpt>
      <trkpt lat="45.83619" lon="4.8167">
        <ele>290.79998779297</ele>
        <time>2014-12-06T15:34:13.000Z</time>
      </trkpt>
      <trkpt lat="45.83651" lon="4.81609">
        <ele>297.39999389648</ele>
        <time>2014-12-06T15:34:29.000Z</time>
      </trkpt>
      <trkpt lat="45.83667" lon="4.81534">
        <ele>306.39999389648</ele>
        <time>2014-12-06T15:34:47.000Z</time>
      </trkpt>
      <trkpt lat="45.83683" lon="4.81493">
        <ele>309.60000610352</ele>
        <time>2014-12-06T15:34:59.000Z</time>
      </trkpt>
      <trkpt lat="45.83664" lon="4.81487">
        <ele>310.39999389648</ele>
        <time>2014-12-06T15:35:10.000Z</time>
      </trkpt>
      <trkpt lat="45.83617" lon="4.81533">
        <ele>308</ele>
        <time>2014-12-06T15:35:28.000Z</time>
      </trkpt>
      <trkpt lat="45.83569" lon="4.81568">
        <ele>314.79998779297</ele>
        <time>2014-12-06T15:35:44.000Z</time>
      </trkpt>
      <trkpt lat="45.83526" lon="4.81531">
        <ele>323.60000610352</ele>
        <time>2014-12-06T15:36:01.000Z</time>
      </trkpt>
      <trkpt lat="45.83502" lon="4.81458">
        <ele>328.60000610352</ele>
        <time>2014-12-06T15:36:15.000Z</time>
      </trkpt>
      <trkpt lat="45.83456" lon="4.81419">
        <ele>333.79998779297</ele>
        <time>2014-12-06T15:36:31.000Z</time>
      </trkpt>
      <trkpt lat="45.83427" lon="4.81359">
        <ele>339.39999389648</ele>
        <time>2014-12-06T15:36:48.000Z</time>
      </trkpt>
      <trkpt lat="45.83474" lon="4.81361">
        <ele>344.39999389648</ele>
        <time>2014-12-06T15:37:06.000Z</time>
      </trkpt>
      <trkpt lat="45.83524" lon="4.81329">
        <ele>349.60000610352</ele>
        <time>2014-12-06T15:37:24.000Z</time>
      </trkpt>
      <trkpt lat="45.83559" lon="4.81278">
        <ele>355</ele>
        <time>2014-12-06T15:37:42.000Z</time>
      </trkpt>
      <trkpt lat="45.83539" lon="4.81208">
        <ele>360.60000610352</ele>
        <time>2014-12-06T15:38:00.000Z</time>
      </trkpt>
      <trkpt lat="45.83482" lon="4.81201">
        <ele>365.39999389648</ele>
        <time>2014-12-06T15:38:18.000Z</time>
      </trkpt>
      <trkpt lat="45.83427" lon="4.81206">
        <ele>369.20001220703</ele>
        <time>2014-12-06T15:38:36.000Z</time>
      </trkpt>
      <trkpt lat="45.8338" lon="4.81165">
        <ele>374</ele>
        <time>2014-12-06T15:38:53.000Z</time>
      </trkpt>
      <trkpt lat="45.83369" lon="4.81127">
        <ele>376.60000610352</ele>
        <time>2014-12-06T15:39:02.000Z</time>
      </trkpt>
      <trkpt lat="45.83389" lon="4.81103">
        <ele>378.79998779297</ele>
        <time>2014-12-06T15:39:10.000Z</time>
      </trkpt>
      <trkpt lat="45.83439" lon="4.8107">
        <ele>382.79998779297</ele>
        <time>2014-12-06T15:39:27.000Z</time>
      </trkpt>
      <trkpt lat="45.83492" lon="4.81045">
        <ele>385.79998779297</ele>
        <time>2014-12-06T15:39:44.000Z</time>
      </trkpt>
      <trkpt lat="45.8354" lon="4.81003">
        <ele>390.60000610352</ele>
        <time>2014-12-06T15:40:01.000Z</time>
      </trkpt>
      <trkpt lat="45.83593" lon="4.80976">
        <ele>394.79998779297</ele>
        <time>2014-12-06T15:40:20.000Z</time>
      </trkpt>
      <trkpt lat="45.83645" lon="4.80961">
        <ele>396.79998779297</ele>
        <time>2014-12-06T15:40:36.000Z</time>
      </trkpt>
      <trkpt lat="45.83659" lon="4.80887">
        <ele>400.20001220703</ele>
        <time>2014-12-06T15:40:53.000Z</time>
      </trkpt>
      <trkpt lat="45.83665" lon="4.80808">
        <ele>408.79998779297</ele>
        <time>2014-12-06T15:41:10.000Z</time>
      </trkpt>
      <trkpt lat="45.83695" lon="4.80741">
        <ele>414</ele>
        <time>2014-12-06T15:41:25.000Z</time>
      </trkpt>
      <trkpt lat="45.83723" lon="4.80703">
        <ele>415.39999389648</ele>
        <time>2014-12-06T15:41:36.000Z</time>
      </trkpt>
      <trkpt lat="45.83722" lon="4.80678">
        <ele>416.79998779297</ele>
        <time>2014-12-06T15:41:43.000Z</time>
      </trkpt>
      <trkpt lat="45.83712" lon="4.80599">
        <ele>426.60000610352</ele>
        <time>2014-12-06T15:42:08.000Z</time>
      </trkpt>
      <trkpt lat="45.83703" lon="4.80558">
        <ele>432.39999389648</ele>
        <time>2014-12-06T15:42:23.000Z</time>
      </trkpt>
      <trkpt lat="45.83718" lon="4.80551">
        <ele>434.39999389648</ele>
        <time>2014-12-06T15:42:31.000Z</time>
      </trkpt>
      <trkpt lat="45.83769" lon="4.80527">
        <ele>441.60000610352</ele>
        <time>2014-12-06T15:42:54.000Z</time>
      </trkpt>
      <trkpt lat="45.83784" lon="4.80528">
        <ele>445.60000610352</ele>
        <time>2014-12-06T15:44:35.000Z</time>
      </trkpt>
      <trkpt lat="45.83828" lon="4.80574">
        <ele>450.20001220703</ele>
        <time>2014-12-06T15:45:03.000Z</time>
      </trkpt>
      <trkpt lat="45.8387" lon="4.80623">
        <ele>454.20001220703</ele>
        <time>2014-12-06T15:45:29.000Z</time>
      </trkpt>
      <trkpt lat="45.83923" lon="4.80649">
        <ele>458.60000610352</ele>
        <time>2014-12-06T15:45:50.000Z</time>
      </trkpt>
      <trkpt lat="45.83977" lon="4.80652">
        <ele>461</ele>
        <time>2014-12-06T15:46:05.000Z</time>
      </trkpt>
      <trkpt lat="45.83999" lon="4.8065">
        <ele>461.60000610352</ele>
        <time>2014-12-06T15:46:10.000Z</time>
      </trkpt>
      <trkpt lat="45.84037" lon="4.80645">
        <ele>462.20001220703</ele>
        <time>2014-12-06T15:46:18.000Z</time>
      </trkpt>
      <trkpt lat="45.84055" lon="4.80641">
        <ele>462</ele>
        <time>2014-12-06T15:46:22.000Z</time>
      </trkpt>
      <trkpt lat="45.84109" lon="4.80617">
        <ele>460.39999389648</ele>
        <time>2014-12-06T15:46:33.000Z</time>
      </trkpt>
      <trkpt lat="45.8416" lon="4.80638">
        <ele>461.39999389648</ele>
        <time>2014-12-06T15:46:53.000Z</time>
      </trkpt>
      <trkpt lat="45.84214" lon="4.80622">
        <ele>469</ele>
        <time>2014-12-06T15:47:11.000Z</time>
      </trkpt>
      <trkpt lat="45.84266" lon="4.80598">
        <ele>478.39999389648</ele>
        <time>2014-12-06T15:47:31.000Z</time>
      </trkpt>
      <trkpt lat="45.84267" lon="4.80596">
        <ele>478.79998779297</ele>
        <time>2014-12-06T15:47:32.000Z</time>
      </trkpt>
      <trkpt lat="45.84257" lon="4.80575">
        <ele>482</ele>
        <time>2014-12-06T15:47:41.000Z</time>
      </trkpt>
      <trkpt lat="45.84216" lon="4.80524">
        <ele>487.20001220703</ele>
        <time>2014-12-06T15:47:59.000Z</time>
      </trkpt>
      <trkpt lat="45.84202" lon="4.80497">
        <ele>488.79998779297</ele>
        <time>2014-12-06T15:48:06.000Z</time>
      </trkpt>
      <trkpt lat="45.84192" lon="4.8042">
        <ele>494</ele>
        <time>2014-12-06T15:48:23.000Z</time>
      </trkpt>
      <trkpt lat="45.84141" lon="4.80427">
        <ele>497</ele>
        <time>2014-12-06T15:48:38.000Z</time>
      </trkpt>
      <trkpt lat="45.84137" lon="4.8043">
        <ele>497</ele>
        <time>2014-12-06T15:48:39.000Z</time>
      </trkpt>
      <trkpt lat="45.8412" lon="4.80438">
        <ele>497</ele>
        <time>2014-12-06T15:48:43.000Z</time>
      </trkpt>
      <trkpt lat="45.84064" lon="4.80438">
        <ele>498.39999389648</ele>
        <time>2014-12-06T15:48:56.000Z</time>
      </trkpt>
      <trkpt lat="45.84011" lon="4.80417">
        <ele>500.60000610352</ele>
        <time>2014-12-06T15:49:08.000Z</time>
      </trkpt>
      <trkpt lat="45.8398" lon="4.80401">
        <ele>502</ele>
        <time>2014-12-06T15:49:15.000Z</time>
      </trkpt>
      <trkpt lat="45.83938" lon="4.80357">
        <ele>504.20001220703</ele>
        <time>2014-12-06T15:49:27.000Z</time>
      </trkpt>
      <trkpt lat="45.8393" lon="4.80335">
        <ele>505.20001220703</ele>
        <time>2014-12-06T15:49:31.000Z</time>
      </trkpt>
      <trkpt lat="45.83919" lon="4.80295">
        <ele>506.20001220703</ele>
        <time>2014-12-06T15:49:38.000Z</time>
      </trkpt>
      <trkpt lat="45.83893" lon="4.80221">
        <ele>508</ele>
        <time>2014-12-06T15:49:51.000Z</time>
      </trkpt>
      <trkpt lat="45.83874" lon="4.80157">
        <ele>509.39999389648</ele>
        <time>2014-12-06T15:50:02.000Z</time>
      </trkpt>
      <trkpt lat="45.83865" lon="4.80111">
        <ele>510.20001220703</ele>
        <time>2014-12-06T15:50:09.000Z</time>
      </trkpt>
      <trkpt lat="45.8386" lon="4.80086">
        <ele>511</ele>
        <time>2014-12-06T15:50:13.000Z</time>
      </trkpt>
      <trkpt lat="45.83856" lon="4.80058">
        <ele>511.79998779297</ele>
        <time>2014-12-06T15:50:17.000Z</time>
      </trkpt>
      <trkpt lat="45.83837" lon="4.79982">
        <ele>514.20001220703</ele>
        <time>2014-12-06T15:50:27.000Z</time>
      </trkpt>
      <trkpt lat="45.83833" lon="4.79975">
        <ele>514.40002441406</ele>
        <time>2014-12-06T15:50:28.000Z</time>
      </trkpt>
      <trkpt lat="45.83818" lon="4.79954">
        <ele>515.40002441406</ele>
        <time>2014-12-06T15:50:32.000Z</time>
      </trkpt>
      <trkpt lat="45.83809" lon="4.79946">
        <ele>515.79998779297</ele>
        <time>2014-12-06T15:50:34.000Z</time>
      </trkpt>
      <trkpt lat="45.83783" lon="4.7993">
        <ele>517.40002441406</ele>
        <time>2014-12-06T15:50:40.000Z</time>
      </trkpt>
      <trkpt lat="45.83763" lon="4.79909">
        <ele>521</ele>
        <time>2014-12-06T15:53:00.000Z</time>
      </trkpt>
      <trkpt lat="45.83771" lon="4.79881">
        <ele>520.59997558594</ele>
        <time>2014-12-06T15:53:06.000Z</time>
      </trkpt>
      <trkpt lat="45.83806" lon="4.79813">
        <ele>520.59997558594</ele>
        <time>2014-12-06T15:53:18.000Z</time>
      </trkpt>
      <trkpt lat="45.83839" lon="4.79745">
        <ele>521.40002441406</ele>
        <time>2014-12-06T15:53:29.000Z</time>
      </trkpt>
      <trkpt lat="45.83855" lon="4.79676">
        <ele>522.20001220703</ele>
        <time>2014-12-06T15:53:37.000Z</time>
      </trkpt>
      <trkpt lat="45.83881" lon="4.79606">
        <ele>522.40002441406</ele>
        <time>2014-12-06T15:53:45.000Z</time>
      </trkpt>
      <trkpt lat="45.83913" lon="4.79543">
        <ele>522.40002441406</ele>
        <time>2014-12-06T15:53:53.000Z</time>
      </trkpt>
      <trkpt lat="45.83927" lon="4.79523">
        <ele>522.40002441406</ele>
        <time>2014-12-06T15:53:56.000Z</time>
      </trkpt>
      <trkpt lat="45.83977" lon="4.79478">
        <ele>523</ele>
        <time>2014-12-06T15:54:05.000Z</time>
      </trkpt>
      <trkpt lat="45.8403" lon="4.79435">
        <ele>523.20001220703</ele>
        <time>2014-12-06T15:54:14.000Z</time>
      </trkpt>
      <trkpt lat="45.84081" lon="4.79395">
        <ele>522.79998779297</ele>
        <time>2014-12-06T15:54:22.000Z</time>
      </trkpt>
      <trkpt lat="45.84137" lon="4.79359">
        <ele>521.20001220703</ele>
        <time>2014-12-06T15:54:30.000Z</time>
      </trkpt>
      <trkpt lat="45.84183" lon="4.79342">
        <ele>519.59997558594</ele>
        <time>2014-12-06T15:54:37.000Z</time>
      </trkpt>
      <trkpt lat="45.84189" lon="4.79339">
        <ele>518</ele>
        <time>2014-12-06T15:54:44.000Z</time>
      </trkpt>
      <trkpt lat="45.84177" lon="4.79323">
        <ele>517</ele>
        <time>2014-12-06T15:54:50.000Z</time>
      </trkpt>
      <trkpt lat="45.84118" lon="4.79296">
        <ele>515.40002441406</ele>
        <time>2014-12-06T15:54:59.000Z</time>
      </trkpt>
      <trkpt lat="45.8406" lon="4.79275">
        <ele>513.20001220703</ele>
        <time>2014-12-06T15:55:06.000Z</time>
      </trkpt>
      <trkpt lat="45.84017" lon="4.79281">
        <ele>511.39999389648</ele>
        <time>2014-12-06T15:55:10.000Z</time>
      </trkpt>
      <trkpt lat="45.83956" lon="4.79296">
        <ele>508.60000610352</ele>
        <time>2014-12-06T15:55:15.000Z</time>
      </trkpt>
      <trkpt lat="45.8393" lon="4.79298">
        <ele>507.60000610352</ele>
        <time>2014-12-06T15:55:17.000Z</time>
      </trkpt>
      <trkpt lat="45.83891" lon="4.79298">
        <ele>505.60000610352</ele>
        <time>2014-12-06T15:55:20.000Z</time>
      </trkpt>
      <trkpt lat="45.83827" lon="4.79325">
        <ele>502.39999389648</ele>
        <time>2014-12-06T15:55:25.000Z</time>
      </trkpt>
      <trkpt lat="45.83765" lon="4.79338">
        <ele>499.20001220703</ele>
        <time>2014-12-06T15:55:30.000Z</time>
      </trkpt>
      <trkpt lat="45.83724" lon="4.7934">
        <ele>493.79998779297</ele>
        <time>2014-12-06T15:55:42.000Z</time>
      </trkpt>
      <trkpt lat="45.83723" lon="4.79341">
        <ele>489.39999389648</ele>
        <time>2014-12-06T15:56:19.000Z</time>
      </trkpt>
      <trkpt lat="45.83721" lon="4.79342">
        <ele>489.20001220703</ele>
        <time>2014-12-06T15:56:22.000Z</time>
      </trkpt>
      <trkpt lat="45.83666" lon="4.79348">
        <ele>488.79998779297</ele>
        <time>2014-12-06T15:56:34.000Z</time>
      </trkpt>
      <trkpt lat="45.83611" lon="4.79353">
        <ele>487.60000610352</ele>
        <time>2014-12-06T15:56:40.000Z</time>
      </trkpt>
      <trkpt lat="45.83556" lon="4.79355">
        <ele>486.20001220703</ele>
        <time>2014-12-06T15:56:45.000Z</time>
      </trkpt>
      <trkpt lat="45.83497" lon="4.79364">
        <ele>484.79998779297</ele>
        <time>2014-12-06T15:56:50.000Z</time>
      </trkpt>
      <trkpt lat="45.83474" lon="4.79366">
        <ele>484.39999389648</ele>
        <time>2014-12-06T15:56:52.000Z</time>
      </trkpt>
      <trkpt lat="45.8343" lon="4.79354">
        <ele>483.60000610352</ele>
        <time>2014-12-06T15:56:56.000Z</time>
      </trkpt>
      <trkpt lat="45.83377" lon="4.79341">
        <ele>482.79998779297</ele>
        <time>2014-12-06T15:57:01.000Z</time>
      </trkpt>
      <trkpt lat="45.83313" lon="4.79332">
        <ele>482</ele>
        <time>2014-12-06T15:57:07.000Z</time>
      </trkpt>
      <trkpt lat="45.83252" lon="4.79314">
        <ele>481.39999389648</ele>
        <time>2014-12-06T15:57:13.000Z</time>
      </trkpt>
      <trkpt lat="45.83192" lon="4.79297">
        <ele>480.79998779297</ele>
        <time>2014-12-06T15:57:19.000Z</time>
      </trkpt>
      <trkpt lat="45.83132" lon="4.79281">
        <ele>480.20001220703</ele>
        <time>2014-12-06T15:57:25.000Z</time>
      </trkpt>
      <trkpt lat="45.83076" lon="4.79272">
        <ele>479.20001220703</ele>
        <time>2014-12-06T15:57:30.000Z</time>
      </trkpt>
      <trkpt lat="45.83017" lon="4.79275">
        <ele>477.60000610352</ele>
        <time>2014-12-06T15:57:35.000Z</time>
      </trkpt>
      <trkpt lat="45.82958" lon="4.79293">
        <ele>475.39999389648</ele>
        <time>2014-12-06T15:57:40.000Z</time>
      </trkpt>
      <trkpt lat="45.82933" lon="4.793">
        <ele>474.39999389648</ele>
        <time>2014-12-06T15:57:42.000Z</time>
      </trkpt>
      <trkpt lat="45.82879" lon="4.79266">
        <ele>471.79998779297</ele>
        <time>2014-12-06T15:57:47.000Z</time>
      </trkpt>
      <trkpt lat="45.82861" lon="4.7922">
        <ele>470.20001220703</ele>
        <time>2014-12-06T15:57:50.000Z</time>
      </trkpt>
      <trkpt lat="45.82837" lon="4.79145">
        <ele>467.39999389648</ele>
        <time>2014-12-06T15:57:55.000Z</time>
      </trkpt>
      <trkpt lat="45.82785" lon="4.79117">
        <ele>464.60000610352</ele>
        <time>2014-12-06T15:58:00.000Z</time>
      </trkpt>
      <trkpt lat="45.82725" lon="4.79104">
        <ele>461.60000610352</ele>
        <time>2014-12-06T15:58:05.000Z</time>
      </trkpt>
      <trkpt lat="45.82678" lon="4.79099">
        <ele>458.60000610352</ele>
        <time>2014-12-06T15:58:09.000Z</time>
      </trkpt>
      <trkpt lat="45.82619" lon="4.7912">
        <ele>454.60000610352</ele>
        <time>2014-12-06T15:58:14.000Z</time>
      </trkpt>
      <trkpt lat="45.82554" lon="4.79134">
        <ele>450.60000610352</ele>
        <time>2014-12-06T15:58:19.000Z</time>
      </trkpt>
      <trkpt lat="45.82516" lon="4.79147">
        <ele>448.20001220703</ele>
        <time>2014-12-06T15:58:22.000Z</time>
      </trkpt>
      <trkpt lat="45.82452" lon="4.79165">
        <ele>443.60000610352</ele>
        <time>2014-12-06T15:58:27.000Z</time>
      </trkpt>
      <trkpt lat="45.824" lon="4.79189">
        <ele>440</ele>
        <time>2014-12-06T15:58:31.000Z</time>
      </trkpt>
      <trkpt lat="45.82349" lon="4.79217">
        <ele>436.39999389648</ele>
        <time>2014-12-06T15:58:35.000Z</time>
      </trkpt>
      <trkpt lat="45.82285" lon="4.79247">
        <ele>431.79998779297</ele>
        <time>2014-12-06T15:58:40.000Z</time>
      </trkpt>
      <trkpt lat="45.82221" lon="4.79265">
        <ele>427.39999389648</ele>
        <time>2014-12-06T15:58:45.000Z</time>
      </trkpt>
      <trkpt lat="45.82159" lon="4.79287">
        <ele>423</ele>
        <time>2014-12-06T15:58:50.000Z</time>
      </trkpt>
      <trkpt lat="45.82102" lon="4.79318">
        <ele>418.39999389648</ele>
        <time>2014-12-06T15:58:55.000Z</time>
      </trkpt>
      <trkpt lat="45.82046" lon="4.79349">
        <ele>413.60000610352</ele>
        <time>2014-12-06T15:59:00.000Z</time>
      </trkpt>
      <trkpt lat="45.8202" lon="4.79368">
        <ele>410.60000610352</ele>
        <time>2014-12-06T15:59:03.000Z</time>
      </trkpt>
      <trkpt lat="45.81979" lon="4.79405">
        <ele>405.79998779297</ele>
        <time>2014-12-06T15:59:08.000Z</time>
      </trkpt>
      <trkpt lat="45.81947" lon="4.79422">
        <ele>403</ele>
        <time>2014-12-06T15:59:11.000Z</time>
      </trkpt>
      <trkpt lat="45.81887" lon="4.79444">
        <ele>398.60000610352</ele>
        <time>2014-12-06T15:59:16.000Z</time>
      </trkpt>
      <trkpt lat="45.81825" lon="4.79462">
        <ele>394.39999389648</ele>
        <time>2014-12-06T15:59:21.000Z</time>
      </trkpt>
      <trkpt lat="45.8179" lon="4.79481">
        <ele>391.79998779297</ele>
        <time>2014-12-06T15:59:24.000Z</time>
      </trkpt>
      <trkpt lat="45.81748" lon="4.79506">
        <ele>388.60000610352</ele>
        <time>2014-12-06T15:59:28.000Z</time>
      </trkpt>
      <trkpt lat="45.81719" lon="4.79552">
        <ele>385.39999389648</ele>
        <time>2014-12-06T15:59:32.000Z</time>
      </trkpt>
      <trkpt lat="45.81667" lon="4.79592">
        <ele>381.79998779297</ele>
        <time>2014-12-06T15:59:37.000Z</time>
      </trkpt>
      <trkpt lat="45.81615" lon="4.79631">
        <ele>378.39999389648</ele>
        <time>2014-12-06T15:59:42.000Z</time>
      </trkpt>
      <trkpt lat="45.81574" lon="4.79663">
        <ele>375.60000610352</ele>
        <time>2014-12-06T15:59:46.000Z</time>
      </trkpt>
      <trkpt lat="45.8152" lon="4.79686">
        <ele>372.79998779297</ele>
        <time>2014-12-06T15:59:51.000Z</time>
      </trkpt>
      <trkpt lat="45.81468" lon="4.7971">
        <ele>370.20001220703</ele>
        <time>2014-12-06T15:59:56.000Z</time>
      </trkpt>
      <trkpt lat="45.81421" lon="4.79736">
        <ele>367.79998779297</ele>
        <time>2014-12-06T16:00:01.000Z</time>
      </trkpt>
      <trkpt lat="45.81358" lon="4.7975">
        <ele>365.39999389648</ele>
        <time>2014-12-06T16:00:07.000Z</time>
      </trkpt>
      <trkpt lat="45.81296" lon="4.79761">
        <ele>362.79998779297</ele>
        <time>2014-12-06T16:00:13.000Z</time>
      </trkpt>
      <trkpt lat="45.81236" lon="4.79792">
        <ele>359.79998779297</ele>
        <time>2014-12-06T16:00:20.000Z</time>
      </trkpt>
      <trkpt lat="45.81182" lon="4.79819">
        <ele>356.39999389648</ele>
        <time>2014-12-06T16:00:27.000Z</time>
      </trkpt>
      <trkpt lat="45.81137" lon="4.79824">
        <ele>350.60000610352</ele>
        <time>2014-12-06T16:00:40.000Z</time>
      </trkpt>
      <trkpt lat="45.81079" lon="4.79829">
        <ele>346.20001220703</ele>
        <time>2014-12-06T16:00:51.000Z</time>
      </trkpt>
      <trkpt lat="45.81024" lon="4.79836">
        <ele>342.79998779297</ele>
        <time>2014-12-06T16:00:59.000Z</time>
      </trkpt>
      <trkpt lat="45.81004" lon="4.79827">
        <ele>341.39999389648</ele>
        <time>2014-12-06T16:01:03.000Z</time>
      </trkpt>
      <trkpt lat="45.80945" lon="4.79838">
        <ele>338.20001220703</ele>
        <time>2014-12-06T16:01:12.000Z</time>
      </trkpt>
      <trkpt lat="45.80889" lon="4.79858">
        <ele>335.39999389648</ele>
        <time>2014-12-06T16:01:19.000Z</time>
      </trkpt>
      <trkpt lat="45.80867" lon="4.79896">
        <ele>333.20001220703</ele>
        <time>2014-12-06T16:01:23.000Z</time>
      </trkpt>
      <trkpt lat="45.80832" lon="4.79966">
        <ele>329.79998779297</ele>
        <time>2014-12-06T16:01:29.000Z</time>
      </trkpt>
      <trkpt lat="45.80795" lon="4.80039">
        <ele>326.20001220703</ele>
        <time>2014-12-06T16:01:35.000Z</time>
      </trkpt>
      <trkpt lat="45.80781" lon="4.80058">
        <ele>325</ele>
        <time>2014-12-06T16:01:37.000Z</time>
      </trkpt>
      <trkpt lat="45.80744" lon="4.80086">
        <ele>322.39999389648</ele>
        <time>2014-12-06T16:01:41.000Z</time>
      </trkpt>
      <trkpt lat="45.80694" lon="4.80116">
        <ele>319.20001220703</ele>
        <time>2014-12-06T16:01:46.000Z</time>
      </trkpt>
      <trkpt lat="45.80651" lon="4.80137">
        <ele>316.79998779297</ele>
        <time>2014-12-06T16:01:50.000Z</time>
      </trkpt>
      <trkpt lat="45.80587" lon="4.80152">
        <ele>312.60000610352</ele>
        <time>2014-12-06T16:01:56.000Z</time>
      </trkpt>
      <trkpt lat="45.80531" lon="4.80172">
        <ele>309</ele>
        <time>2014-12-06T16:02:01.000Z</time>
      </trkpt>
      <trkpt lat="45.80469" lon="4.80201">
        <ele>304.79998779297</ele>
        <time>2014-12-06T16:02:06.000Z</time>
      </trkpt>
      <trkpt lat="45.8043" lon="4.80213">
        <ele>302.20001220703</ele>
        <time>2014-12-06T16:02:09.000Z</time>
      </trkpt>
      <trkpt lat="45.80369" lon="4.80216">
        <ele>298.20001220703</ele>
        <time>2014-12-06T16:02:14.000Z</time>
      </trkpt>
      <trkpt lat="45.80309" lon="4.80236">
        <ele>294.20001220703</ele>
        <time>2014-12-06T16:02:19.000Z</time>
      </trkpt>
      <trkpt lat="45.80252" lon="4.80262">
        <ele>290.39999389648</ele>
        <time>2014-12-06T16:02:24.000Z</time>
      </trkpt>
      <trkpt lat="45.80198" lon="4.80278">
        <ele>286.79998779297</ele>
        <time>2014-12-06T16:02:29.000Z</time>
      </trkpt>
      <trkpt lat="45.80144" lon="4.80293">
        <ele>283.79998779297</ele>
        <time>2014-12-06T16:02:34.000Z</time>
      </trkpt>
      <trkpt lat="45.80087" lon="4.80307">
        <ele>280.79998779297</ele>
        <time>2014-12-06T16:02:40.000Z</time>
      </trkpt>
      <trkpt lat="45.80026" lon="4.80323">
        <ele>277.79998779297</ele>
        <time>2014-12-06T16:02:47.000Z</time>
      </trkpt>
      <trkpt lat="45.79965" lon="4.80348">
        <ele>275.39999389648</ele>
        <time>2014-12-06T16:02:53.000Z</time>
      </trkpt>
      <trkpt lat="45.79914" lon="4.80377">
        <ele>273.20001220703</ele>
        <time>2014-12-06T16:02:58.000Z</time>
      </trkpt>
      <trkpt lat="45.79852" lon="4.80387">
        <ele>270.79998779297</ele>
        <time>2014-12-06T16:03:04.000Z</time>
      </trkpt>
      <trkpt lat="45.79808" lon="4.8035">
        <ele>267.79998779297</ele>
        <time>2014-12-06T16:03:13.000Z</time>
      </trkpt>
      <trkpt lat="45.79802" lon="4.80349">
        <ele>267.39999389648</ele>
        <time>2014-12-06T16:03:14.000Z</time>
      </trkpt>
      <trkpt lat="45.79758" lon="4.80342">
        <ele>265.39999389648</ele>
        <time>2014-12-06T16:03:20.000Z</time>
      </trkpt>
      <trkpt lat="45.79723" lon="4.80361">
        <ele>263.60000610352</ele>
        <time>2014-12-06T16:03:24.000Z</time>
      </trkpt>
      <trkpt lat="45.79665" lon="4.80402">
        <ele>260.79998779297</ele>
        <time>2014-12-06T16:03:30.000Z</time>
      </trkpt>
      <trkpt lat="45.79654" lon="4.80407">
        <ele>260.20001220703</ele>
        <time>2014-12-06T16:03:31.000Z</time>
      </trkpt>
      <trkpt lat="45.79595" lon="4.80402">
        <ele>257</ele>
        <time>2014-12-06T16:03:36.000Z</time>
      </trkpt>
      <trkpt lat="45.79571" lon="4.804">
        <ele>255.80000305176</ele>
        <time>2014-12-06T16:03:38.000Z</time>
      </trkpt>
      <trkpt lat="45.79509" lon="4.8041">
        <ele>252.19999694824</ele>
        <time>2014-12-06T16:03:43.000Z</time>
      </trkpt>
      <trkpt lat="45.79445" lon="4.8042">
        <ele>248.60000610352</ele>
        <time>2014-12-06T16:03:48.000Z</time>
      </trkpt>
      <trkpt lat="45.79394" lon="4.80427">
        <ele>245.60000610352</ele>
        <time>2014-12-06T16:03:52.000Z</time>
      </trkpt>
      <trkpt lat="45.79338" lon="4.80392">
        <ele>241.80000305176</ele>
        <time>2014-12-06T16:03:57.000Z</time>
      </trkpt>
      <trkpt lat="45.79329" lon="4.80381">
        <ele>241</ele>
        <time>2014-12-06T16:03:58.000Z</time>
      </trkpt>
      <trkpt lat="45.79278" lon="4.80327">
        <ele>237.19999694824</ele>
        <time>2014-12-06T16:04:03.000Z</time>
      </trkpt>
      <trkpt lat="45.79227" lon="4.80354">
        <ele>233.39999389648</ele>
        <time>2014-12-06T16:04:08.000Z</time>
      </trkpt>
      <trkpt lat="45.79208" lon="4.80397">
        <ele>231.19999694824</ele>
        <time>2014-12-06T16:04:11.000Z</time>
      </trkpt>
      <trkpt lat="45.79199" lon="4.80411">
        <ele>230.39999389648</ele>
        <time>2014-12-06T16:04:12.000Z</time>
      </trkpt>
      <trkpt lat="45.79154" lon="4.80444">
        <ele>227.19999694824</ele>
        <time>2014-12-06T16:04:16.000Z</time>
      </trkpt>
      <trkpt lat="45.79121" lon="4.80471">
        <ele>224.80000305176</ele>
        <time>2014-12-06T16:04:19.000Z</time>
      </trkpt>
      <trkpt lat="45.79077" lon="4.80541">
        <ele>221</ele>
        <time>2014-12-06T16:04:24.000Z</time>
      </trkpt>
      <trkpt lat="45.79059" lon="4.80565">
        <ele>219.19999694824</ele>
        <time>2014-12-06T16:04:26.000Z</time>
      </trkpt>
      <trkpt lat="45.79034" lon="4.80647">
        <ele>215</ele>
        <time>2014-12-06T16:04:31.000Z</time>
      </trkpt>
      <trkpt lat="45.79019" lon="4.80721">
        <ele>210.80000305176</ele>
        <time>2014-12-06T16:04:36.000Z</time>
      </trkpt>
      <trkpt lat="45.79074" lon="4.80753">
        <ele>206</ele>
        <time>2014-12-06T16:04:42.000Z</time>
      </trkpt>
      <trkpt lat="45.79117" lon="4.80797">
        <ele>202.19999694824</ele>
        <time>2014-12-06T16:04:47.000Z</time>
      </trkpt>
      <trkpt lat="45.79126" lon="4.80805">
        <ele>201.39999389648</ele>
        <time>2014-12-06T16:04:48.000Z</time>
      </trkpt>
      <trkpt lat="45.79167" lon="4.80814">
        <ele>198.39999389648</ele>
        <time>2014-12-06T16:04:52.000Z</time>
      </trkpt>
      <trkpt lat="45.79178" lon="4.80817">
        <ele>197.60000610352</ele>
        <time>2014-12-06T16:04:53.000Z</time>
      </trkpt>
      <trkpt lat="45.79169" lon="4.80866">
        <ele>191.60000610352</ele>
        <time>2014-12-06T16:05:01.000Z</time>
      </trkpt>
      <trkpt lat="45.79148" lon="4.80857">
        <ele>190</ele>
        <time>2014-12-06T16:05:04.000Z</time>
      </trkpt>
      <trkpt lat="45.79094" lon="4.80839">
        <ele>186.39999389648</ele>
        <time>2014-12-06T16:05:11.000Z</time>
      </trkpt>
      <trkpt lat="45.7904" lon="4.80819">
        <ele>183.39999389648</ele>
        <time>2014-12-06T16:05:19.000Z</time>
      </trkpt>
      <trkpt lat="45.78982" lon="4.808">
        <ele>181</ele>
        <time>2014-12-06T16:05:27.000Z</time>
      </trkpt>
      <trkpt lat="45.78924" lon="4.80779">
        <ele>179.19999694824</ele>
        <time>2014-12-06T16:05:34.000Z</time>
      </trkpt>
      <trkpt lat="45.78892" lon="4.80775">
        <ele>178.19999694824</ele>
        <time>2014-12-06T16:05:38.000Z</time>
      </trkpt>
      <trkpt lat="45.78843" lon="4.80804">
        <ele>176.60000610352</ele>
        <time>2014-12-06T16:05:45.000Z</time>
      </trkpt>
      <trkpt lat="45.78831" lon="4.80818">
        <ele>176.19999694824</ele>
        <time>2014-12-06T16:05:47.000Z</time>
      </trkpt>
      <trkpt lat="45.78788" lon="4.80869">
        <ele>173.60000610352</ele>
        <time>2014-12-06T16:06:03.000Z</time>
      </trkpt>
      <trkpt lat="45.78769" lon="4.80869">
        <ele>172.80000305176</ele>
        <time>2014-12-06T16:06:06.000Z</time>
      </trkpt>
      <trkpt lat="45.78712" lon="4.80844">
        <ele>170.80000305176</ele>
        <time>2014-12-06T16:06:13.000Z</time>
      </trkpt>
      <trkpt lat="45.78653" lon="4.80818">
        <ele>169</ele>
        <time>2014-12-06T16:06:20.000Z</time>
      </trkpt>
      <trkpt lat="45.78619" lon="4.80802">
        <ele>167.80000305176</ele>
        <time>2014-12-06T16:06:25.000Z</time>
      </trkpt>
      <trkpt lat="45.78563" lon="4.80774">
        <ele>166.60000610352</ele>
        <time>2014-12-06T16:06:44.000Z</time>
      </trkpt>
      <trkpt lat="45.7854" lon="4.80764">
        <ele>166.60000610352</ele>
        <time>2014-12-06T16:06:47.000Z</time>
      </trkpt>
      <trkpt lat="45.78513" lon="4.80777">
        <ele>166.60000610352</ele>
        <time>2014-12-06T16:06:51.000Z</time>
      </trkpt>
      <trkpt lat="45.78459" lon="4.80811">
        <ele>166.19999694824</ele>
        <time>2014-12-06T16:07:00.000Z</time>
      </trkpt>
      <trkpt lat="45.78445" lon="4.80818">
        <ele>166.39999389648</ele>
        <time>2014-12-06T16:07:03.000Z</time>
      </trkpt>
      <trkpt lat="45.78411" lon="4.80811">
        <ele>167</ele>
        <time>2014-12-06T16:07:09.000Z</time>
      </trkpt>
      <trkpt lat="45.7836" lon="4.80784">
        <ele>168</ele>
        <time>2014-12-06T16:07:17.000Z</time>
      </trkpt>
      <trkpt lat="45.78305" lon="4.80753">
        <ele>168.39999389648</ele>
        <time>2014-12-06T16:07:25.000Z</time>
      </trkpt>
      <trkpt lat="45.78254" lon="4.80728">
        <ele>168</ele>
        <time>2014-12-06T16:07:32.000Z</time>
      </trkpt>
      <trkpt lat="45.78199" lon="4.80696">
        <ele>167.60000610352</ele>
        <time>2014-12-06T16:07:40.000Z</time>
      </trkpt>
      <trkpt lat="45.78163" lon="4.80668">
        <ele>170.80000305176</ele>
        <time>2014-12-06T16:08:31.000Z</time>
      </trkpt>
      <trkpt lat="45.78138" lon="4.80705">
        <ele>172.19999694824</ele>
        <time>2014-12-06T16:08:39.000Z</time>
      </trkpt>
      <trkpt lat="45.78128" lon="4.80725">
        <ele>172.39999389648</ele>
        <time>2014-12-06T16:08:42.000Z</time>
      </trkpt>
      <trkpt lat="45.78098" lon="4.80793">
        <ele>172.19999694824</ele>
        <time>2014-12-06T16:08:51.000Z</time>
      </trkpt>
      <trkpt lat="45.78068" lon="4.80858">
        <ele>171.60000610352</ele>
        <time>2014-12-06T16:09:04.000Z</time>
      </trkpt>
      <trkpt lat="45.78041" lon="4.80917">
        <ele>171.80000305176</ele>
        <time>2014-12-06T16:09:35.000Z</time>
      </trkpt>
      <trkpt lat="45.78022" lon="4.80989">
        <ele>172.60000610352</ele>
        <time>2014-12-06T16:09:41.000Z</time>
      </trkpt>
      <trkpt lat="45.78003" lon="4.81062">
        <ele>173</ele>
        <time>2014-12-06T16:09:46.000Z</time>
      </trkpt>
      <trkpt lat="45.77983" lon="4.8113">
        <ele>172.80000305176</ele>
        <time>2014-12-06T16:09:51.000Z</time>
      </trkpt>
      <trkpt lat="45.77977" lon="4.81154">
        <ele>173.19999694824</ele>
        <time>2014-12-06T16:10:18.000Z</time>
      </trkpt>
      <trkpt lat="45.77924" lon="4.81139">
        <ele>175.19999694824</ele>
        <time>2014-12-06T16:10:31.000Z</time>
      </trkpt>
      <trkpt lat="45.77868" lon="4.81116">
        <ele>175.19999694824</ele>
        <time>2014-12-06T16:10:40.000Z</time>
      </trkpt>
      <trkpt lat="45.77816" lon="4.81093">
        <ele>175.60000610352</ele>
        <time>2014-12-06T16:10:49.000Z</time>
      </trkpt>
      <trkpt lat="45.7778" lon="4.81076">
        <ele>175.60000610352</ele>
        <time>2014-12-06T16:10:55.000Z</time>
      </trkpt>
      <trkpt lat="45.77735" lon="4.81057">
        <ele>175</ele>
        <time>2014-12-06T16:11:02.000Z</time>
      </trkpt>
      <trkpt lat="45.7768" lon="4.8104">
        <ele>174.39999389648</ele>
        <time>2014-12-06T16:11:10.000Z</time>
      </trkpt>
      <trkpt lat="45.77621" lon="4.81029">
        <ele>173.39999389648</ele>
        <time>2014-12-06T16:11:19.000Z</time>
      </trkpt>
      <trkpt lat="45.7761" lon="4.81027">
        <ele>173.19999694824</ele>
        <time>2014-12-06T16:11:21.000Z</time>
      </trkpt>
      <trkpt lat="45.77583" lon="4.81027">
        <ele>173</ele>
        <time>2014-12-06T16:11:27.000Z</time>
      </trkpt>
      <trkpt lat="45.77527" lon="4.81029">
        <ele>173</ele>
        <time>2014-12-06T16:11:37.000Z</time>
      </trkpt>
      <trkpt lat="45.77477" lon="4.81048">
        <ele>172.39999389648</ele>
        <time>2014-12-06T16:11:43.000Z</time>
      </trkpt>
      <trkpt lat="45.77423" lon="4.81087">
        <ele>171.80000305176</ele>
        <time>2014-12-06T16:11:50.000Z</time>
      </trkpt>
      <trkpt lat="45.77394" lon="4.81125">
        <ele>171.19999694824</ele>
        <time>2014-12-06T16:11:55.000Z</time>
      </trkpt>
      <trkpt lat="45.77362" lon="4.81194">
        <ele>170.39999389648</ele>
        <time>2014-12-06T16:12:02.000Z</time>
      </trkpt>
      <trkpt lat="45.77326" lon="4.81253">
        <ele>170</ele>
        <time>2014-12-06T16:12:09.000Z</time>
      </trkpt>
      <trkpt lat="45.7728" lon="4.81299">
        <ele>169.19999694824</ele>
        <time>2014-12-06T16:12:16.000Z</time>
      </trkpt>
      <trkpt lat="45.77228" lon="4.81336">
        <ele>168.39999389648</ele>
        <time>2014-12-06T16:12:23.000Z</time>
      </trkpt>
      <trkpt lat="45.77172" lon="4.81366">
        <ele>167.60000610352</ele>
        <time>2014-12-06T16:12:30.000Z</time>
      </trkpt>
      <trkpt lat="45.77114" lon="4.81393">
        <ele>167</ele>
        <time>2014-12-06T16:12:37.000Z</time>
      </trkpt>
      <trkpt lat="45.77061" lon="4.81413">
        <ele>166.60000610352</ele>
        <time>2014-12-06T16:12:46.000Z</time>
      </trkpt>
      <trkpt lat="45.77006" lon="4.81427">
        <ele>168.19999694824</ele>
        <time>2014-12-06T16:13:45.000Z</time>
      </trkpt>
      <trkpt lat="45.76979" lon="4.81439">
        <ele>169.19999694824</ele>
        <time>2014-12-06T16:13:50.000Z</time>
      </trkpt>
      <trkpt lat="45.76925" lon="4.81469">
        <ele>170</ele>
        <time>2014-12-06T16:13:59.000Z</time>
      </trkpt>
      <trkpt lat="45.76873" lon="4.81503">
        <ele>169.80000305176</ele>
        <time>2014-12-06T16:14:06.000Z</time>
      </trkpt>
      <trkpt lat="45.7683" lon="4.81558">
        <ele>169.39999389648</ele>
        <time>2014-12-06T16:14:13.000Z</time>
      </trkpt>
      <trkpt lat="45.76797" lon="4.8163">
        <ele>169</ele>
        <time>2014-12-06T16:14:20.000Z</time>
      </trkpt>
      <trkpt lat="45.76777" lon="4.81709">
        <ele>169</ele>
        <time>2014-12-06T16:14:27.000Z</time>
      </trkpt>
      <trkpt lat="45.76761" lon="4.81793">
        <ele>169</ele>
        <time>2014-12-06T16:14:34.000Z</time>
      </trkpt>
      <trkpt lat="45.76755" lon="4.81842">
        <ele>169.19999694824</ele>
        <time>2014-12-06T16:14:38.000Z</time>
      </trkpt>
      <trkpt lat="45.76758" lon="4.81893">
        <ele>169.19999694824</ele>
        <time>2014-12-06T16:14:42.000Z</time>
      </trkpt>
      <trkpt lat="45.76772" lon="4.81977">
        <ele>169.39999389648</ele>
        <time>2014-12-06T16:14:49.000Z</time>
      </trkpt>
      <trkpt lat="45.76786" lon="4.82058">
        <ele>169.80000305176</ele>
        <time>2014-12-06T16:14:56.000Z</time>
      </trkpt>
      <trkpt lat="45.76802" lon="4.82143">
        <ele>170</ele>
        <time>2014-12-06T16:15:03.000Z</time>
      </trkpt>
      <trkpt lat="45.76819" lon="4.82222">
        <ele>170</ele>
        <time>2014-12-06T16:15:10.000Z</time>
      </trkpt>
      <trkpt lat="45.76828" lon="4.82299">
        <ele>169.80000305176</ele>
        <time>2014-12-06T16:15:17.000Z</time>
      </trkpt>
      <trkpt lat="45.76833" lon="4.82378">
        <ele>169.39999389648</ele>
        <time>2014-12-06T16:15:24.000Z</time>
      </trkpt>
      <trkpt lat="45.76838" lon="4.82457">
        <ele>169</ele>
        <time>2014-12-06T16:15:31.000Z</time>
      </trkpt>
      <trkpt lat="45.76841" lon="4.82537">
        <ele>168.60000610352</ele>
        <time>2014-12-06T16:15:38.000Z</time>
      </trkpt>
      <trkpt lat="45.76842" lon="4.82612">
        <ele>168.19999694824</ele>
        <time>2014-12-06T16:15:45.000Z</time>
      </trkpt>
      <trkpt lat="45.76829" lon="4.82692">
        <ele>168</ele>
        <time>2014-12-06T16:15:53.000Z</time>
      </trkpt>
      <trkpt lat="45.76807" lon="4.82772">
        <ele>168</ele>
        <time>2014-12-06T16:16:01.000Z</time>
      </trkpt>
      <trkpt lat="45.76787" lon="4.8283">
        <ele>168.19999694824</ele>
        <time>2014-12-06T16:16:07.000Z</time>
      </trkpt>
      <trkpt lat="45.76748" lon="4.82897">
        <ele>168.80000305176</ele>
        <time>2014-12-06T16:16:15.000Z</time>
      </trkpt>
      <trkpt lat="45.76713" lon="4.82958">
        <ele>168.80000305176</ele>
        <time>2014-12-06T16:16:22.000Z</time>
      </trkpt>
      <trkpt lat="45.76675" lon="4.83016">
        <ele>168.80000305176</ele>
        <time>2014-12-06T16:16:32.000Z</time>
      </trkpt>
      <trkpt lat="45.76666" lon="4.83035">
        <ele>167.80000305176</ele>
        <time>2014-12-06T16:16:40.000Z</time>
      </trkpt>
      <trkpt lat="45.76672" lon="4.83067">
        <ele>165.39999389648</ele>
        <time>2014-12-06T16:16:52.000Z</time>
      </trkpt>
      <trkpt lat="45.76691" lon="4.83142">
        <ele>161.80000305176</ele>
        <time>2014-12-06T16:17:05.000Z</time>
      </trkpt>
      <trkpt lat="45.76694" lon="4.83173">
        <ele>160.39999389648</ele>
        <time>2014-12-06T16:17:15.000Z</time>
      </trkpt>
      <trkpt lat="45.76698" lon="4.83184">
        <ele>160.19999694824</ele>
        <time>2014-12-06T16:17:17.000Z</time>
      </trkpt>
      <trkpt lat="45.76703" lon="4.83217">
        <ele>160</ele>
        <time>2014-12-06T16:17:22.000Z</time>
      </trkpt>
      <trkpt lat="45.76704" lon="4.83231">
        <ele>160</ele>
        <time>2014-12-06T16:17:24.000Z</time>
      </trkpt>
      <trkpt lat="45.76705" lon="4.83245">
        <ele>160</ele>
        <time>2014-12-06T16:17:26.000Z</time>
      </trkpt>
      <trkpt lat="45.76714" lon="4.83281">
        <ele>160.80000305176</ele>
        <time>2014-12-06T16:17:37.000Z</time>
      </trkpt>
      <trkpt lat="45.76721" lon="4.83358">
        <ele>163</ele>
        <time>2014-12-06T16:17:57.000Z</time>
      </trkpt>
      <trkpt lat="45.76728" lon="4.83402">
        <ele>163.80000305176</ele>
        <time>2014-12-06T16:18:11.000Z</time>
      </trkpt>
      <trkpt lat="45.76726" lon="4.83422">
        <ele>161.80000305176</ele>
        <time>2014-12-06T16:18:21.000Z</time>
      </trkpt>
      <trkpt lat="45.76735" lon="4.83425">
        <ele>160.19999694824</ele>
        <time>2014-12-06T16:18:53.000Z</time>
      </trkpt>
      <trkpt lat="45.76743" lon="4.83426">
        <ele>160.60000610352</ele>
        <time>2014-12-06T16:18:57.000Z</time>
      </trkpt>
      <trkpt lat="45.76749" lon="4.83426">
        <ele>161.19999694824</ele>
        <time>2014-12-06T16:19:01.000Z</time>
      </trkpt>
      <trkpt lat="45.76766" lon="4.83424">
        <ele>162.80000305176</ele>
        <time>2014-12-06T16:19:13.000Z</time>
      </trkpt>
      <trkpt lat="45.76773" lon="4.83423">
        <ele>164.19999694824</ele>
        <time>2014-12-06T16:19:29.000Z</time>
      </trkpt>
      <trkpt lat="45.76828" lon="4.83432">
        <ele>160.80000305176</ele>
        <time>2014-12-06T16:20:10.000Z</time>
      </trkpt>
      <trkpt lat="45.76846" lon="4.83454">
        <ele>158.19999694824</ele>
        <time>2014-12-06T16:20:30.000Z</time>
      </trkpt>
      <trkpt lat="45.76854" lon="4.83458">
        <ele>155.80000305176</ele>
        <time>2014-12-06T16:20:35.000Z</time>
      </trkpt>
      <trkpt lat="45.7686" lon="4.83466">
        <ele>152.39999389648</ele>
        <time>2014-12-06T16:20:40.000Z</time>
      </trkpt>
      <trkpt lat="45.76902" lon="4.8352">
        <ele>125.40000152588</ele>
        <time>2014-12-06T16:21:02.000Z</time>
      </trkpt>
      <trkpt lat="45.76903" lon="4.83523">
        <ele>123.80000305176</ele>
        <time>2014-12-06T16:21:03.000Z</time>
      </trkpt>
      <trkpt lat="45.76951" lon="4.83569">
        <ele>89.199996948242</ele>
        <time>2014-12-06T16:21:24.000Z</time>
      </trkpt>
      <trkpt lat="45.76954" lon="4.8357">
        <ele>86.800003051758</ele>
        <time>2014-12-06T16:21:27.000Z</time>
      </trkpt>
      <trkpt lat="45.76963" lon="4.83573">
        <ele>83.199996948242</ele>
        <time>2014-12-06T16:21:36.000Z</time>
      </trkpt>
    </trkseg>
  </trk>
</gpx>